[[{"header":{"parameterUnit":"m.s-1","parameterCategory":1,"la1":30.6,"la2":29.2853,"lo1":-89.7004,"lo2":-87.6739,"dx":0.0162,"dy":0.0183,"nx":112,"ny":82,"refTime":"2023-01-21T06:00:00:Z","depth":0,"parameterNumber":2,"parameterNumberName":"U-component_of_WINDS"},"data":[0.0,0.0,0.0,0.0,0.0,0.0,0.0,0.0,0.0,0.0,0.0,0.0,0.0,0.0,0.0,0.0,0.0,0.0,0.0,0.0,0.0,0.0,0.0,0.0,0.0,0.0,0.0,0.0,0.0,0.0,0.0,0.0,0.0,0.0,0.0,0.0,0.0,0.0,0.0,0.0,0.0,0.0,0.0,0.0,0.0,0.0,0.0,0.0,0.0,0.0,0.0,0.0,0.0,0.0,0.0,0.0,0.0,0.0,0.0,0.0,0.0,0.0,0.0,0.0,0.0,0.0,0.0,0.0,0.0,0.0,0.0,0.0,0.0,0.0,0.0,0.0,0.0,0.0,0.0,0.0,0.0,0.0,0.0,0.0,0.0,0.0,0.0,0.0,0.0,0.0,1.5382,1.5366,1.5772,1.6048,1.6048,1.6048,1.574,1.5009,0.0,0.0,0.0,0.0,0.0,0.0,0.0,0.0,0.0,0.0,0.0,0.0,0.0,0.0,0.0,0.0,0.0,0.0,0.0,0.0,0.0,0.0,0.0,0.0,0.0,0.0,0.0,0.0,0.0,0.0,0.0,0.0,0.0,0.0,0.0,0.0,0.0,0.0,0.0,0.0,0.0,0.0,0.0,0.0,0.0,0.0,0.0,0.0,0.0,0.0,0.0,0.0,0.0,0.0,0.0,0.0,0.0,0.0,0.0,0.0,0.0,0.0,0.0,0.0,0.0,0.0,0.0,0.0,0.0,0.0,0.0,0.0,0.0,0.0,0.0,0.0,0.0,0.0,0.0,0.0,0.0,0.0,0.0,0.0,0.0,0.0,0.0,0.0,0.0,0.0,0.0,0.0,0.0,0.0,0.0,0.0,0.0,0.0,0.0,0.0,0.0,0.0,0.0,0.0,1.5114,1.5845,1.5999,1.6048,1.6048,1.6048,1.574,1.5009,0.0,0.0,0.0,0.0,0.0,0.0,0.0,0.0,0.0,0.0,0.0,0.0,0.0,0.0,0.0,0.0,0.0,0.0,0.0,0.0,0.0,0.0,0.0,0.0,0.0,0.0,0.0,0.0,0.0,0.0,0.0,0.0,0.0,0.0,0.0,0.0,0.0,0.0,0.0,0.0,0.0,0.0,0.0,0.0,0.0,0.0,0.0,0.0,0.0,0.0,0.0,0.0,0.0,0.0,0.0,0.0,0.0,0.0,0.0,0.0,0.0,0.0,0.0,0.0,0.0,0.0,0.0,0.0,0.0,0.0,0.0,0.0,0.0,0.0,0.0,0.0,0.0,0.0,0.0,0.0,0.0,0.0,0.0,0.0,0.0,0.0,0.0,0.0,0.0,0.0,0.0,0.0,0.0,0.0,0.0,0.0,0.0,0.0,0.0,0.0,0.0,0.0,0.0,1.4871,1.5374,1.5983,1.6048,1.6048,1.6048,1.6048,1.574,1.5009,1.4968,0.0,0.0,0.0,0.0,0.0,0.0,0.0,0.0,0.0,0.0,0.0,0.0,0.0,0.0,0.0,0.0,0.0,0.0,0.0,0.0,0.0,0.0,0.0,0.0,0.0,0.0,0.0,0.0,0.0,0.0,0.0,0.0,0.0,0.0,0.0,0.0,0.0,0.0,0.0,0.0,0.0,0.0,0.0,0.0,0.0,0.0,0.0,0.0,0.0,0.0,0.0,0.0,0.0,0.0,0.0,0.0,0.0,0.0,0.0,0.0,0.0,0.0,0.0,0.0,0.0,0.0,0.0,0.0,0.0,0.0,0.0,0.0,0.0,0.0,0.0,0.0,0.0,0.0,0.0,0.0,0.0,0.0,0.0,0.0,0.0,0.0,0.0,0.0,0.0,0.0,0.0,0.0,0.0,0.0,0.0,0.0,0.0,0.0,0.0,0.0,0.0,0.0,1.5358,1.5748,1.6016,1.6081,1.6105,1.6105,1.6073,1.5772,1.5139,1.5017,0.0,0.0,0.0,0.0,0.0,0.0,0.0,0.0,0.0,0.0,0.0,0.0,0.0,0.0,0.0,0.0,0.0,0.0,0.0,0.0,0.0,0.0,0.0,0.0,0.0,0.0,0.0,0.0,0.0,0.0,0.0,0.0,0.0,0.0,0.0,0.0,0.0,0.0,0.0,0.0,0.0,0.0,0.0,0.0,0.0,0.0,0.0,0.0,0.0,0.0,0.0,0.0,0.0,0.0,0.0,0.0,0.0,0.0,0.0,0.0,0.0,0.0,0.0,0.0,0.0,0.0,0.0,0.0,0.0,0.0,0.0,0.0,0.0,0.0,0.0,0.0,0.0,0.0,0.0,0.0,0.0,0.0,0.0,0.0,0.0,0.0,0.0,0.0,0.0,0.0,0.0,0.0,0.0,0.0,0.0,0.0,0.0,0.0,0.0,0.0,0.0,0.0,1.5577,1.6016,1.604,1.6186,1.6284,1.6284,1.6137,1.5886,1.5504,1.5155,0.0,0.0,0.0,0.0,0.0,0.0,0.0,0.0,0.0,0.0,0.0,0.0,0.0,0.0,0.0,0.0,0.0,0.0,0.0,0.0,0.0,0.0,0.0,0.0,0.0,0.0,0.0,0.0,0.0,0.0,0.0,0.0,0.0,0.0,0.0,0.0,0.0,0.0,0.0,0.0,0.0,0.0,0.0,0.0,0.0,0.0,0.0,0.0,0.0,0.0,0.0,0.0,0.0,0.0,0.0,0.0,0.0,0.0,0.0,0.0,0.0,0.0,0.0,0.0,0.0,0.0,0.0,0.0,0.0,0.0,0.0,0.0,0.0,0.0,0.0,0.0,0.0,0.0,0.0,0.0,0.0,0.0,0.0,0.0,0.0,0.0,0.0,0.0,0.0,0.0,0.0,0.0,0.0,0.0,0.0,0.0,0.0,0.0,0.0,0.0,0.0,0.0,1.5666,1.6129,0.0,1.6438,1.6479,1.6479,1.6414,1.6129,1.5553,0.0,0.0,0.0,0.0,0.0,0.0,0.0,0.0,0.0,0.0,0.0,0.0,0.0,0.0,0.0,0.0,0.0,0.0,0.0,0.0,0.0,0.0,0.0,0.0,0.0,0.0,0.0,0.0,0.0,0.0,0.0,0.0,0.0,0.0,0.0,0.0,0.0,0.0,0.0,0.0,0.0,0.0,0.0,0.0,0.0,0.0,0.0,0.0,0.0,0.0,0.0,0.0,0.0,0.0,0.0,0.0,0.0,0.0,0.0,0.0,0.0,0.0,0.0,0.0,0.0,0.0,0.0,0.0,0.0,0.0,0.0,0.0,0.0,0.0,0.0,0.0,0.0,0.0,0.0,0.0,0.0,0.0,0.0,0.0,0.0,0.0,0.0,0.0,0.0,0.0,0.0,0.0,0.0,0.0,0.0,0.0,0.0,0.0,0.0,0.0,0.0,0.0,1.5293,1.5845,1.6308,0.0,1.6633,1.6665,1.6665,1.6617,1.6324,1.5723,0.0,0.0,0.0,0.0,0.0,0.0,0.0,0.0,0.0,0.0,0.0,0.0,0.0,0.0,0.0,0.0,0.0,0.0,0.0,0.0,0.0,0.0,0.0,0.0,0.0,0.0,0.0,0.0,0.0,0.0,0.0,0.0,0.0,0.0,0.0,0.0,0.0,0.0,0.0,0.0,0.0,0.0,0.0,0.0,0.0,0.0,0.0,0.0,0.0,0.0,0.0,0.0,0.0,0.0,0.0,0.0,0.0,0.0,0.0,0.0,0.0,0.0,0.0,0.0,0.0,0.0,0.0,0.0,0.0,0.0,0.0,0.0,0.0,0.0,0.0,0.0,0.0,0.0,0.0,0.0,0.0,0.0,0.0,0.0,0.0,0.0,0.0,0.0,0.0,0.0,0.0,0.0,0.0,0.0,0.0,0.0,0.0,0.0,0.0,0.0,0.0,0.0,1.552,1.6146,1.6584,1.6584,1.6747,1.6852,1.6852,1.669,1.643,0.0,0.0,0.0,0.0,0.0,0.0,0.0,0.0,0.0,0.0,0.0,0.0,0.0,0.0,0.0,0.0,0.0,0.0,0.0,0.0,0.0,0.0,0.0,0.0,0.0,0.0,0.0,0.0,0.0,0.0,0.0,0.0,0.0,0.0,0.0,0.0,0.0,0.0,0.0,0.0,0.0,0.0,0.0,0.0,0.0,0.0,0.0,0.0,0.0,0.0,0.0,0.0,0.0,0.0,0.0,0.0,0.0,0.0,0.0,0.0,0.0,0.0,0.0,0.0,0.0,0.0,0.0,0.0,0.0,0.0,0.0,0.0,0.0,0.0,0.0,0.0,0.0,0.0,0.0,0.0,0.0,0.0,0.0,0.0,0.0,0.0,0.0,0.0,0.0,0.0,0.0,0.0,0.0,0.0,0.0,0.0,0.0,0.0,0.0,0.0,0.0,0.0,0.0,1.5699,1.643,1.695,1.695,1.6998,1.7039,1.7039,1.6982,1.669,1.6081,0.0,0.0,0.0,0.0,0.0,0.0,0.0,0.0,0.0,0.0,0.0,0.0,0.0,0.0,0.0,0.0,0.0,0.0,0.0,0.0,0.0,0.0,0.0,0.0,0.0,0.0,0.0,0.0,0.0,0.0,0.0,0.0,0.0,0.0,0.0,0.0,0.0,0.0,0.0,0.0,0.0,0.0,0.0,0.0,0.0,0.0,0.0,0.0,0.0,0.0,0.0,0.0,0.0,0.0,0.0,0.0,0.0,0.0,0.0,0.0,0.0,0.0,0.0,0.0,0.0,0.0,0.0,0.0,0.0,0.0,0.0,0.0,0.0,0.0,0.0,0.0,0.0,0.0,0.0,0.0,0.0,0.0,0.0,0.0,0.0,0.0,0.0,0.0,0.0,0.0,0.0,0.0,0.0,0.0,0.0,0.0,0.0,0.0,0.0,0.0,0.0,0.0,1.5886,1.66,1.7136,1.721,1.7218,1.725,1.7315,1.7323,1.708,1.6503,0.0,0.0,0.0,0.0,0.0,0.0,0.0,0.0,0.0,0.0,0.0,0.0,0.0,0.0,0.0,0.0,0.0,0.0,0.0,0.0,0.0,0.0,0.0,0.0,0.0,0.0,0.0,0.0,0.0,0.0,0.0,0.0,0.0,0.0,0.0,0.0,0.0,0.0,0.0,0.0,0.0,0.0,0.0,0.0,0.0,0.0,0.0,0.0,0.0,0.0,0.0,0.0,0.0,0.0,0.0,0.0,0.0,0.0,0.0,0.0,0.0,0.0,0.0,0.0,0.0,0.0,0.0,0.0,0.0,0.0,0.0,0.0,0.0,0.0,0.0,0.0,0.0,0.0,0.0,0.0,0.0,0.0,0.0,0.0,0.0,0.0,0.0,0.0,0.0,0.0,0.0,0.0,0.0,0.0,0.0,0.0,0.0,0.0,0.0,0.0,0.0,0.0,1.6089,1.6722,1.7226,1.7396,1.7413,1.7478,1.7624,1.764,1.7486,1.7136,0.0,0.0,0.0,0.0,0.0,0.0,0.0,0.0,0.0,0.0,0.0,0.0,0.0,0.0,0.0,0.0,0.0,0.0,0.0,0.0,0.0,0.0,0.0,0.0,0.0,0.0,0.0,0.0,0.0,0.0,0.0,0.0,0.0,0.0,0.0,0.0,0.0,0.0,0.0,0.0,0.0,0.0,0.0,0.0,0.0,0.0,0.0,0.0,0.0,0.0,0.0,0.0,0.0,0.0,0.0,0.0,0.0,0.0,0.0,0.0,2.6829,0.0,0.0,0.0,0.0,0.0,0.0,0.0,0.0,0.0,0.0,0.0,0.0,0.0,0.0,0.0,0.0,0.0,0.0,0.0,0.0,0.0,0.0,0.0,0.0,0.0,0.0,0.0,0.0,0.0,0.0,0.0,0.0,0.0,0.0,0.0,0.0,0.0,0.0,0.0,0.0,0.0,1.6446,1.7088,1.7543,1.7583,1.7583,1.7599,1.764,1.764,1.7486,1.7136,1.7039,0.0,0.0,0.0,0.0,0.0,0.0,0.0,0.0,0.0,0.0,0.0,0.0,0.0,0.0,0.0,0.0,0.0,0.0,0.0,0.0,0.0,0.0,0.0,0.0,0.0,0.0,0.0,0.0,0.0,0.0,0.0,0.0,0.0,0.0,0.0,0.0,0.0,0.0,0.0,0.0,0.0,0.0,0.0,0.0,0.0,0.0,0.0,0.0,0.0,0.0,0.0,0.0,0.0,0.0,0.0,0.0,0.0,0.0,0.0,0.0,2.657,0.0,0.0,0.0,0.0,0.0,0.0,0.0,0.0,0.0,0.0,0.0,0.0,0.0,0.0,0.0,0.0,0.0,0.0,0.0,0.0,0.0,0.0,0.0,0.0,0.0,0.0,0.0,0.0,0.0,0.0,0.0,0.0,0.0,0.0,0.0,0.0,0.0,0.0,0.0,0.0,1.6803,1.7307,1.7672,1.7762,1.777,1.7811,1.7892,1.79,1.7819,1.7632,1.7461,0.0,0.0,0.0,0.0,0.0,0.0,0.0,0.0,0.0,0.0,0.0,0.0,0.0,0.0,0.0,0.0,0.0,0.0,0.0,0.0,0.0,0.0,0.0,0.0,0.0,0.0,0.0,0.0,0.0,0.0,0.0,0.0,0.0,0.0,0.0,0.0,0.0,0.0,0.0,0.0,0.0,0.0,0.0,0.0,0.0,0.0,0.0,0.0,0.0,0.0,0.0,0.0,0.0,0.0,2.7905,2.7919,2.7871,2.7533,2.7227,2.6928,2.7203,2.7825,0.0,0.0,0.0,0.0,0.0,0.0,0.0,0.0,0.0,0.0,0.0,0.0,0.0,0.0,0.0,0.0,0.0,0.0,0.0,0.0,0.0,0.0,0.0,0.0,0.0,1.7274,1.7218,0.0,0.0,0.0,0.0,0.0,0.0,0.0,0.0,0.0,0.0,0.0,0.0,1.7161,1.751,1.7802,1.7989,1.8014,1.8079,1.8257,1.8273,1.8273,1.8273,1.7989,1.7827,0.0,0.0,0.0,0.0,0.0,0.0,0.0,0.0,0.0,0.0,0.0,0.0,0.0,0.0,0.0,0.0,0.0,0.0,0.0,0.0,0.0,0.0,0.0,0.0,0.0,0.0,0.0,0.0,0.0,0.0,0.0,0.0,2.5769,2.6427,0.0,0.0,0.0,0.0,0.0,0.0,0.0,0.0,0.0,0.0,0.0,0.0,0.0,0.0,2.7927,2.7941,2.8494,2.9283,2.8841,2.8689,2.8689,2.823,2.8224,2.8283,2.7835,0.0,2.7907,2.7378,0.0,0.0,0.0,0.0,0.0,0.0,0.0,0.0,0.0,0.0,0.0,0.0,0.0,0.0,0.0,0.0,0.0,0.0,0.0,0.0,0.0,0.0,1.7754,1.7802,1.7924,1.8022,0.0,1.7234,1.6568,1.6519,1.6511,0.0,0.0,0.0,0.0,0.0,0.0,0.0,1.7543,1.7884,1.8176,1.8363,1.8379,1.8452,1.8639,1.8655,1.8655,1.8655,1.8606,1.8582,1.8582,1.8298,0.0,0.0,0.0,0.0,0.0,0.0,0.0,0.0,0.0,0.0,0.0,0.0,0.0,0.0,0.0,0.0,0.0,0.0,0.0,0.0,0.0,0.0,0.0,0.0,0.0,0.0,0.0,0.0,0.0,2.5915,2.6588,2.7232,2.6998,2.6793,0.0,0.0,0.0,0.0,0.0,0.0,0.0,0.0,0.0,2.8103,2.8132,2.8259,2.8879,2.8893,2.9089,2.9481,2.9157,2.9084,2.9084,2.8735,2.8724,2.8831,2.8564,2.8377,2.8413,2.8063,2.8009,2.8244,0.0,0.0,0.0,0.0,0.0,2.6921,2.7175,2.7655,0.0,0.0,0.0,0.0,0.0,0.0,0.0,0.0,0.0,0.0,0.0,0.0,0.0,1.8014,1.8119,1.8176,1.8176,1.7892,1.7543,0.0,1.7177,1.7096,1.6844,0.0,0.0,0.0,0.0,1.7932,1.8217,1.8387,1.8517,1.8598,1.8606,1.8639,1.872,1.8728,1.8728,1.8728,1.8728,1.8728,1.8728,1.8663,1.8533,0.0,0.0,0.0,0.0,0.0,0.0,0.0,0.0,0.0,0.0,0.0,0.0,0.0,0.0,0.0,0.0,0.0,0.0,0.0,0.0,0.0,0.0,0.0,0.0,0.0,0.0,0.0,0.0,2.6544,2.7378,2.8095,2.792,2.7759,0.0,0.0,0.0,0.0,0.0,0.0,2.8147,2.8009,2.8132,2.8754,2.8783,2.8837,2.927,2.927,2.9312,2.9395,2.9289,2.9227,2.9227,2.9111,2.9085,2.9152,2.9152,2.9192,2.9219,2.8617,2.8417,2.847,2.8323,2.8043,2.7722,2.7722,2.7722,2.7736,2.7896,2.823,2.8591,2.8063,0.0,2.7509,2.5282,0.0,0.0,0.0,0.0,1.7831,1.7575,1.7746,1.7916,1.8184,1.8282,1.8314,1.8314,1.842,1.8387,0.0,1.7884,1.7851,1.7632,0.0,0.0,0.0,0.0,1.8412,1.8688,1.8728,1.8744,1.8785,1.8793,1.8809,1.8858,1.8858,1.8858,1.8858,1.8858,1.8858,1.8858,1.8988,1.8931,1.8663,0.0,0.0,0.0,0.0,0.0,0.0,0.0,0.0,0.0,0.0,0.0,0.0,0.0,0.0,0.0,0.0,0.0,0.0,0.0,0.0,0.0,0.0,0.0,0.0,0.0,0.0,0.0,0.0,0.0,2.8725,2.9354,0.0,0.0,0.0,0.0,2.7949,2.7467,2.7731,2.8633,2.8213,2.8311,2.8728,2.8755,2.8751,2.8577,2.8577,2.8724,2.8991,2.9005,2.9018,2.9018,2.9032,2.9192,2.9459,2.9459,2.9619,2.982,2.9232,2.9165,2.9366,2.8804,2.8738,2.8951,2.8951,2.8951,2.9032,2.9593,2.9806,2.9462,2.7628,2.7075,2.6618,2.4141,2.4527,0.0,0.0,1.9804,1.9581,1.7994,1.8022,1.842,1.8436,1.8574,1.8696,1.8696,1.8704,1.8655,0.0,1.855,1.8558,1.82,0.0,1.855,1.8225,1.8476,1.8704,1.872,1.8728,1.8785,1.8956,1.8972,1.9037,1.9216,1.9232,1.9232,1.9232,1.9232,1.9232,1.9232,1.924,1.924,1.9216,1.8891,0.0,0.0,0.0,0.0,0.0,0.0,0.0,0.0,0.0,0.0,0.0,0.0,0.0,0.0,0.0,0.0,0.0,0.0,0.0,0.0,0.0,0.0,0.0,0.0,0.0,0.0,0.0,0.0,2.8798,2.909,0.0,0.0,2.9208,2.9193,2.9178,2.9399,2.963,2.9649,2.9499,2.9257,2.9097,2.9111,2.9091,2.8885,2.8885,2.8938,2.9045,2.9232,2.9325,2.9325,2.9513,2.9659,2.9766,2.9766,2.982,2.99,2.9686,2.9659,2.974,2.9526,2.9513,2.9606,2.9606,2.9606,2.9633,2.9847,2.9913,2.9734,2.9182,2.8076,2.6749,2.5838,2.5354,2.4729,2.3283,2.1994,2.1114,2.0376,1.9415,1.8631,1.8631,1.868,1.8728,1.8728,1.8809,1.8874,1.8809,1.8753,1.872,1.8696,1.8801,1.8883,1.8874,1.8988,1.9069,1.9069,1.9069,1.9094,1.9159,1.9159,1.9183,1.9256,1.9256,1.9256,1.9256,1.9256,1.9256,1.9256,1.9256,1.9256,1.9256,1.9134,1.8842,0.0,0.0,0.0,0.0,0.0,0.0,0.0,0.0,0.0,0.0,0.0,0.0,0.0,0.0,0.0,0.0,0.0,0.0,0.0,0.0,0.0,0.0,0.0,0.0,0.0,0.0,2.8622,2.9164,2.9412,2.9632,2.9837,2.9866,2.9954,3.001,3.0354,3.0322,3.0,2.9761,2.9575,2.9254,2.9267,2.9231,2.9192,2.9192,2.9232,2.9339,2.9539,2.9633,2.9633,2.9833,2.9913,2.9913,2.9913,2.9913,2.9913,2.9913,2.9913,2.9913,2.9913,2.9913,2.9913,2.9913,2.9913,2.9927,3.0034,3.006,3.0087,3.0181,2.9287,2.7975,2.6683,2.551,2.4341,2.2853,2.1641,2.0801,2.0801,1.9714,1.8809,1.8809,1.8858,1.8907,1.8907,1.8996,1.9077,1.9077,1.898,1.8899,1.8899,1.8899,1.8899,1.8891,1.8891,1.8891,1.8891,1.9004,1.9077,1.9077,1.9183,1.9256,1.9256,1.9151,1.9134,1.9248,1.9142,1.9134,1.9256,1.9142,1.9077,1.9077,1.8956,1.872,1.8363,0.0,0.0,0.0,0.0,0.0,0.0,0.0,0.0,0.0,0.0,0.0,0.0,0.0,0.0,0.0,0.0,0.0,0.0,0.0,0.0,0.0,0.0,0.0,2.8432,2.9003,2.9515,2.9851,3.0437,3.0832,3.0832,3.0846,3.068,3.0208,3.0128,2.9787,2.9289,2.9058,2.9045,2.9058,2.9058,2.9192,2.9499,2.9499,2.9633,2.9913,2.9913,2.9913,2.9913,2.9913,2.9927,2.9927,2.9927,2.994,2.994,2.994,2.994,2.994,2.994,2.9927,2.9927,2.994,2.994,2.998,3.0274,3.0381,3.0421,3.0702,3.0795,3.0043,2.6256,2.4942,2.401,2.0054,1.8929,1.8736,1.8736,1.8866,1.8988,1.8988,1.9126,1.9256,1.9256,1.9256,1.9256,1.9256,1.9256,1.9151,1.8801,1.8744,1.8623,1.8265,1.8208,0.0,1.8208,1.8517,1.8736,1.8728,1.9045,1.9256,1.9248,1.8931,1.8891,1.924,1.8931,1.8899,1.9248,1.8923,1.8744,1.8744,1.8379,1.8371,1.8728,0.0,0.0,0.0,0.0,0.0,0.0,0.0,0.0,0.0,0.0,0.0,0.0,0.0,0.0,0.0,0.0,0.0,0.0,0.0,0.0,0.0,0.0,2.9369,2.9456,2.9617,2.9939,3.0495,3.0715,3.092,3.1154,3.1183,3.1271,3.1349,3.0938,3.0637,3.0107,2.9672,2.9487,2.9352,2.9366,2.9499,2.9793,2.9793,2.9833,2.9913,2.9913,2.9913,2.9913,2.9913,3.0034,3.0234,3.0234,3.0354,3.0555,3.0555,3.0555,3.0528,3.0327,3.0234,3.0261,3.0474,3.0555,3.0568,3.0648,3.0675,3.0688,3.0768,3.0795,3.0597,2.9474,2.8283,2.6909,2.5772,2.3607,2.143,2.143,2.0311,1.9183,1.9183,1.9224,1.9256,1.9256,1.9256,1.9256,1.9256,1.9256,1.9224,1.9126,1.911,1.9077,1.898,1.8964,0.0,1.8964,1.9053,1.9013,1.8753,1.9045,1.9151,1.8891,1.9021,1.9151,1.9256,1.9167,1.9159,1.9256,1.9167,1.911,1.911,1.8761,1.8623,0.0,0.0,0.0,0.0,0.0,0.0,0.0,0.0,0.0,0.0,0.0,0.0,0.0,0.0,0.0,0.0,0.0,0.0,0.0,0.0,0.0,0.0,2.9749,3.0364,3.0642,3.0554,3.0612,3.0978,3.1154,3.13,3.149,3.152,3.1422,3.1253,3.1238,3.0963,3.0427,3.0203,3.0002,3.0015,2.9837,2.9753,2.9913,2.9913,2.998,3.01,3.01,3.0167,3.0287,3.0287,3.0381,0.0,3.0541,3.0635,3.0795,3.0795,3.0795,0.0,0.0,0.0,0.0,0.0,3.0795,3.0808,3.0929,3.0969,3.0996,3.1116,3.1156,3.0782,2.9055,2.7831,2.6602,2.4875,2.2858,2.1005,2.1005,2.0235,1.9256,1.9256,1.9256,1.9256,1.9256,1.9256,1.9256,1.9256,1.9256,0.0,1.9256,1.9134,1.898,1.8826,1.8801,1.8801,1.8801,1.8939,1.8956,1.8744,1.9045,1.9175,1.8964,1.9004,0.0,0.0,0.0,1.9037,1.9037,1.9037,0.0,0.0,0.0,1.8574,1.8728,0.0,0.0,0.0,1.8363,1.82,0.0,0.0,0.0,0.0,0.0,0.0,0.0,0.0,0.0,0.0,0.0,0.0,0.0,0.0,0.0,0.0,3.032,3.0971,3.171,3.1578,3.1233,3.1204,3.1622,3.1812,3.1841,3.1856,3.1526,3.0676,3.1307,3.1289,3.0409,0.0,0.0,0.0,0.0,2.9967,2.9967,3.0007,3.0154,3.0408,3.0408,3.0541,3.0795,3.0795,3.0808,3.0849,3.0849,3.0862,3.0889,3.0889,3.0889,3.0889,3.0849,3.0862,3.0889,3.0889,3.0889,0.0,0.0,0.0,0.0,3.1583,3.1664,3.108,2.7395,2.5851,2.4688,2.1013,1.9651,1.9256,1.9256,1.9256,1.9256,1.9256,1.9256,1.9256,1.9256,1.9256,1.9256,1.9256,1.9256,1.9256,1.9256,1.8996,1.8671,1.8347,1.8298,1.8298,1.8298,1.8582,1.8769,1.8728,0.0,0.0,1.9199,1.8948,1.8923,1.924,1.8964,1.8785,1.8785,1.8785,1.8631,1.8306,1.8298,1.846,1.8785,1.8785,1.8948,1.9248,1.8598,1.8468,0.0,0.0,0.0,0.0,0.0,0.0,0.0,0.0,0.0,0.0,0.0,0.0,0.0,0.0,0.0,3.0525,3.0803,3.1152,3.1267,3.1455,3.1483,3.1224,3.1253,3.1383,3.1656,3.2019,3.2295,3.2383,3.1734,3.1231,3.1054,3.041,0.0,3.0093,3.0154,3.0274,3.0274,3.0501,3.0648,3.0715,0.0,0.0,3.0795,3.0795,3.0915,3.1142,3.1142,3.1276,3.1503,3.1503,3.1503,3.1476,3.1236,3.1289,3.1503,3.1503,3.1503,3.1503,3.157,3.1583,3.1597,3.165,3.1664,3.1474,3.07,2.8176,0.0,2.4494,2.1977,1.9256,1.9256,1.9256,1.9256,1.9256,1.9256,1.9256,1.9256,1.9256,1.9256,1.9256,1.9256,1.9256,1.9256,1.9199,1.9134,1.9061,1.9045,1.9045,1.9045,1.911,1.9045,1.8753,1.9045,1.9142,1.885,1.9029,1.9183,1.9256,1.9199,1.9159,1.9159,1.9159,1.9126,1.9053,1.9045,1.9086,1.9159,1.9159,1.9191,1.9256,1.9118,1.9086,0.0,0.0,0.0,0.0,0.0,0.0,0.0,0.0,0.0,0.0,0.0,2.9866,0.0,0.0,3.0898,3.073,3.141,3.1932,3.1932,3.1711,3.1345,3.1396,3.167,3.1829,3.1811,3.2002,3.2059,3.1685,3.1507,3.1207,3.1194,3.0848,3.0556,3.0704,3.0684,3.0581,3.0581,3.0715,3.0862,3.1009,3.1009,3.1089,3.1236,3.1236,3.1316,3.145,3.145,3.153,3.1664,3.1664,3.1664,3.165,3.1503,3.1543,3.1664,3.1664,3.1664,3.1664,3.1664,3.1664,3.1664,3.1664,3.1664,3.1284,2.9147,2.7203,2.5076,2.2945,2.0817,1.9256,1.9256,1.9256,1.9256,1.9256,1.9256,1.9256,1.9256,1.9329,1.9386,1.9386,1.9459,1.9524,1.9524,1.9524,1.9467,1.9289,1.9256,1.9256,1.9256,1.9256,1.9191,1.9013,1.9232,1.9313,1.9134,1.937,1.9524,1.9524,1.9524,1.9524,1.9524,1.9524,1.9524,1.9524,1.9524,1.9524,1.9524,1.9524,1.9524,1.9524,1.9524,1.9427,0.0,0.0,0.0,0.0,0.0,0.0,0.0,0.0,3.0203,3.0393,3.0422,3.0437,2.9943,3.073,3.1251,3.0909,3.1728,3.2409,3.2409,3.1685,3.1409,3.1359,3.1897,3.2232,3.1877,3.1934,3.1606,3.107,3.1111,3.125,3.1149,3.1163,3.109,3.1335,3.1033,3.0875,3.0875,3.0929,3.1076,3.1316,3.1316,3.1436,3.1664,3.1664,3.1664,3.1664,3.1664,3.1664,3.1664,3.1664,3.1664,3.1664,3.1664,3.1664,3.1664,3.1664,3.1664,3.1664,3.1664,3.1664,3.1664,3.1664,3.1664,3.108,2.7792,2.6045,2.4882,2.1397,1.984,1.9256,1.9256,1.9289,1.9305,1.9305,1.9337,1.9362,1.9362,1.9467,1.9565,1.9565,1.9687,1.9792,1.9792,1.9792,1.9695,1.9402,1.9362,1.9362,1.9362,1.9362,1.9362,1.9362,1.9484,1.9565,1.9565,1.9703,1.9792,1.9792,1.9792,1.9792,1.9792,1.9792,1.9792,1.9792,1.9792,1.9792,1.9792,1.9792,1.9792,1.9792,1.9792,1.9638,2.8066,2.8359,2.8871,2.8973,2.9383,2.9998,0.0,0.0,3.1402,3.2266,3.2441,3.2441,3.2441,3.2178,3.1897,3.1897,3.1273,3.0794,3.0794,3.1151,3.1137,3.0753,3.0781,3.0973,3.1315,3.1567,3.1915,3.229,3.1819,3.1437,3.1464,3.111,3.0939,3.0795,3.1036,3.1183,3.1183,3.1436,3.1583,3.1623,3.1623,3.1637,3.1664,3.1664,3.1664,3.1664,3.1664,3.1664,3.1664,3.1664,3.1664,3.1664,3.1664,3.1664,3.1664,3.1664,3.1664,3.1664,3.1664,3.1664,3.1664,3.1664,3.1664,3.1664,3.1093,2.8368,2.5464,2.4882,2.2172,1.9256,1.9256,1.937,1.9484,1.9484,1.9613,1.9727,1.9727,1.9743,1.976,1.976,1.9776,1.9792,1.9792,1.9792,1.9776,1.9735,1.9727,1.9727,1.9727,1.9727,1.9727,1.9727,1.9743,1.976,1.976,1.9776,1.9792,1.9792,1.9792,1.9792,1.9792,1.9792,1.9792,1.9792,1.9792,1.9792,1.9792,1.9792,1.9792,1.9792,1.9792,1.9768,2.9266,2.9398,0.0,0.0,3.1066,3.1198,3.1973,3.2163,3.228,3.269,3.2778,3.2778,3.2409,3.2409,3.2409,0.0,3.1877,3.1756,3.1761,3.1595,3.1665,3.1666,3.1149,3.0899,3.1069,3.1512,3.151,3.1524,3.1267,3.1232,3.1407,3.1222,3.1129,3.1303,3.1423,3.149,3.149,3.161,3.1664,3.1664,3.1664,3.1664,3.1664,3.1664,3.1664,3.1664,3.1664,3.1664,3.1664,3.1664,3.1664,3.1664,3.1664,3.1664,3.1664,3.1664,3.1664,3.1664,3.1664,3.1664,3.1664,3.1664,3.1664,3.1474,3.0306,2.8861,2.7227,2.6059,2.3612,2.155,2.155,2.0619,1.967,1.967,1.9735,1.9792,1.9792,1.9873,1.9946,1.9938,2.0028,2.0101,2.0101,2.0101,2.0101,2.0101,1.9922,1.9792,1.9792,1.9792,1.9833,1.9938,1.9955,1.9995,2.0093,2.0101,2.0101,2.0101,2.0101,2.0101,2.0101,2.0101,2.0101,2.0101,2.0101,2.0101,2.0101,2.0101,2.0101,2.0101,2.0206,2.0263,2.9968,3.0173,0.0,3.2105,3.228,3.2193,3.2661,3.2778,3.2778,3.2778,3.2778,3.2763,3.2232,3.2409,3.2438,3.2169,3.2361,3.2477,3.2432,3.2098,3.2001,3.2042,3.1416,3.1191,3.1341,3.1335,3.1272,3.1087,3.0982,3.1129,3.1343,3.1343,3.145,3.1664,3.1664,3.1664,3.1664,3.1664,3.1664,3.1664,3.1664,3.1664,3.1664,3.1664,3.1664,3.1664,3.1664,3.1664,3.1664,3.1664,3.1664,3.1664,3.1664,3.1664,3.1677,3.1757,3.1744,3.1664,3.1664,3.1664,3.1677,3.1757,3.1784,3.1606,3.0126,2.8922,2.7882,2.6507,2.4058,2.2195,2.2195,2.1027,1.9865,1.9865,1.9906,1.9938,1.9938,2.0044,2.015,2.019,2.0304,2.0409,2.0458,2.0466,2.0466,2.0466,2.0247,2.0044,1.9946,1.9979,2.0085,2.0263,2.0288,2.0336,2.0458,2.0466,2.0466,2.0466,2.0466,2.0466,2.0466,2.0466,2.0466,2.0466,2.0466,2.0466,2.0466,2.0466,2.0466,2.0466,2.0604,2.0669,2.969,0.0,3.0964,3.1651,3.228,3.2749,3.2763,3.2778,3.2778,3.2778,3.2778,3.2778,3.2778,3.2409,3.2155,3.247,3.2138,3.1875,3.2197,3.2239,3.2056,3.1519,3.1765,3.1943,0.0,3.1583,3.1396,3.1756,3.1665,3.165,3.165,3.165,3.1664,3.1664,3.1664,3.1664,3.1664,3.1664,3.1664,3.1664,3.1664,3.1664,3.1664,3.1664,3.1664,3.1664,3.1664,3.1664,3.1664,3.1664,3.1664,3.1664,3.1664,3.1664,3.1704,3.1984,3.1904,3.1664,3.1664,3.1664,3.1717,3.1998,3.2091,3.2144,3.2425,2.9541,2.6175,2.6175,2.3184,1.9987,1.9987,1.9914,2.0044,2.006,2.0182,2.0304,2.0304,2.0304,2.0361,2.0547,2.0588,2.0645,2.0807,2.084,2.084,2.084,2.0832,2.0694,2.0344,2.0458,2.0637,2.0807,2.0832,2.0832,2.084,2.084,2.084,2.084,2.084,2.084,2.084,2.084,2.084,2.084,2.084,2.084,2.084,2.084,2.084,2.084,2.084,2.0848,3.0861,0.0,3.1622,3.228,3.2602,3.2778,3.2778,3.2778,3.2778,3.2778,3.2939,3.3085,3.3085,3.3081,3.3075,3.3372,3.3205,3.3124,3.3087,3.313,3.3016,3.2654,3.239,0.0,0.0,0.0,0.0,3.2257,3.2164,3.2043,3.1664,3.1664,3.1664,3.1664,3.1664,3.1664,3.1664,3.1664,3.1664,3.1664,3.1664,3.1664,3.1664,3.1664,3.1664,3.1664,3.1664,3.1664,3.1677,3.1877,3.1957,3.1971,3.2171,3.2251,3.2265,3.2358,3.2332,3.2251,3.2251,3.2251,3.2265,3.2372,3.2398,3.2412,3.2519,3.0675,2.8426,2.8426,2.5509,2.2382,2.2382,2.1208,2.0231,2.0231,2.0369,2.0507,2.0507,2.0596,2.0694,2.0759,2.0767,2.0783,2.084,2.0856,2.0856,2.0856,2.0856,2.0807,2.0686,2.0726,2.0791,2.0848,2.0856,2.0856,2.0856,2.0856,2.0856,2.0856,2.0856,2.0856,2.0856,2.0856,2.0856,2.0856,2.0856,2.0856,2.0856,2.0856,2.0856,2.0856,2.0978,2.1035,0.0,3.1798,3.1959,3.2602,3.2778,3.2778,3.2778,3.2778,3.2807,3.291,3.31,3.3276,3.3393,3.3583,3.3773,3.389,3.3905,3.3838,3.3973,3.383,3.3528,3.3525,3.2974,3.2786,0.0,0.0,0.0,3.2232,3.2232,3.2043,3.1664,3.1664,3.1664,3.1664,3.1664,3.1664,3.1664,3.1664,3.1664,3.1664,3.1664,3.1664,3.1664,3.1664,3.1664,3.1677,3.1784,3.1824,3.1851,3.2144,3.2265,3.2278,3.2478,3.2545,3.2559,3.2666,3.2706,3.2692,3.2585,3.2545,3.2559,3.2666,3.2706,3.2719,3.2826,3.1573,2.9699,2.8883,2.6155,2.3409,2.2581,2.1404,2.0418,2.0418,2.0556,2.0686,2.0686,2.0775,2.0872,2.0937,2.0954,2.097,2.1035,2.1043,2.1043,2.1043,2.1043,2.1019,2.0962,2.0954,2.0978,2.1035,2.1043,2.1043,2.1043,2.1043,2.1043,2.1043,2.1043,2.1043,2.1043,2.1043,2.1043,2.1043,2.1043,2.1043,2.1043,2.1043,2.1043,2.1043,2.1165,2.1222,3.1505,3.1841,3.2002,3.2617,3.2778,3.2778,3.2778,3.2763,3.2837,3.3129,3.3202,3.329,0.0,0.0,3.3832,3.4139,3.4227,3.4358,3.4666,3.4305,3.3916,0.0,0.0,0.0,0.0,0.0,0.0,3.1853,0.0,3.1664,3.1664,3.1664,3.1664,3.1664,3.1664,3.1664,3.1664,3.1664,3.1664,3.1664,3.1664,3.1677,3.169,3.169,3.1704,3.173,3.2011,3.2131,3.2144,3.2452,3.2572,3.2572,3.2585,3.2585,3.2625,3.2906,3.3,3.2959,3.2692,3.2585,3.2639,3.2906,3.3,3.3053,3.3334,3.1982,2.9748,2.7691,2.545,2.3202,2.0945,2.0458,2.0596,2.0604,2.0742,2.0872,2.0872,2.0872,2.0929,2.1108,2.114,2.1189,2.136,2.1384,2.1384,2.1384,2.1384,2.1319,2.1165,2.114,2.1205,2.136,2.1384,2.1384,2.1384,2.1384,2.1384,2.1384,2.1384,2.1384,2.1384,2.1384,2.1384,2.1384,2.1384,2.1384,2.1384,2.1384,2.1384,2.1384,2.1384,2.1384,3.2295,3.2529,3.2559,3.2734,3.2778,3.2778,3.2778,3.2588,3.2427,3.2515,3.2529,3.2559,0.0,0.0,0.0,3.3846,3.4256,0.0,3.4695,3.4508,0.0,3.354,0.0,3.354,3.2786,3.3163,0.0,0.0,3.28,3.2421,3.1664,3.1664,3.1664,3.1664,3.1664,3.1664,3.1664,3.1664,3.1664,3.1664,3.1664,3.1784,3.1984,3.1984,3.2118,3.2332,3.2398,3.2425,3.2452,3.2746,3.2866,3.2893,3.3106,3.3187,3.32,3.328,3.3293,3.3293,3.3213,3.3187,3.32,3.328,3.3293,3.332,3.3387,3.1982,3.0153,2.9545,2.6681,2.3437,2.317,2.1802,2.0629,2.0759,2.0929,2.1059,2.1059,2.1157,2.1254,2.1319,2.1319,2.1343,2.1384,2.1384,2.1384,2.1384,2.1384,2.136,2.1319,2.1319,2.1343,2.1384,2.1384,2.1384,2.1384,2.1384,2.1384,2.1384,2.1384,2.1384,2.1384,2.1384,2.1384,2.1384,2.1384,2.1384,2.1384,2.1384,2.1384,2.1384,2.1384,2.1384,3.2588,3.2778,3.2778,3.2778,3.2778,3.2734,3.2588,3.2412,3.228,3.228,3.228,3.2412,3.2837,3.3363,0.0,0.0,0.0,0.0,3.471,3.471,3.4508,0.0,3.4118,0.0,3.3365,3.3742,3.3742,0.0,3.3351,3.2988,3.2421,3.2232,3.2043,3.2043,3.1853,3.1664,3.1664,3.1664,3.173,3.1864,3.1864,3.2011,3.2291,3.2291,3.2385,3.2559,0.0,3.2732,3.2759,3.3053,3.3173,3.3187,3.3347,3.3414,3.3414,3.3414,3.3414,3.3414,3.3414,3.3414,3.3414,3.3414,3.3414,3.3414,3.3414,3.2598,3.1403,3.0705,2.8677,2.6264,2.4613,2.3281,2.2121,2.116,2.1108,2.1238,2.1238,2.1319,2.1384,2.1384,2.1384,2.1384,2.1384,2.1384,2.1384,2.1384,2.1384,2.1384,2.1384,2.1384,2.1384,2.1384,2.1384,2.1384,2.1384,2.1384,2.1384,2.1384,2.1384,2.1384,2.1384,2.1384,2.1384,2.1384,2.1384,2.1384,2.1384,2.1384,2.1384,2.1384,2.1384,2.1384,3.2617,3.2778,3.2778,3.2778,3.2778,3.269,3.2354,3.2251,3.2207,3.2163,3.212,3.2368,3.3305,3.348,3.3685,3.4344,0.0,3.4475,3.4563,3.4578,3.4607,3.4508,3.471,3.471,3.4508,3.471,3.4508,3.4103,3.3554,3.3365,3.3177,3.28,3.2597,3.2597,3.2043,3.1853,3.1853,3.1704,3.1851,3.2104,3.2144,3.2318,3.2599,3.2599,3.2625,3.2679,0.0,0.0,3.3053,3.3307,3.3414,3.3414,3.3414,3.3414,3.3414,3.3454,3.3467,3.348,3.3521,3.3534,3.3521,3.3494,3.3467,3.348,3.3521,3.3534,3.3171,3.1575,3.0805,2.9824,2.5882,2.4604,2.4121,2.1799,2.1278,2.1384,2.1384,2.1384,2.1384,2.1384,2.1384,2.1384,2.1384,2.1384,2.1384,2.1384,2.1384,2.1384,2.1384,2.1384,2.1384,2.1384,2.1384,2.1384,2.1384,2.1384,2.1384,2.1384,2.1384,2.1384,2.1384,2.1384,2.1384,2.1384,2.1384,2.1384,2.1384,2.1384,2.1384,2.1384,2.1384,2.1384,3.2734,3.2778,3.2778,3.2778,3.2778,3.269,3.2354,3.2076,3.1812,3.1534,3.1271,3.13,3.2002,3.2134,3.2354,3.2997,0.0,0.0,0.0,0.0,3.3911,0.0,3.4508,3.4508,3.4103,3.4508,0.0,0.0,0.0,0.0,3.3177,3.3163,3.2974,3.2974,3.2611,3.2232,3.2232,3.2095,3.2051,3.2104,3.2345,3.2625,3.2906,3.2906,3.3026,3.3267,0.0,0.0,3.3334,3.3387,3.3414,3.3414,3.3414,3.3414,3.344,3.3708,3.3801,3.3841,3.4082,3.4162,3.4122,3.3881,3.3801,3.3855,3.4082,3.4162,3.4175,3.3805,3.235,3.0302,2.7822,2.6002,2.4158,2.1958,2.136,2.1384,2.1384,2.1384,2.1384,2.1384,2.1384,2.1384,2.1384,2.1384,2.1384,2.1384,2.1384,2.1384,2.1384,2.1384,2.1384,2.1384,2.1384,2.1384,2.1384,2.1384,2.1384,2.1384,2.1384,2.1384,2.1384,2.1384,2.1384,2.1384,2.1384,2.1384,2.1384,2.1384,2.1384,2.1384,2.1384,2.1384,3.2354,3.2515,3.2778,3.2778,3.2778,3.2646,3.2149,3.1915,3.1651,3.1154,3.0934,3.1022,3.1681,3.1798,0.0,3.2661,0.0,0.0,0.0,3.4022,0.0,3.4276,3.4508,3.4508,3.4305,3.4508,0.0,0.0,0.0,0.0,0.0,3.3742,3.361,3.3401,3.3035,3.2722,3.2873,3.2831,3.2786,3.2949,3.3489,3.3707,3.3995,3.3796,3.3679,3.3814,3.3614,0.0,3.3414,3.3414,3.3414,3.3427,3.3587,3.3654,3.3694,3.4002,3.4108,3.4135,3.4269,3.4322,3.4322,3.4336,3.4242,3.4135,3.4282,3.4322,3.4143,3.3019,3.2003,3.0364,2.7214,2.5566,2.4081,2.2025,2.1384,2.1384,2.1384,2.1384,2.1384,2.1384,2.1384,2.1384,2.1384,2.1384,2.1384,2.1384,2.1384,2.1384,2.1384,2.1384,2.1384,2.1384,2.1384,2.1384,2.1384,2.1384,2.1384,2.1384,2.1384,2.1384,2.1384,2.1384,2.1384,2.1384,2.1384,2.1384,2.1384,2.1384,2.1384,2.1384,2.1384,2.1384,3.2105,3.2383,3.2778,3.2778,3.2778,3.2602,3.1944,3.1798,3.1607,3.0964,3.0817,3.1022,3.1681,3.1681,3.1798,0.0,3.2866,3.3202,3.348,3.3963,3.4388,0.0,3.471,0.0,3.471,3.471,0.0,0.0,0.0,0.0,0.0,3.4407,3.4159,3.4106,3.3545,3.3464,3.3699,3.3574,3.3725,3.3959,3.4422,3.4773,3.4812,3.4413,3.4214,3.4014,3.3614,0.0,0.0,3.3414,3.3454,3.3534,3.3788,3.3921,3.4015,3.4309,3.4416,3.4429,3.4482,3.4509,3.4549,3.4776,3.4656,3.4429,3.4482,3.4509,3.4135,3.2659,3.1855,3.0411,2.6529,2.5288,2.4201,2.2042,2.1384,2.1384,2.1384,2.1384,2.1384,2.1384,2.1384,2.1384,2.1384,2.1384,2.1384,2.1384,2.1384,2.1384,2.1384,2.1384,2.1384,2.1384,2.1384,2.1384,2.1384,2.1384,2.1384,2.1384,2.1384,2.1384,2.1384,2.1384,2.1384,2.1384,2.1384,2.1384,2.1384,2.1384,2.1384,2.1384,2.1384,2.1384,3.2529,3.2719,3.2778,3.2778,3.2778,3.2602,3.1944,3.1798,3.1607,3.0964,3.0817,3.1022,3.1681,3.1315,3.1124,3.1783,3.1446,3.1505,3.269,3.291,3.3393,3.4563,0.0,0.0,3.471,0.0,0.0,0.0,0.0,0.0,0.0,3.5119,3.5266,3.5588,3.5025,3.4639,3.4667,3.4562,3.4521,3.4563,3.4829,3.4784,3.4214,3.4214,3.4014,3.3414,0.0,0.0,0.0,3.3414,3.3587,3.3841,3.3881,3.4055,3.4322,3.4616,3.4723,3.4763,3.503,3.511,3.5124,3.5151,3.4963,3.4776,3.503,3.511,3.5124,3.4926,3.321,3.1071,2.8726,2.6363,2.4201,2.2042,2.1384,2.1384,2.1384,2.1384,2.1384,2.1384,2.1384,2.1384,2.1384,2.1384,2.1384,2.1384,2.1384,2.1384,2.1384,2.1384,2.1384,2.1384,2.1384,2.1384,2.1384,2.1384,2.1384,2.1384,2.1384,2.1384,2.1384,2.1384,2.1384,2.1384,2.1384,2.1384,2.1384,2.1384,2.1384,2.1384,2.1384,2.1384,3.1637,3.2178,3.2778,3.2778,3.2778,3.2602,3.1944,3.1798,3.1607,3.0964,3.0817,3.0905,3.1168,3.0993,3.0905,3.1168,3.1329,3.1724,3.2646,3.31,3.3685,3.4592,3.471,0.0,0.0,0.0,0.0,0.0,0.0,0.0,0.0,0.0,3.5602,3.5924,3.5341,3.5233,3.5433,3.5365,3.5224,3.5422,3.5748,3.5805,3.5607,3.5408,3.5011,3.4812,0.0,0.0,0.0,3.3614,3.3601,3.3908,3.4082,3.4322,3.4629,3.4923,3.5017,3.5044,3.5151,3.5191,3.5191,3.5191,3.5124,3.5044,3.5164,3.5191,3.4544,3.1747,3.0453,2.8726,2.5062,2.3538,2.2472,2.1595,2.1384,2.1384,2.1384,2.1384,2.1384,2.1384,2.1384,2.1384,2.1384,2.1384,2.1384,2.1384,2.1384,2.1384,2.1384,2.1384,2.1384,2.1384,2.1384,2.1384,2.1384,2.1384,2.1384,2.1384,2.1384,2.1384,2.1384,2.1384,2.1384,2.1384,2.1384,2.1384,2.1384,2.1384,2.1384,2.1384,2.1384,2.1384,3.1139,3.1783,3.2529,3.2719,3.2632,3.2339,3.1783,3.1578,3.1359,3.0803,3.0759,3.0817,3.0817,3.0817,3.0817,3.0817,3.1212,3.1812,3.2646,3.3158,3.3685,0.0,0.0,0.0,0.0,0.0,0.0,0.0,0.0,0.0,0.0,0.0,3.6027,3.6261,3.5869,3.5773,3.6004,3.6004,3.6004,3.6004,3.64,3.6597,3.64,3.6004,3.5805,3.5607,0.0,0.0,0.0,3.3721,3.3734,3.4042,3.4336,3.4629,3.491,3.5124,3.5191,3.5191,3.5191,3.5191,3.5191,3.5191,3.5191,3.5191,3.5191,3.5191,3.4544,3.1308,2.9382,2.7218,2.269,2.1384,2.1384,2.1384,2.1384,2.1384,2.1384,2.1384,2.1384,2.1384,2.1384,2.1384,2.1384,2.1384,2.1384,2.1384,2.1384,2.1384,2.1384,2.1384,2.1384,2.1384,2.1384,2.1384,2.1384,2.1384,2.1384,2.1384,2.1384,2.1384,2.1384,2.1384,2.1384,2.1384,2.1384,2.1384,2.1384,2.1384,2.1384,2.1384,2.1384,2.1384,3.1432,3.1798,3.1959,3.2602,3.228,3.1724,3.1388,3.1066,3.0744,3.0422,3.0612,3.0817,3.0817,3.0817,3.0817,3.0817,3.0832,3.1285,3.2588,3.2778,0.0,0.0,0.0,0.0,0.0,0.0,0.0,0.0,0.0,0.0,0.0,0.0,3.6597,3.6597,3.6597,3.6597,3.6597,3.6597,3.6597,3.6597,3.6597,3.64,3.5805,3.5805,3.5607,0.0,0.0,0.0,0.0,3.395,3.4055,3.4349,3.4643,3.4937,3.5191,3.5191,3.5191,3.5191,3.5191,3.5191,3.5191,3.5191,3.5191,3.5191,3.5191,3.5191,3.5191,3.5191,3.1747,2.7218,2.269,2.1384,2.1384,2.1384,2.1384,2.1384,2.1384,2.1384,2.1384,2.1384,2.1384,2.1384,2.1384,2.1384,2.1384,2.1384,2.1384,2.1384,2.1384,2.1384,2.1384,2.1384,2.1384,2.1384,2.1384,2.1384,2.1384,2.1384,2.1384,2.1384,2.1384,2.1384,2.1384,2.1384,2.1384,2.1384,2.1384,2.1384,2.1384,2.1384,2.1384,2.1384,3.0364,3.0803,3.1183,3.1388,3.1285,3.1051,3.0729,3.0568,3.0466,3.0364,3.0437,3.0568,3.0788,3.0817,3.0817,3.0817,3.0817,3.1285,3.2588,0.0,0.0,0.0,0.0,0.0,0.0,0.0,0.0,0.0,0.0,0.0,0.0,0.0,3.6597,3.6597,3.6597,3.6597,3.6597,3.6597,3.6597,3.6597,3.6597,3.6597,3.64,3.64,0.0,0.0,0.0,0.0,0.0,3.5146,3.506,3.5349,3.5665,3.5759,3.5823,3.5823,3.5401,3.5191,3.5191,3.5191,3.5191,3.5191,3.5191,3.5191,3.5191,3.5191,3.4768,3.3248,2.9371,2.5496,2.4201,2.2472,2.1384,2.1384,2.1384,2.1384,2.1384,2.1384,2.1384,2.1384,2.1384,2.1384,2.1384,2.1384,2.1384,2.1384,2.1384,2.1384,2.1384,2.1384,2.1384,2.1384,2.1384,2.1384,2.1384,2.1384,2.1384,2.1384,2.1384,2.1384,2.1384,2.1384,2.1384,2.1384,2.1384,2.1384,2.1384,2.1384,2.1384,2.1384,2.1384,2.1384,2.9793,3.0159,3.0525,3.0759,3.0642,3.0407,3.0217,3.0071,2.9983,2.9983,3.0086,3.0261,3.0583,3.0642,3.0773,3.1139,3.0993,3.1285,3.2588,0.0,0.0,0.0,0.0,0.0,0.0,0.0,0.0,0.0,0.0,0.0,0.0,0.0,3.6597,3.6597,3.6597,3.6597,3.6597,3.6597,3.6597,3.6597,3.6597,3.6597,3.6597,3.6597,0.0,0.0,0.0,0.0,0.0,3.5674,3.5753,3.5963,3.6204,3.6078,3.6033,3.5823,3.5401,3.5191,3.5191,3.5191,3.5191,3.5191,3.5191,3.5191,3.5191,3.5191,3.4768,3.2385,2.8941,2.593,2.5071,2.311,2.1384,2.1384,2.1384,2.1384,2.1384,2.1384,2.1384,2.1384,2.1384,2.1384,2.1384,2.1384,2.1384,2.1384,2.1384,2.1384,2.1384,2.1384,2.1384,2.1384,2.1384,2.1384,2.1384,2.1384,2.1384,2.1384,2.1384,2.1384,2.1384,2.1384,2.1384,2.1384,2.1384,2.1384,2.1384,2.1384,2.1384,2.1384,2.1384,2.1384,0.0,2.9793,2.9939,3.0539,3.0232,2.9793,2.9793,2.9559,0.0,2.9369,2.9617,2.9925,3.0261,3.0364,3.07,3.1563,3.1242,3.1315,3.2529,0.0,0.0,0.0,0.0,0.0,0.0,0.0,0.0,0.0,0.0,0.0,0.0,0.0,0.0,3.6597,3.6597,3.6597,3.6597,3.6597,3.6597,3.6597,3.6597,3.6597,3.6597,3.6597,0.0,0.0,0.0,0.0,0.0,3.6074,3.5935,3.5991,3.6204,3.6243,3.6033,3.5612,3.5401,3.5401,3.5401,3.5191,3.5191,3.5204,3.5191,3.5191,3.5191,3.5191,3.4768,3.2598,3.0239,2.7865,2.5713,2.3337,2.1384,2.1384,2.1384,2.1384,2.1384,2.1384,2.1384,2.1384,2.1384,2.1384,2.1384,2.1384,2.1384,2.1384,2.1384,2.1384,2.1384,2.1384,2.1384,2.1384,2.1384,2.1384,2.1384,2.1384,2.1384,2.1384,2.1384,2.1384,2.1384,2.1384,2.1384,2.1384,2.1384,2.1384,2.1384,2.1384,2.1384,2.1384,2.1384,2.1384,0.0,0.0,2.9149,2.931,2.9222,2.912,0.0,2.9061,2.9076,2.9325,0.0,2.9588,2.991,3.0583,3.0993,3.0729,3.1183,3.1681,3.1988,0.0,0.0,0.0,0.0,0.0,0.0,0.0,0.0,0.0,0.0,0.0,0.0,0.0,0.0,3.6597,3.6597,3.6597,3.6597,3.6597,3.6597,3.6597,3.6597,3.6597,3.6597,3.6597,0.0,0.0,0.0,0.0,3.6458,3.6896,3.7171,3.7229,3.7659,3.7709,3.7277,3.7068,3.6859,3.6439,3.6439,3.6243,3.5823,3.5401,3.5191,3.5191,3.5191,3.5191,3.5191,3.4544,3.1533,2.8091,2.7649,2.4409,2.1384,2.1384,2.1384,2.1384,2.1384,2.1384,2.1384,2.1384,2.1384,2.1384,2.1384,2.1384,2.1384,2.1384,2.1384,2.1384,2.1384,2.1384,2.1384,2.1384,2.1384,2.1384,2.1384,2.1384,2.1384,2.1384,2.1384,2.1384,2.1384,2.1384,2.1384,2.1384,2.1384,2.1384,2.1384,2.1384,2.1384,2.1384,2.1384,2.1384,0.0,2.8886,2.8886,2.8886,2.8886,2.8886,2.8886,2.8886,2.8944,2.912,0.0,2.9251,2.9573,3.0071,3.0598,3.1154,3.1432,0.0,0.0,0.0,0.0,0.0,0.0,0.0,0.0,0.0,0.0,0.0,0.0,0.0,0.0,0.0,0.0,0.0,3.6597,3.6597,3.6597,3.6597,3.6597,3.6597,3.6597,3.6597,3.6597,3.6597,0.0,0.0,0.0,0.0,3.6641,3.7153,3.7446,3.7622,3.7913,3.7774,3.7695,3.7486,3.7068,3.6859,3.6859,3.6453,3.5823,3.5401,3.5191,3.5191,3.5191,3.5191,3.5191,3.5191,3.196,2.8307,2.8307,2.4844,2.1384,2.1384,2.1384,2.1384,2.1384,2.1384,2.1384,2.1384,2.1384,2.1384,2.1384,2.1384,2.1384,2.1384,2.1384,2.1384,2.1384,2.1384,2.1384,2.1384,2.1384,2.1384,2.1384,2.1384,2.1384,2.1384,2.1384,2.1384,2.1384,2.1384,2.1384,2.1384,2.1384,2.1384,2.1384,2.1384,2.1384,2.1384,2.1384,2.1384,2.9049,2.9012,2.8915,2.9017,2.8959,2.8915,2.9017,2.8959,2.8886,2.8886,0.0,2.912,2.9398,2.9661,0.0,0.0,0.0,0.0,0.0,0.0,0.0,0.0,0.0,0.0,0.0,0.0,0.0,0.0,0.0,0.0,0.0,0.0,0.0,0.0,3.6597,3.6597,3.6597,3.6597,3.6597,3.6597,3.6597,3.6597,3.6597,3.6597,3.6597,0.0,0.0,0.0,3.6626,3.6963,3.7285,3.7607,3.7314,3.763,3.7695,3.7277,3.7068,3.7068,3.7068,3.6649,3.6033,3.5401,3.5401,3.5401,3.5191,3.5401,3.5401,3.5191,3.196,2.8307,2.8307,2.4844,2.1384,2.1384,2.1384,2.1384,2.1384,2.1384,2.1384,2.1384,2.1384,2.1384,2.1384,2.1384,2.1384,2.1384,2.1384,2.1384,2.1384,2.1384,2.1384,2.1384,2.1384,2.1384,2.1384,2.1384,2.1384,2.1384,2.1384,2.1384,2.1384,2.1384,2.1384,2.1384,2.1384,2.1384,2.1384,2.1384,2.1384,2.1384,2.1384,2.1384,2.9991,2.9746,2.9017,2.9573,2.9295,2.9032,2.9588,2.9281,2.8886,2.8886,0.0,0.0,0.0,0.0,0.0,0.0,0.0,0.0,0.0,0.0,0.0,0.0,0.0,0.0,0.0,0.0,0.0,0.0,0.0,0.0,0.0,0.0,0.0,0.0,0.0,3.6597,3.6597,3.6597,3.6597,3.6597,3.6597,3.6597,3.6597,3.6597,3.6597,0.0,0.0,3.6597,3.6626,3.6963,3.7285,3.7607,3.7929,3.8044,3.8335,3.8321,3.8321,3.8127,3.7695,3.7277,3.6649,3.6033,3.5823,3.5823,3.5401,3.5823,3.6439,3.5401,3.196,2.8307,2.8307,2.4844,2.1384,2.1384,2.1384,2.1384,2.1384,2.1384,2.1384,2.1384,2.1384,2.1384,2.1384,2.1384,2.1384,2.1384,2.1384,2.1384,2.1384,2.1384,2.1384,2.1384,2.1384,2.1384,2.1384,2.1384,2.1384,2.1384,2.1384,2.1384,2.1384,2.1384,2.1384,2.1384,2.1384,2.1384,2.1384,2.1384,2.1384,2.1384,2.1384,2.1384,3.1511,3.0467,2.9277,3.1234,3.0525,2.95,2.9793,2.9895,2.9734,2.9032,0.0,0.0,0.0,0.0,0.0,0.0,0.0,0.0,0.0,0.0,0.0,0.0,0.0,0.0,0.0,0.0,0.0,0.0,0.0,0.0,0.0,0.0,0.0,0.0,0.0,0.0,3.6597,3.6597,3.6597,3.6597,3.6597,3.6597,3.6597,3.6597,3.6597,3.6597,0.0,3.6597,3.6612,3.6773,3.7124,3.7592,3.7739,3.8104,3.8543,3.8543,3.8543,3.8335,3.7904,3.7486,3.7277,3.6649,3.6439,3.6439,3.6229,3.6439,3.6859,3.6229,3.3447,3.0228,2.8726,2.5713,2.29,2.1595,2.1384,2.1384,2.1384,2.1384,2.1384,2.1384,2.1384,2.1384,2.1384,2.1384,2.1384,2.1384,2.1384,2.1384,2.1384,2.1384,2.1384,2.1384,2.1384,2.1384,2.1384,2.1384,2.1384,2.1384,2.1384,2.1384,2.1384,2.1384,2.1384,2.1384,2.1384,2.1384,2.1384,2.1384,2.1384,2.1384,2.1384,2.1384,3.3032,3.1717,3.0287,3.2582,3.1503,2.9939,3.0246,3.0583,3.0539,2.9544,0.0,0.0,0.0,0.0,0.0,0.0,0.0,0.0,0.0,0.0,0.0,0.0,0.0,0.0,0.0,0.0,0.0,0.0,0.0,0.0,0.0,0.0,0.0,0.0,0.0,0.0,3.6597,3.6597,3.6597,3.6597,3.6597,3.6597,3.6597,3.6597,3.6597,3.6597,3.6597,3.6597,3.6597,3.6597,3.6948,3.7475,3.7548,3.7973,3.8543,3.8543,3.8543,3.8543,3.8112,3.7904,3.7695,3.7277,3.7068,3.7068,3.6859,3.7068,3.7277,3.6859,3.5151,3.2798,2.9359,2.6569,2.4201,2.2042,2.1384,2.1384,2.1384,2.1384,2.1384,2.1384,2.1384,2.1384,2.1384,2.1384,2.1384,2.1384,2.1384,2.1384,2.1384,2.1384,2.1384,2.1384,2.1384,2.1384,2.1384,2.1384,2.1384,2.1384,2.1384,2.1384,2.1384,2.1384,2.1384,2.1384,2.1384,2.1384,2.1384,2.1384,2.1384,2.1384,2.1384,2.1384,3.4613,3.3549,3.2316,3.2444,3.1167,3.0173,3.1388,3.1227,3.0788,3.07,3.1198,0.0,0.0,0.0,0.0,0.0,0.0,0.0,0.0,0.0,0.0,0.0,0.0,0.0,0.0,0.0,0.0,0.0,0.0,0.0,0.0,0.0,0.0,0.0,0.0,0.0,3.6597,3.6597,3.6597,3.6597,3.6597,3.6597,3.6597,3.6597,3.6597,3.6597,3.6597,3.6597,3.6597,3.6597,3.6817,3.7153,3.7461,3.7973,3.8543,3.8543,3.8543,3.8543,3.8543,3.8112,3.7695,3.7695,3.7695,3.7486,3.7068,3.7695,3.8112,3.6453,3.6229,3.5348,3.0407,2.6991,2.4201,2.2042,2.1384,2.1384,2.1384,2.1384,2.1384,2.1384,2.1384,2.1384,2.1384,2.1384,2.1384,2.1384,2.1384,2.1384,2.1384,2.1384,2.1384,2.1384,2.1384,2.1384,2.1384,2.1384,2.1384,2.1384,2.1384,2.1384,2.1384,2.1384,2.1384,2.1384,2.1384,2.1384,2.1384,2.1384,2.1384,2.1384,2.1384,2.1384,3.5991,3.4294,3.2662,3.5395,3.3177,3.0583,3.1081,3.1637,3.1812,3.0993,3.1344,0.0,0.0,0.0,0.0,0.0,0.0,0.0,0.0,0.0,0.0,0.0,0.0,0.0,0.0,0.0,0.0,0.0,0.0,0.0,0.0,0.0,0.0,0.0,0.0,0.0,0.0,3.6597,3.6597,3.6597,3.6597,3.6597,3.6597,3.6597,3.6597,3.6597,3.6597,3.6597,3.6597,3.6597,3.6802,3.7139,3.768,3.8148,3.8543,3.8543,3.8543,3.8543,3.8543,3.8335,3.8112,3.8112,3.8112,3.8112,3.7904,3.8112,3.8335,3.7709,3.7486,3.6412,3.1923,2.8941,2.6363,2.3983,2.2463,2.1384,2.1384,2.1384,2.1384,2.1384,2.1384,2.1384,2.1384,2.1384,2.1384,2.1384,2.1384,2.1384,2.1384,2.1384,2.1384,2.1384,2.1384,2.1384,2.1384,2.1384,2.1384,2.1384,2.1384,2.1384,2.1384,2.1384,2.1384,2.1384,2.1384,2.1384,2.1384,2.1384,2.1384,2.1384,2.1384,2.1384,3.7003,3.5664,3.434,3.6605,3.4538,3.1781,3.1292,3.1666,3.1959,3.1271,3.1651,3.2046,3.1827,0.0,0.0,0.0,0.0,0.0,0.0,0.0,0.0,0.0,0.0,0.0,0.0,0.0,0.0,0.0,0.0,0.0,0.0,0.0,0.0,0.0,0.0,0.0,0.0,3.6597,3.6597,3.6597,3.6597,3.6597,3.6597,3.6597,3.6597,3.6597,3.6597,3.6597,3.6597,3.6597,3.6861,3.7285,3.7739,3.8163,3.8543,3.8543,3.8543,3.8543,3.8543,3.8543,3.8543,3.8543,3.8543,3.8543,3.8543,3.8543,3.8529,3.8335,3.7904,3.7054,3.4082,3.1509,2.8941,2.5703,2.3765,2.2261,2.1612,2.1384,2.1384,2.1384,2.1384,2.1384,2.1384,2.1384,2.1384,2.1384,2.1384,2.1384,2.1384,2.1384,2.1384,2.1384,2.1384,2.1384,2.1384,2.1384,2.1384,2.1384,2.1384,2.1384,2.1384,2.1384,2.1384,2.1384,2.1384,2.1384,2.1384,2.1384,2.1384,2.1384,2.1384,2.1384,3.7539,3.797,3.8068,3.54,3.4571,3.397,3.2297,3.13,3.1007,3.1651,3.231,3.2573,3.1915,0.0,0.0,0.0,0.0,0.0,0.0,0.0,0.0,0.0,0.0,0.0,0.0,0.0,0.0,0.0,0.0,0.0,0.0,0.0,0.0,0.0,0.0,0.0,0.0,3.6597,3.6597,3.6597,3.6597,3.6597,3.6597,3.6597,3.6597,3.6597,3.6597,3.6597,3.6597,3.6597,3.6992,3.7578,3.7578,3.7973,3.8543,3.8543,3.8543,3.8543,3.8543,3.8543,3.8543,3.8543,3.8543,3.8543,3.8543,3.8543,3.8335,3.7904,3.7695,3.7486,3.7068,3.4729,3.1509,2.6981,2.5269,2.4201,2.1823,2.1384,2.1384,2.1384,2.1384,2.1384,2.1384,2.1384,2.1384,2.1384,2.1384,2.1384,2.1384,2.1384,2.1384,2.1384,2.1384,2.1384,2.1384,2.1384,2.1384,2.1384,2.1384,2.1384,2.1384,2.1384,2.1384,2.1384,2.1384,2.1384,2.1384,2.1384,2.1384,2.1384,2.1384,2.1384,3.8867,3.7921,0.0,0.0,0.0,0.0,0.0,3.2474,3.1432,0.0,3.2002,3.2573,3.1915,0.0,0.0,0.0,0.0,0.0,0.0,0.0,0.0,0.0,0.0,0.0,0.0,0.0,0.0,0.0,0.0,0.0,0.0,0.0,0.0,0.0,0.0,0.0,0.0,0.0,3.6597,3.6597,3.6597,3.6597,3.6597,3.6597,3.6597,3.6597,3.6597,3.6597,3.6597,3.6597,3.6992,3.7578,3.7578,3.7973,3.8543,3.8543,3.8543,3.8543,3.8543,3.8543,3.8543,3.8543,3.8543,3.8543,3.8543,3.8543,3.8543,3.8321,3.8321,3.8321,3.8112,3.7054,3.5348,3.1899,2.9754,2.7618,2.5042,2.44,2.3747,2.1823,2.1384,2.1384,2.1384,2.1384,2.1384,2.1384,2.1384,2.1384,2.1384,2.1384,2.1384,2.1384,2.1384,2.1384,2.1384,2.1384,2.1384,2.1384,2.1384,2.1384,2.1384,2.1384,2.1384,2.1384,2.1384,2.1384,2.1384,2.1384,2.1384,2.1384,2.1384,2.1384,3.918,0.0,0.0,0.0,0.0,0.0,0.0,0.0,0.0,0.0,0.0,0.0,0.0,0.0,0.0,0.0,0.0,0.0,0.0,0.0,0.0,0.0,0.0,0.0,0.0,0.0,0.0,0.0,0.0,0.0,0.0,0.0,0.0,0.0,0.0,0.0,0.0,3.6597,3.6597,3.6597,3.6597,3.6597,3.6597,3.6597,3.6597,3.6597,3.6597,3.6597,3.6597,3.6597,3.6992,3.7578,3.7578,3.7973,3.8543,3.8543,3.8543,3.8543,3.8543,3.8543,3.8543,3.8543,3.8543,3.8543,3.8543,3.8543,3.8543,3.8543,3.8543,3.8543,3.8543,3.8321,3.7263,3.4465,3.2536,3.0609,2.8038,2.6755,2.5693,2.3538,2.2472,2.1823,2.1384,2.1384,2.1384,2.1384,2.1384,2.1384,2.1384,2.1384,2.1384,2.1384,2.1384,2.1384,2.1384,2.1384,2.1384,2.1384,2.1384,2.1384,2.1384,2.1384,2.1384,2.1384,2.1384,2.1384,2.1384,2.1384,2.1384,2.1384,2.1384,2.1384,0.0,0.0,0.0,0.0,0.0,0.0,0.0,0.0,0.0,0.0,0.0,0.0,0.0,0.0,0.0,0.0,0.0,0.0,0.0,0.0,0.0,0.0,0.0,0.0,0.0,0.0,0.0,0.0,0.0,0.0,0.0,0.0,0.0,0.0,0.0,0.0,0.0,3.6597,3.6597,0.0,3.6597,3.6597,3.6597,3.6597,3.6597,3.6597,3.6597,3.6597,3.6597,3.6597,3.6992,3.7578,3.7578,3.7973,3.8543,3.8543,3.8543,3.8543,3.8543,3.8543,3.8543,3.8543,3.8543,3.8543,3.8543,3.8543,3.8543,3.8543,3.8543,3.8543,3.8543,3.8543,3.7889,3.5321,3.4254,3.3184,3.0822,2.9123,2.7628,2.6117,2.4409,2.2909,2.1814,2.1384,2.1384,2.1384,2.1384,2.1384,2.1384,2.1384,2.1384,2.1384,2.1384,2.1384,2.1384,2.1384,2.1384,2.1384,2.1384,2.1384,2.1384,2.1384,2.1384,2.1384,2.1384,2.1384,2.1384,2.1384,2.1384,2.1384,2.1384,2.1384,0.0,0.0,0.0,0.0,0.0,0.0,0.0,0.0,0.0,0.0,0.0,0.0,0.0,0.0,0.0,0.0,0.0,0.0,0.0,0.0,0.0,0.0,0.0,0.0,0.0,0.0,0.0,0.0,0.0,0.0,0.0,0.0,0.0,0.0,0.0,0.0,3.6597,3.6597,3.6597,0.0,3.6597,3.6597,3.6597,3.6597,3.6597,3.6597,3.6597,3.6597,3.6597,3.6597,3.6992,3.7578,3.7578,3.7973,3.8543,3.8543,3.8543,3.8543,3.8543,3.8543,3.8543,3.8543,3.8543,3.8543,3.8543,3.8543,3.8543,3.8543,3.8543,3.8543,3.8543,3.8543,3.8321,3.7681,3.7472,3.6607,3.403,3.3184,3.1686,2.7844,2.591,2.4617,2.2909,2.205,2.1384,2.1384,2.1384,2.1384,2.1384,2.1384,2.1384,2.1384,2.1384,2.1384,2.1384,2.1384,2.1384,2.1384,2.1384,2.1384,2.1384,2.1384,2.1384,2.1384,2.1384,2.1384,2.1384,2.1384,2.1384,2.1384,2.1384,2.1384,0.0,0.0,0.0,0.0,0.0,0.0,0.0,0.0,0.0,0.0,0.0,0.0,0.0,0.0,0.0,0.0,0.0,0.0,0.0,0.0,0.0,0.0,0.0,0.0,0.0,0.0,0.0,0.0,0.0,0.0,0.0,0.0,0.0,0.0,0.0,0.0,3.6597,3.6597,3.6597,3.6597,3.6597,3.6597,3.6597,3.6597,3.6597,3.6597,3.6597,3.6597,3.6597,3.6597,3.6992,3.7578,3.7578,3.7973,3.8543,3.8543,3.8543,3.8543,3.8543,3.8543,3.8543,3.8543,3.8543,3.8543,3.8543,3.8543,3.8543,3.8543,3.8543,3.8543,3.8543,3.8543,3.8543,3.8543,3.8543,3.8112,3.6607,3.5755,3.4267,3.126,2.8919,2.7002,2.5496,2.3547,2.205,2.1384,2.1384,2.1384,2.1384,2.1384,2.1384,2.1384,2.1384,2.1384,2.1384,2.1384,2.1384,2.1384,2.1384,2.1384,2.1384,2.1384,2.1384,2.1384,2.1384,2.1384,2.1384,2.1384,2.1384,2.1384,2.1384,2.1384,0.0,0.0,0.0,0.0,0.0,0.0,0.0,0.0,0.0,0.0,0.0,0.0,0.0,0.0,0.0,0.0,0.0,0.0,0.0,0.0,0.0,0.0,0.0,0.0,0.0,0.0,0.0,0.0,0.0,0.0,0.0,0.0,0.0,0.0,0.0,3.6597,3.6597,3.6597,3.6597,3.6597,3.6597,3.6597,3.6597,3.6597,3.6597,3.6597,3.6597,3.6597,3.6597,3.6597,3.6992,3.7578,3.7578,3.7973,3.8543,3.8543,3.8543,3.8543,3.8543,3.8543,3.8543,3.8543,3.8543,3.8543,3.8543,3.8543,3.8543,3.8543,3.8543,3.8543,3.8543,3.8543,3.8543,3.8543,3.8543,3.8543,3.8543,3.7486,3.5992,3.49,3.1722,2.8737,2.7002,2.4636,2.2699,2.1612,2.1384,2.1384,2.1384,2.1384,2.1384,2.1384,2.1384,2.1384,2.1384,2.1384,2.1384,2.1384,2.1384,2.1384,2.1384,2.1384,2.1384,2.1384,2.1384,2.1384,2.1384,2.1384,2.1384,2.1384,2.1384,2.1384,0.0,0.0,0.0,0.0,0.0,0.0,0.0,0.0,0.0,0.0,0.0,0.0,0.0,0.0,0.0,0.0,0.0,0.0,0.0,0.0,0.0,0.0,0.0,0.0,0.0,0.0,0.0,0.0,0.0,0.0,0.0,0.0,3.6597,3.6597,3.6597,0.0,3.6597,3.6597,3.6597,3.6597,3.6597,3.6597,3.6597,3.6597,3.6597,3.6597,3.6597,3.6597,3.6597,3.6597,3.6992,3.7578,3.7578,3.7973,3.8543,3.8543,3.8543,3.8543,3.8543,3.8543,3.8543,3.8543,3.8543,3.8543,3.8543,3.8543,3.8543,3.8543,3.8543,3.8543,3.8543,3.8543,3.8543,3.8543,3.8543,3.8543,3.8543,3.8321,3.7695,3.5992,3.216,2.8102,2.421,2.3337,2.2699,2.1612,2.1384,2.1384,2.1384,2.1384,2.1384,2.1384,2.1384,2.1384,2.1384,2.1384,2.1384,2.1384,2.1384,2.1384,2.1384,2.1384,2.1384,2.1384,2.1384,2.1384,2.1384,2.1384,2.1384,2.1384,2.1384,2.1384,0.0,0.0,0.0,0.0,0.0,0.0,0.0,0.0,0.0,0.0,0.0,0.0,0.0,0.0,0.0,0.0,0.0,0.0,0.0,0.0,0.0,0.0,0.0,0.0,0.0,0.0,0.0,0.0,0.0,0.0,0.0,3.6597,3.6597,3.6597,3.6597,0.0,3.6597,3.6597,3.6597,3.6597,3.6597,3.6597,3.6597,3.6597,3.6597,3.6597,3.6597,3.6597,3.6597,3.6597,3.6992,3.7578,3.7578,3.7973,3.8543,3.8543,3.8543,3.8543,3.8543,3.8543,3.8543,3.8543,3.8543,3.8543,3.8543,3.8543,3.8543,3.8543,3.8543,3.8543,3.8543,3.8543,3.8543,3.8543,3.8543,3.8543,3.8543,3.8543,3.7904,3.6425,3.3659,3.0453,2.7012,2.5081,2.3792,2.2472,2.1823,2.1384,2.1384,2.1384,2.1384,2.1384,2.1384,2.1384,2.1384,2.1384,2.1384,2.1384,2.1384,2.1384,2.1384,2.1384,2.1384,2.1384,2.1384,2.1384,2.1384,2.1384,2.1384,2.1384,2.1384,2.1384,0.0,0.0,0.0,0.0,0.0,0.0,0.0,0.0,0.0,0.0,0.0,0.0,0.0,0.0,0.0,0.0,0.0,0.0,0.0,0.0,0.0,0.0,0.0,0.0,0.0,0.0,0.0,0.0,0.0,0.0,3.6597,3.6597,3.6597,3.6597,3.6597,3.6597,3.6597,3.6597,3.6597,3.6597,3.6597,3.6597,3.6597,3.6597,3.6597,3.6597,3.6597,3.6597,3.6597,3.6597,3.6992,3.7578,3.7578,3.7973,3.8543,3.8543,3.8543,3.8543,3.8543,3.8543,3.8543,3.8543,3.8543,3.8543,3.8543,3.8543,3.8543,3.8543,3.8543,3.8543,3.8543,3.8543,3.8543,3.8543,3.8543,3.8543,3.8543,3.8543,3.7904,3.6425,3.4716,3.2586,2.9608,2.6816,2.4446,2.3355,2.2034,2.1384,2.1384,2.1384,2.1384,2.1384,2.1384,2.1384,2.1384,2.1384,2.1384,2.1384,2.1384,2.1384,2.1384,2.1384,2.1384,2.1384,2.1384,2.1384,2.1384,2.1384,2.1384,2.1384,2.1384,2.1384,0.0,0.0,0.0,0.0,0.0,0.0,0.0,0.0,0.0,0.0,0.0,0.0,0.0,0.0,0.0,0.0,0.0,0.0,0.0,0.0,0.0,0.0,0.0,0.0,0.0,0.0,0.0,0.0,0.0,0.0,3.6597,3.6597,3.6597,3.6597,3.6597,3.6597,3.6597,3.6597,3.6597,3.6597,3.6597,3.6597,3.6597,3.6597,3.6597,3.6597,3.6597,3.6597,3.6597,3.6597,3.6992,3.7578,3.7578,3.7973,3.8543,3.8543,3.8543,3.8543,3.8543,3.8543,3.8543,3.8543,3.8543,3.8543,3.8543,3.8543,3.8543,3.8543,3.8543,3.8543,3.8543,3.8543,3.8543,3.8543,3.8543,3.8543,3.8543,3.8543,3.7904,3.6425,3.4716,3.2586,2.9608,2.6816,2.4446,2.3355,2.2034,2.1384,2.1384,2.1384,2.1384,2.1384,2.1384,2.1384,2.1384,2.1384,2.1384,2.1384,2.1384,2.1384,2.1384,2.1384,2.1384,2.1384,2.1384,2.1384,2.1384,2.1384,2.1384,2.1384,2.1384,2.1384,0.0,0.0,0.0,0.0,0.0,0.0,0.0,0.0,0.0,0.0,0.0,0.0,0.0,0.0,0.0,0.0,0.0,0.0,0.0,0.0,0.0,0.0,0.0,0.0,0.0,0.0,0.0,0.0,0.0,0.0,3.6597,3.6597,3.6597,3.6597,3.6597,3.6597,3.6597,3.6597,3.6597,3.6597,3.6597,3.6597,3.6597,3.6597,3.6597,3.6597,3.6597,3.6597,3.6597,3.6597,3.6992,3.7578,3.7578,3.7973,3.8543,3.8543,3.8543,3.8543,3.8543,3.8543,3.8543,3.8543,3.8543,3.8543,3.8543,3.8543,3.8543,3.8543,3.8543,3.8543,3.8543,3.8543,3.8543,3.8543,3.8543,3.8543,3.8543,3.8543,3.8321,3.7695,3.5348,3.3235,3.2185,2.8533,2.5742,2.5308,2.3774,2.2463,2.2463,2.1823,2.1384,2.1384,2.1384,2.1384,2.1384,2.1384,2.1384,2.1384,2.1384,2.1384,2.1384,2.1384,2.1384,2.1384,2.1384,2.1384,2.1384,2.1384,2.1384,2.1384,2.1384,2.1384,3.7851,0.0,0.0,0.0,0.0,0.0,0.0,0.0,0.0,0.0,0.0,0.0,0.0,0.0,0.0,0.0,0.0,0.0,0.0,0.0,0.0,0.0,0.0,0.0,0.0,0.0,0.0,0.0,0.0,0.0,3.6597,3.6597,3.6597,3.6597,3.6597,3.6597,3.6597,3.6597,3.6597,3.6597,3.6597,3.6597,3.6597,3.6597,3.6597,3.6597,3.6597,3.6597,3.6597,3.6597,3.6992,3.7578,3.7578,3.7973,3.8543,3.8543,3.8543,3.8543,3.8543,3.8543,3.8543,3.8543,3.8543,3.8543,3.8543,3.8543,3.8543,3.8543,3.8543,3.8543,3.8543,3.8543,3.8543,3.8543,3.8543,3.8543,3.8543,3.8543,3.8543,3.8543,3.6202,3.4095,3.3684,3.0251,2.7249,2.661,2.4873,2.3574,2.3137,2.2489,2.1823,2.1384,2.1384,2.1384,2.1384,2.1384,2.1384,2.1384,2.1384,2.1384,2.1384,2.1384,2.1384,2.1384,2.1384,2.1384,2.1384,2.1384,2.1384,2.1384,2.1384,2.1384,0.0,0.0,0.0,0.0,0.0,0.0,0.0,0.0,0.0,0.0,0.0,0.0,0.0,0.0,0.0,0.0,0.0,0.0,0.0,0.0,0.0,0.0,0.0,0.0,0.0,0.0,0.0,0.0,0.0,3.6261,3.6583,3.6597,3.6597,3.6597,3.6597,3.6597,3.6597,3.6597,3.6597,3.6597,3.6597,3.6597,3.6597,3.6597,3.6597,3.6597,3.6597,3.6597,3.6597,3.6597,3.6992,3.7578,3.7578,3.7973,3.8543,3.8543,3.8543,3.8543,3.8543,3.8543,3.8543,3.8543,3.8543,3.8543,3.8543,3.8543,3.8543,3.8543,3.8543,3.8543,3.8543,3.8543,3.8543,3.8543,3.8543,3.8543,3.8543,3.8543,3.8543,3.8543,3.7068,3.5375,3.3896,3.1106,2.8748,2.6826,2.5742,2.4446,2.3337,2.3137,2.2699,2.1612,2.1384,2.1384,2.1384,2.1384,2.1384,2.1384,2.1384,2.1384,2.1384,2.1384,2.1384,2.1384,2.1384,2.1384,2.1384,2.1384,2.1384,2.1384,2.1384,2.1384,3.8754,0.0,0.0,0.0,0.0,0.0,0.0,0.0,0.0,0.0,0.0,0.0,0.0,0.0,0.0,0.0,0.0,0.0,0.0,0.0,0.0,0.0,0.0,0.0,0.0,0.0,0.0,0.0,0.0,3.6261,3.6583,3.6597,3.6597,3.6597,3.6597,3.6597,3.6597,3.6597,3.6597,3.6597,3.6597,3.6597,3.6597,3.6597,3.6597,3.6597,3.6597,3.6597,3.6597,3.6597,3.6992,3.7578,3.7578,3.7973,3.8543,3.8543,3.8543,3.8543,3.8543,3.8543,3.8543,3.8543,3.8543,3.8543,3.8543,3.8543,3.8543,3.8543,3.8543,3.8543,3.8543,3.8543,3.8543,3.8543,3.8543,3.8543,3.8543,3.8543,3.8543,3.8543,3.7068,3.5375,3.387,3.1747,2.9833,2.8134,2.6826,2.5959,2.5742,2.4219,2.2909,2.269,2.1823,2.1384,2.1384,2.1384,2.1384,2.1384,2.1384,2.1384,2.1384,2.1384,2.1384,2.1384,2.1384,2.1384,2.1384,2.1384,2.1384,2.1384,2.1384,2.1384,3.8951,3.872,3.8574,3.8574,0.0,0.0,0.0,0.0,0.0,0.0,0.0,0.0,0.0,0.0,0.0,0.0,0.0,0.0,0.0,0.0,0.0,0.0,0.0,0.0,0.0,0.0,0.0,0.0,3.5734,3.6114,3.6583,3.6597,3.6597,3.6597,3.6597,3.6597,3.6597,3.6597,3.6597,3.6597,3.6597,3.6597,3.6597,3.6597,3.6597,3.6597,3.6597,3.6597,3.6597,3.6597,3.6992,3.7578,3.7578,3.7973,3.8543,3.8543,3.8543,3.8543,3.8543,3.8543,3.8543,3.8543,3.8543,3.8543,3.8543,3.8543,3.8543,3.8543,3.8543,3.8543,3.8543,3.8543,3.8543,3.8543,3.8543,3.8543,3.8543,3.8543,3.8543,3.8543,3.7695,3.6202,3.387,3.2598,3.1106,2.8792,2.7702,2.7259,2.661,2.5308,2.4437,2.4001,2.2699,2.2034,2.2034,2.1595,2.1384,2.1384,2.1384,2.1384,2.1384,2.1384,2.1384,2.1384,2.1384,2.1384,2.1384,2.1384,2.1384,2.1384,2.1384,2.1384,3.8865,3.872,3.872,3.8574,0.0,0.0,3.8691,3.9258,0.0,0.0,0.0,0.0,0.0,0.0,0.0,0.0,0.0,0.0,0.0,0.0,0.0,0.0,0.0,0.0,0.0,0.0,0.0,3.5134,3.55,3.5953,3.6524,3.6583,3.6597,3.6597,3.6597,3.6597,3.6597,3.6597,3.6597,3.6597,3.6597,3.6597,3.6597,3.6597,3.6597,3.6597,3.6597,3.6597,3.6597,3.6597,3.6992,3.7578,3.7578,3.7973,3.8543,3.8543,3.8543,3.8543,3.8543,3.8543,3.8543,3.8543,3.8543,3.8543,3.8543,3.8543,3.8543,3.8543,3.8543,3.8543,3.8543,3.8543,3.8543,3.8543,3.8543,3.8543,3.8543,3.8543,3.8543,3.8543,3.8543,3.7472,3.4082,3.3447,3.2385,2.8996,2.836,2.7929,2.7043,2.661,2.6176,2.51,2.4001,2.3128,2.3128,2.2034,2.1384,2.1384,2.1384,2.1384,2.1384,2.1384,2.1384,2.1384,2.1384,2.1384,2.1384,2.1384,2.1384,2.1384,2.1384,2.1384,3.957,3.9301,3.903,3.872,0.0,0.0,3.9473,3.9219,0.0,0.0,0.0,0.0,0.0,0.0,0.0,0.0,0.0,0.0,0.0,0.0,0.0,0.0,0.0,0.0,0.0,0.0,3.4827,3.5134,3.5705,3.6085,3.6202,3.6466,3.6597,3.6597,3.6597,3.6597,3.6597,3.6597,3.6597,3.6597,3.6597,3.6597,3.6597,3.6597,3.6597,3.6597,3.6597,3.6597,3.6597,3.6597,3.6992,3.7578,3.7578,3.7973,3.8543,3.8543,3.8543,3.8543,3.8543,3.8543,3.8543,3.8543,3.8543,3.8543,3.8543,3.8543,3.8543,3.8543,3.8543,3.8543,3.8543,3.8543,3.8543,3.8543,3.8543,3.8543,3.8543,3.8543,3.8543,3.8543,3.8543,3.7486,3.4095,3.346,3.2398,2.9007,2.836,2.836,2.8145,2.727,2.661,2.6393,2.4437,2.3128,2.3128,2.2034,2.1384,2.1384,2.1384,2.1384,2.1384,2.1384,2.1384,2.1384,2.1384,2.1384,2.1384,2.1384,2.1384,2.1384,2.1384,2.1384,3.9301,3.9011,0.0,3.872,0.0,0.0,0.0,3.8887,0.0,0.0,0.0,0.0,0.0,0.0,0.0,0.0,0.0,0.0,0.0,0.0,0.0,0.0,0.0,0.0,0.0,0.0,3.4827,3.5134,3.5602,3.5953,3.6114,3.6422,3.6597,3.6597,3.6597,3.6597,3.6597,3.6597,3.6597,3.6597,3.6597,3.6597,3.6597,3.6597,3.6597,3.6597,3.6597,3.6597,3.6597,3.6597,3.689,3.7358,3.7519,3.7973,3.8543,3.8543,3.8543,3.8543,3.8543,3.8543,3.8543,3.8543,3.8543,3.8543,3.8543,3.8543,3.8543,3.8543,3.8543,3.8543,3.8543,3.8543,3.8543,3.8543,3.8543,3.8543,3.8543,3.8543,3.8543,3.8543,3.8543,3.7472,3.4095,3.346,3.2398,2.8996,2.836,2.836,2.836,2.7918,2.7486,2.7486,2.5308,2.401,2.401,2.248,2.1384,2.1384,2.1384,2.1384,2.1384,2.1384,2.1384,2.1384,2.1384,2.1384,2.1384,2.1384,2.1384,2.1384,2.1384,2.1384,0.0,0.0,0.0,0.0,0.0,3.8574,0.0,0.0,0.0,0.0,0.0,0.0,0.0,0.0,0.0,0.0,0.0,0.0,0.0,0.0,0.0,0.0,0.0,0.0,0.0,0.0,3.5173,3.5046,3.5735,3.606,3.6012,3.6334,3.6539,3.6597,3.6597,3.6597,3.6597,3.6597,3.6597,3.6597,3.6597,3.6597,3.6597,3.6597,3.6597,3.6597,3.6597,3.6597,3.6597,3.6597,3.6802,3.7124,3.7446,3.7929,3.8456,3.8514,3.8543,3.8543,3.8543,3.8543,3.8543,3.8543,3.8543,3.8543,3.8543,3.8543,3.8543,3.8543,3.8543,3.8543,3.8543,3.8543,3.8543,3.8543,3.8543,3.8543,3.8543,3.8543,3.8543,3.8543,3.8543,3.7472,3.4082,3.3447,3.2385,2.8996,2.836,2.836,2.836,2.836,2.836,2.836,2.6403,2.51,2.4882,2.2909,2.1595,2.1384,2.1384,2.1384,2.1384,2.1384,2.1384,2.1384,2.1384,2.1384,2.1384,2.1384,2.1384,2.1384,2.1384,2.1384,0.0,0.0,0.0,0.0,3.8574,0.0,0.0,0.0,0.0,0.0,0.0,0.0,0.0,0.0,0.0,0.0,0.0,0.0,0.0,0.0,0.0,0.0,0.0,0.0,0.0,0.0,0.0,3.4941,3.6696,3.7208,3.5868,3.5997,3.6305,3.6597,3.6597,3.6597,3.6597,3.6597,3.6597,3.6597,3.6597,3.6597,3.6597,3.6597,3.6597,3.6597,3.6597,3.6597,3.6597,3.6597,3.6802,3.7124,3.7446,3.7797,3.8148,3.8441,3.8543,3.8543,3.8543,3.8543,3.8543,3.8543,3.8543,3.8543,3.8543,3.8543,3.8543,3.8543,3.8543,3.8543,3.8543,3.8543,3.8543,3.8543,3.8543,3.8543,3.8543,3.8543,3.8543,3.8543,3.8543,3.7472,3.4082,3.3447,3.2385,2.8996,2.836,2.836,2.836,2.836,2.836,2.836,2.727,2.5959,2.4882,2.3574,2.2463,2.1384,2.1384,2.1384,2.1384,2.1384,2.1384,2.1384,2.1384,2.1384,2.1384,2.1384,2.1384,2.1384,2.1384,2.1384,0.0,0.0,0.0,0.0,0.0,0.0,3.8837,0.0,3.8574,0.0,0.0,0.0,0.0,0.0,0.0,0.0,0.0,0.0,0.0,0.0,0.0,0.0,0.0,0.0,0.0,0.0,0.0,0.0,0.0,3.6668,3.5,3.5646,3.6173,3.6319,3.6509,3.6597,3.6597,3.6597,3.6597,3.6597,3.6597,3.6597,3.6597,3.6597,3.6597,3.6597,3.6597,3.6597,3.6597,3.6597,3.6685,3.6846,3.7168,3.7607,3.8104,3.8426,3.8543,3.8543,3.8543,3.8543,3.8543,3.8543,3.8543,3.8543,3.8543,3.8543,3.8543,3.8543,3.8543,3.8543,3.8543,3.8543,3.8543,3.8543,3.8543,3.8543,3.8543,3.8543,3.8543,3.8543,3.8543,3.7472,3.4095,3.3447,3.2385,2.8996,2.836,2.836,2.836,2.836,2.836,2.836,2.727,2.6176,2.51,2.3774,2.269,2.1384,2.1384,2.1384,2.1384,2.1384,2.1384,2.1384,2.1384,2.1384,2.1384,2.1384,2.1384,2.1384,2.1384,2.1384,4.1073,0.0,0.0,0.0,0.0,0.0,0.0,0.0,0.0,0.0,0.0,0.0,0.0,0.0,3.8574,3.8574,0.0,0.0,0.0,0.0,0.0,0.0,0.0,0.0,0.0,0.0,0.0,0.0,0.0,0.0,3.4382,3.5178,3.5851,3.6114,3.6436,3.6597,3.6597,3.6597,3.6597,3.6597,3.6597,3.6597,3.6597,3.6597,3.6597,3.6597,3.6597,3.6597,3.6597,3.6597,3.6597,3.6641,3.6963,3.7431,3.7973,3.8295,3.847,3.8543,3.8543,3.8543,3.8543,3.8543,3.8543,3.8543,3.8543,3.8543,3.8543,3.8543,3.8543,3.8543,3.8543,3.8543,3.8543,3.8543,3.8543,3.8543,3.8543,3.8543,3.8543,3.8543,3.8543,3.7486,3.4108,3.346,3.2385,2.8996,2.836,2.836,2.836,2.836,2.836,2.836,2.7702,2.6403,2.51,2.401,2.2909,2.1384,2.1384,2.1384,2.1384,2.1384,2.1384,2.1384,2.1384,2.1384,2.1384,2.1384,2.1384,2.1384,2.1384,2.1384,0.0,0.0,0.0,4.2149,0.0,0.0,0.0,0.0,3.8574,0.0,0.0,0.0,0.0,3.8574,3.8574,3.8574,3.8574,0.0,0.0,0.0,0.0,0.0,0.0,0.0,0.0,0.0,0.0,0.0,0.0,0.0,3.4353,3.4549,3.5163,3.6085,3.6436,3.6597,3.6597,3.6597,3.6597,3.6597,3.6597,3.6597,3.6597,3.6597,3.6597,3.6597,3.6597,3.6597,3.6597,3.6597,3.6597,3.6641,3.6963,3.73,3.7636,3.7958,3.828,3.8543,3.8543,3.8543,3.8543,3.8543,3.8543,3.8543,3.8543,3.8543,3.8543,3.8543,3.8543,3.8543,3.8543,3.8543,3.8543,3.8543,3.8543,3.8543,3.8543,3.8543,3.8543,3.8543,3.8543,3.7486,3.4108,3.346,3.2385,2.8996,2.836,2.836,2.836,2.836,2.836,2.836,2.836,2.7486,2.51,2.4882,2.3783,2.1612,2.1384,2.1384,2.1384,2.1384,2.1384,2.1384,2.1384,2.1384,2.1384,2.1384,2.1384,2.1384,2.1384,2.1384,0.0,0.0,4.3339,4.3331,0.0,0.0,0.0,0.0,0.0,0.0,0.0,0.0,0.0,3.8965,3.8769,3.9355,3.8965,3.8574,0.0,0.0,0.0,0.0,0.0,0.0,0.0,0.0,0.0,0.0,0.0,0.0,0.0,3.5743,3.6093,3.5778,3.6114,3.6392,3.6597,3.6597,3.6597,3.6597,3.6597,3.6597,3.6597,3.6597,3.6597,3.6597,3.6597,3.6597,3.6597,3.6597,3.6597,3.6612,3.6729,3.6963,3.7329,3.787,3.8265,3.8543,3.8543,3.8543,3.8543,3.8543,3.8543,3.8543,3.8543,3.8543,3.8543,3.8543,3.8543,3.8543,3.8543,3.8543,3.8543,3.8543,3.8543,3.8543,3.8543,3.8543,3.8543,3.8543,3.8543,3.7486,3.4108,3.346,3.2385,2.8996,2.836,2.836,2.836,2.836,2.836,2.836,2.836,2.7486,2.51,2.3565,2.2261,2.1384,2.1384,2.1384,2.1384,2.1384,2.1384,2.1384,2.1384,2.1384,2.1384,2.1384,2.1384,2.1384,2.1384,2.1384,4.5308,4.5226,0.0,4.5027,4.4213,0.0,4.2551,0.0,0.0,0.0,0.0,0.0,0.0,3.9308,3.8769,3.9484,3.9092,3.8574,0.0,3.8574,0.0,0.0,0.0,0.0,0.0,0.0,0.0,0.0,0.0,0.0,0.0,0.0,3.6573,3.6722,3.6327,3.6275,3.6597,3.6597,3.6597,3.6597,3.6597,3.6597,3.6597,3.6597,3.6597,3.6597,3.6597,3.6597,3.6597,3.6597,3.6597,3.6597,3.6597,3.6802,3.7153,3.7695,3.8163,3.8543,3.8543,3.8543,3.8543,3.8543,3.8543,3.8543,3.8543,3.8543,3.8543,3.8543,3.8543,3.8543,3.8543,3.8543,3.8543,3.8543,3.8543,3.8543,3.8543,3.8543,3.8543,3.8543,3.8543,3.7486,3.4095,3.346,3.2398,2.8996,2.836,2.836,2.836,2.836,2.836,2.836,2.836,2.7486,2.51,2.3137,2.1823,2.1384,2.1384,2.1384,2.1384,2.1384,2.1384,2.1384,2.1384,2.1384,2.1384,2.1384,2.1384,2.1384,2.1384,2.1384]},{"header":{"parameterUnit":"m.s-1","parameterCategory":1,"la1":30.6,"la2":29.2853,"lo1":-89.7004,"lo2":-87.6739,"dx":0.0162,"dy":0.0183,"nx":112,"ny":82,"refTime":"2023-01-21T06:00:00:Z","depth":0,"parameterNumber":3,"parameterNumberName":"V-component_of_WINDS"},"data":[0.0,0.0,0.0,0.0,0.0,0.0,0.0,0.0,0.0,0.0,0.0,0.0,0.0,0.0,0.0,0.0,0.0,0.0,0.0,0.0,0.0,0.0,0.0,0.0,0.0,0.0,0.0,0.0,0.0,0.0,0.0,0.0,0.0,0.0,0.0,0.0,0.0,0.0,0.0,0.0,0.0,0.0,0.0,0.0,0.0,0.0,0.0,0.0,0.0,0.0,0.0,0.0,0.0,0.0,0.0,0.0,0.0,0.0,0.0,0.0,0.0,0.0,0.0,0.0,0.0,0.0,0.0,0.0,0.0,0.0,0.0,0.0,0.0,0.0,0.0,0.0,0.0,0.0,0.0,0.0,0.0,0.0,0.0,0.0,0.0,0.0,0.0,0.0,0.0,0.0,-7.2367,-7.2291,-7.4201,-7.5501,-7.5501,-7.5501,-7.4049,-7.061,0.0,0.0,0.0,0.0,0.0,0.0,0.0,0.0,0.0,0.0,0.0,0.0,0.0,0.0,0.0,0.0,0.0,0.0,0.0,0.0,0.0,0.0,0.0,0.0,0.0,0.0,0.0,0.0,0.0,0.0,0.0,0.0,0.0,0.0,0.0,0.0,0.0,0.0,0.0,0.0,0.0,0.0,0.0,0.0,0.0,0.0,0.0,0.0,0.0,0.0,0.0,0.0,0.0,0.0,0.0,0.0,0.0,0.0,0.0,0.0,0.0,0.0,0.0,0.0,0.0,0.0,0.0,0.0,0.0,0.0,0.0,0.0,0.0,0.0,0.0,0.0,0.0,0.0,0.0,0.0,0.0,0.0,0.0,0.0,0.0,0.0,0.0,0.0,0.0,0.0,0.0,0.0,0.0,0.0,0.0,0.0,0.0,0.0,0.0,0.0,0.0,0.0,0.0,0.0,-7.1107,-7.4545,-7.5271,-7.5501,-7.5501,-7.5501,-7.4049,-7.061,0.0,0.0,0.0,0.0,0.0,0.0,0.0,0.0,0.0,0.0,0.0,0.0,0.0,0.0,0.0,0.0,0.0,0.0,0.0,0.0,0.0,0.0,0.0,0.0,0.0,0.0,0.0,0.0,0.0,0.0,0.0,0.0,0.0,0.0,0.0,0.0,0.0,0.0,0.0,0.0,0.0,0.0,0.0,0.0,0.0,0.0,0.0,0.0,0.0,0.0,0.0,0.0,0.0,0.0,0.0,0.0,0.0,0.0,0.0,0.0,0.0,0.0,0.0,0.0,0.0,0.0,0.0,0.0,0.0,0.0,0.0,0.0,0.0,0.0,0.0,0.0,0.0,0.0,0.0,0.0,0.0,0.0,0.0,0.0,0.0,0.0,0.0,0.0,0.0,0.0,0.0,0.0,0.0,0.0,0.0,0.0,0.0,0.0,0.0,0.0,0.0,0.0,0.0,-6.996,-7.2329,-7.5195,-7.5501,-7.5501,-7.5501,-7.5501,-7.4049,-7.061,-7.0419,0.0,0.0,0.0,0.0,0.0,0.0,0.0,0.0,0.0,0.0,0.0,0.0,0.0,0.0,0.0,0.0,0.0,0.0,0.0,0.0,0.0,0.0,0.0,0.0,0.0,0.0,0.0,0.0,0.0,0.0,0.0,0.0,0.0,0.0,0.0,0.0,0.0,0.0,0.0,0.0,0.0,0.0,0.0,0.0,0.0,0.0,0.0,0.0,0.0,0.0,0.0,0.0,0.0,0.0,0.0,0.0,0.0,0.0,0.0,0.0,0.0,0.0,0.0,0.0,0.0,0.0,0.0,0.0,0.0,0.0,0.0,0.0,0.0,0.0,0.0,0.0,0.0,0.0,0.0,0.0,0.0,0.0,0.0,0.0,0.0,0.0,0.0,0.0,0.0,0.0,0.0,0.0,0.0,0.0,0.0,0.0,0.0,0.0,0.0,0.0,0.0,0.0,-7.2253,-7.4087,-7.5348,-7.5653,-7.5768,-7.5768,-7.5615,-7.4201,-7.1221,-7.0648,0.0,0.0,0.0,0.0,0.0,0.0,0.0,0.0,0.0,0.0,0.0,0.0,0.0,0.0,0.0,0.0,0.0,0.0,0.0,0.0,0.0,0.0,0.0,0.0,0.0,0.0,0.0,0.0,0.0,0.0,0.0,0.0,0.0,0.0,0.0,0.0,0.0,0.0,0.0,0.0,0.0,0.0,0.0,0.0,0.0,0.0,0.0,0.0,0.0,0.0,0.0,0.0,0.0,0.0,0.0,0.0,0.0,0.0,0.0,0.0,0.0,0.0,0.0,0.0,0.0,0.0,0.0,0.0,0.0,0.0,0.0,0.0,0.0,0.0,0.0,0.0,0.0,0.0,0.0,0.0,0.0,0.0,0.0,0.0,0.0,0.0,0.0,0.0,0.0,0.0,0.0,0.0,0.0,0.0,0.0,0.0,0.0,0.0,0.0,0.0,0.0,0.0,-7.3284,-7.5348,-7.5462,-7.615,-7.6609,-7.6609,-7.5921,-7.4736,-7.2941,-7.1298,0.0,0.0,0.0,0.0,0.0,0.0,0.0,0.0,0.0,0.0,0.0,0.0,0.0,0.0,0.0,0.0,0.0,0.0,0.0,0.0,0.0,0.0,0.0,0.0,0.0,0.0,0.0,0.0,0.0,0.0,0.0,0.0,0.0,0.0,0.0,0.0,0.0,0.0,0.0,0.0,0.0,0.0,0.0,0.0,0.0,0.0,0.0,0.0,0.0,0.0,0.0,0.0,0.0,0.0,0.0,0.0,0.0,0.0,0.0,0.0,0.0,0.0,0.0,0.0,0.0,0.0,0.0,0.0,0.0,0.0,0.0,0.0,0.0,0.0,0.0,0.0,0.0,0.0,0.0,0.0,0.0,0.0,0.0,0.0,0.0,0.0,0.0,0.0,0.0,0.0,0.0,0.0,0.0,0.0,0.0,0.0,0.0,0.0,0.0,0.0,0.0,0.0,-7.3705,-7.5883,0.0,-7.7335,-7.7526,-7.7526,-7.722,-7.5883,-7.317,0.0,0.0,0.0,0.0,0.0,0.0,0.0,0.0,0.0,0.0,0.0,0.0,0.0,0.0,0.0,0.0,0.0,0.0,0.0,0.0,0.0,0.0,0.0,0.0,0.0,0.0,0.0,0.0,0.0,0.0,0.0,0.0,0.0,0.0,0.0,0.0,0.0,0.0,0.0,0.0,0.0,0.0,0.0,0.0,0.0,0.0,0.0,0.0,0.0,0.0,0.0,0.0,0.0,0.0,0.0,0.0,0.0,0.0,0.0,0.0,0.0,0.0,0.0,0.0,0.0,0.0,0.0,0.0,0.0,0.0,0.0,0.0,0.0,0.0,0.0,0.0,0.0,0.0,0.0,0.0,0.0,0.0,0.0,0.0,0.0,0.0,0.0,0.0,0.0,0.0,0.0,0.0,0.0,0.0,0.0,0.0,0.0,0.0,0.0,0.0,0.0,0.0,-7.1947,-7.4545,-7.6723,0.0,-7.8252,-7.8404,-7.8404,-7.8175,-7.68,-7.3972,0.0,0.0,0.0,0.0,0.0,0.0,0.0,0.0,0.0,0.0,0.0,0.0,0.0,0.0,0.0,0.0,0.0,0.0,0.0,0.0,0.0,0.0,0.0,0.0,0.0,0.0,0.0,0.0,0.0,0.0,0.0,0.0,0.0,0.0,0.0,0.0,0.0,0.0,0.0,0.0,0.0,0.0,0.0,0.0,0.0,0.0,0.0,0.0,0.0,0.0,0.0,0.0,0.0,0.0,0.0,0.0,0.0,0.0,0.0,0.0,0.0,0.0,0.0,0.0,0.0,0.0,0.0,0.0,0.0,0.0,0.0,0.0,0.0,0.0,0.0,0.0,0.0,0.0,0.0,0.0,0.0,0.0,0.0,0.0,0.0,0.0,0.0,0.0,0.0,0.0,0.0,0.0,0.0,0.0,0.0,0.0,0.0,0.0,0.0,0.0,0.0,0.0,-7.3017,-7.5959,-7.8022,-7.8022,-7.8787,-7.9283,-7.9283,-7.8519,-7.7296,0.0,0.0,0.0,0.0,0.0,0.0,0.0,0.0,0.0,0.0,0.0,0.0,0.0,0.0,0.0,0.0,0.0,0.0,0.0,0.0,0.0,0.0,0.0,0.0,0.0,0.0,0.0,0.0,0.0,0.0,0.0,0.0,0.0,0.0,0.0,0.0,0.0,0.0,0.0,0.0,0.0,0.0,0.0,0.0,0.0,0.0,0.0,0.0,0.0,0.0,0.0,0.0,0.0,0.0,0.0,0.0,0.0,0.0,0.0,0.0,0.0,0.0,0.0,0.0,0.0,0.0,0.0,0.0,0.0,0.0,0.0,0.0,0.0,0.0,0.0,0.0,0.0,0.0,0.0,0.0,0.0,0.0,0.0,0.0,0.0,0.0,0.0,0.0,0.0,0.0,0.0,0.0,0.0,0.0,0.0,0.0,0.0,0.0,0.0,0.0,0.0,0.0,0.0,-7.3858,-7.7296,-7.9742,-7.9742,-7.9971,-8.0162,-8.0162,-7.9895,-7.8519,-7.5653,0.0,0.0,0.0,0.0,0.0,0.0,0.0,0.0,0.0,0.0,0.0,0.0,0.0,0.0,0.0,0.0,0.0,0.0,0.0,0.0,0.0,0.0,0.0,0.0,0.0,0.0,0.0,0.0,0.0,0.0,0.0,0.0,0.0,0.0,0.0,0.0,0.0,0.0,0.0,0.0,0.0,0.0,0.0,0.0,0.0,0.0,0.0,0.0,0.0,0.0,0.0,0.0,0.0,0.0,0.0,0.0,0.0,0.0,0.0,0.0,0.0,0.0,0.0,0.0,0.0,0.0,0.0,0.0,0.0,0.0,0.0,0.0,0.0,0.0,0.0,0.0,0.0,0.0,0.0,0.0,0.0,0.0,0.0,0.0,0.0,0.0,0.0,0.0,0.0,0.0,0.0,0.0,0.0,0.0,0.0,0.0,0.0,0.0,0.0,0.0,0.0,0.0,-7.4736,-7.8099,-8.0621,-8.0964,-8.1003,-8.1156,-8.1461,-8.1499,-8.0353,-7.764,0.0,0.0,0.0,0.0,0.0,0.0,0.0,0.0,0.0,0.0,0.0,0.0,0.0,0.0,0.0,0.0,0.0,0.0,0.0,0.0,0.0,0.0,0.0,0.0,0.0,0.0,0.0,0.0,0.0,0.0,0.0,0.0,0.0,0.0,0.0,0.0,0.0,0.0,0.0,0.0,0.0,0.0,0.0,0.0,0.0,0.0,0.0,0.0,0.0,0.0,0.0,0.0,0.0,0.0,0.0,0.0,0.0,0.0,0.0,0.0,0.0,0.0,0.0,0.0,0.0,0.0,0.0,0.0,0.0,0.0,0.0,0.0,0.0,0.0,0.0,0.0,0.0,0.0,0.0,0.0,0.0,0.0,0.0,0.0,0.0,0.0,0.0,0.0,0.0,0.0,0.0,0.0,0.0,0.0,0.0,0.0,0.0,0.0,0.0,0.0,0.0,0.0,-7.5692,-7.8672,-8.1041,-8.1843,-8.192,-8.2225,-8.2913,-8.299,-8.2264,-8.0621,0.0,0.0,0.0,0.0,0.0,0.0,0.0,0.0,0.0,0.0,0.0,0.0,0.0,0.0,0.0,0.0,0.0,0.0,0.0,0.0,0.0,0.0,0.0,0.0,0.0,0.0,0.0,0.0,0.0,0.0,0.0,0.0,0.0,0.0,0.0,0.0,0.0,0.0,0.0,0.0,0.0,0.0,0.0,0.0,0.0,0.0,0.0,0.0,0.0,0.0,0.0,0.0,0.0,0.0,0.0,0.0,0.0,0.0,0.0,0.0,-6.899,0.0,0.0,0.0,0.0,0.0,0.0,0.0,0.0,0.0,0.0,0.0,0.0,0.0,0.0,0.0,0.0,0.0,0.0,0.0,0.0,0.0,0.0,0.0,0.0,0.0,0.0,0.0,0.0,0.0,0.0,0.0,0.0,0.0,0.0,0.0,0.0,0.0,0.0,0.0,0.0,0.0,-7.7373,-8.0391,-8.2531,-8.2722,-8.2722,-8.2798,-8.299,-8.299,-8.2264,-8.0621,-8.0162,0.0,0.0,0.0,0.0,0.0,0.0,0.0,0.0,0.0,0.0,0.0,0.0,0.0,0.0,0.0,0.0,0.0,0.0,0.0,0.0,0.0,0.0,0.0,0.0,0.0,0.0,0.0,0.0,0.0,0.0,0.0,0.0,0.0,0.0,0.0,0.0,0.0,0.0,0.0,0.0,0.0,0.0,0.0,0.0,0.0,0.0,0.0,0.0,0.0,0.0,0.0,0.0,0.0,0.0,0.0,0.0,0.0,0.0,0.0,0.0,-6.9216,0.0,0.0,0.0,0.0,0.0,0.0,0.0,0.0,0.0,0.0,0.0,0.0,0.0,0.0,0.0,0.0,0.0,0.0,0.0,0.0,0.0,0.0,0.0,0.0,0.0,0.0,0.0,0.0,0.0,0.0,0.0,0.0,0.0,0.0,0.0,0.0,0.0,0.0,0.0,0.0,-7.9054,-8.1423,-8.3142,-8.3563,-8.3601,-8.3792,-8.4174,-8.4212,-8.383,-8.2951,-8.2149,0.0,0.0,0.0,0.0,0.0,0.0,0.0,0.0,0.0,0.0,0.0,0.0,0.0,0.0,0.0,0.0,0.0,0.0,0.0,0.0,0.0,0.0,0.0,0.0,0.0,0.0,0.0,0.0,0.0,0.0,0.0,0.0,0.0,0.0,0.0,0.0,0.0,0.0,0.0,0.0,0.0,0.0,0.0,0.0,0.0,0.0,0.0,0.0,0.0,0.0,0.0,0.0,0.0,0.0,-7.1757,-7.1794,-7.2608,-7.3154,-7.331,-7.1545,-7.2277,-7.4421,0.0,0.0,0.0,0.0,0.0,0.0,0.0,0.0,0.0,0.0,0.0,0.0,0.0,0.0,0.0,0.0,0.0,0.0,0.0,0.0,0.0,0.0,0.0,0.0,0.0,-8.127,-8.1003,0.0,0.0,0.0,0.0,0.0,0.0,0.0,0.0,0.0,0.0,0.0,0.0,-8.0735,-8.2378,-8.3754,-8.4632,-8.4747,-8.5053,-8.5893,-8.597,-8.597,-8.597,-8.4632,-8.3868,0.0,0.0,0.0,0.0,0.0,0.0,0.0,0.0,0.0,0.0,0.0,0.0,0.0,0.0,0.0,0.0,0.0,0.0,0.0,0.0,0.0,0.0,0.0,0.0,0.0,0.0,0.0,0.0,0.0,0.0,0.0,0.0,-6.378,-6.541,0.0,0.0,0.0,0.0,0.0,0.0,0.0,0.0,0.0,0.0,0.0,0.0,0.0,0.0,-7.2753,-7.279,-7.3749,-7.579,-7.6126,-7.6225,-7.6225,-7.6521,-7.7023,-7.7708,-7.5959,0.0,-7.4641,-7.4212,0.0,0.0,0.0,0.0,0.0,0.0,0.0,0.0,0.0,0.0,0.0,0.0,0.0,0.0,0.0,0.0,0.0,0.0,0.0,0.0,0.0,0.0,-8.3524,-8.3754,-8.4327,-8.4785,0.0,-8.1079,-7.7946,-7.7717,-7.7678,0.0,0.0,0.0,0.0,0.0,0.0,0.0,-8.2531,-8.4136,-8.5511,-8.639,-8.6467,-8.681,-8.7689,-8.7766,-8.7766,-8.7766,-8.7536,-8.7422,-8.7422,-8.6084,0.0,0.0,0.0,0.0,0.0,0.0,0.0,0.0,0.0,0.0,0.0,0.0,0.0,0.0,0.0,0.0,0.0,0.0,0.0,0.0,0.0,0.0,0.0,0.0,0.0,0.0,0.0,0.0,0.0,-6.4142,-6.5808,-6.7402,-6.6822,-6.6315,0.0,0.0,0.0,0.0,0.0,0.0,0.0,0.0,0.0,-7.1344,-7.1417,-7.2667,-7.5233,-7.527,-7.578,-7.6801,-7.7468,-7.7788,-7.7788,-7.8416,-7.8919,-7.9213,-7.8479,-7.7965,-7.7536,-7.6582,-7.6436,-7.6558,0.0,0.0,0.0,0.0,0.0,-7.3964,-7.4661,-7.5983,0.0,0.0,0.0,0.0,0.0,0.0,0.0,0.0,0.0,0.0,0.0,0.0,0.0,-8.4747,-8.5244,-8.5511,-8.5511,-8.4174,-8.2531,0.0,-8.0812,-8.043,-7.9245,0.0,0.0,0.0,0.0,-8.4365,-8.5702,-8.6505,-8.7116,-8.7498,-8.7536,-8.7689,-8.8071,-8.811,-8.811,-8.811,-8.811,-8.811,-8.811,-8.7804,-8.7192,0.0,0.0,0.0,0.0,0.0,0.0,0.0,0.0,0.0,0.0,0.0,0.0,0.0,0.0,0.0,0.0,0.0,0.0,0.0,0.0,0.0,0.0,0.0,0.0,0.0,0.0,0.0,0.0,-6.57,-6.7764,-6.9539,-6.9104,-6.8706,0.0,0.0,0.0,0.0,0.0,0.0,-7.0107,-7.0205,-7.1417,-7.3942,-7.4014,-7.5124,-7.7258,-7.7258,-7.7368,-7.7587,-7.8336,-7.8693,-7.8693,-7.9443,-7.991,-8.0094,-8.0094,-8.0204,-8.0277,-7.8626,-7.8075,-7.8222,-7.7818,-7.7047,-7.6166,-7.6166,-7.6166,-7.6203,-7.6644,-7.7561,-7.8552,-7.8701,0.0,-7.8772,-7.8982,0.0,0.0,0.0,0.0,-8.127,-8.2684,-8.3486,-8.4289,-8.555,-8.6008,-8.6161,-8.6161,-8.6658,-8.6505,0.0,-8.4136,-8.3983,-8.2951,0.0,0.0,0.0,0.0,-8.6619,-8.7918,-8.811,-8.8186,-8.8377,-8.8415,-8.8492,-8.8721,-8.8721,-8.8721,-8.8721,-8.8721,-8.8721,-8.8721,-8.9332,-8.9065,-8.7804,0.0,0.0,0.0,0.0,0.0,0.0,0.0,0.0,0.0,0.0,0.0,0.0,0.0,0.0,0.0,0.0,0.0,0.0,0.0,0.0,0.0,0.0,0.0,0.0,0.0,0.0,0.0,0.0,0.0,-7.1096,-7.2653,0.0,0.0,0.0,0.0,-6.9176,-6.9285,-7.0399,-7.2689,-7.302,-7.4238,-7.6836,-7.6909,-7.7411,-7.8516,-7.8516,-7.8919,-7.9653,-7.969,-7.9727,-7.9727,-7.9764,-8.0204,-8.0938,-8.0938,-8.1379,-8.1929,-8.0314,-8.0131,-8.0681,-7.914,-7.8956,-7.9543,-7.9543,-7.9543,-7.9764,-8.1305,-8.1893,-8.2059,-8.2571,-8.2713,-8.2533,-8.1499,-8.0854,0.0,0.0,-8.0932,-8.2352,-8.2874,-8.4785,-8.6658,-8.6734,-8.7384,-8.7957,-8.7957,-8.7995,-8.7766,0.0,-8.7269,-8.7307,-8.5626,0.0,-8.7269,-8.5741,-8.6925,-8.7995,-8.8071,-8.811,-8.8377,-8.9179,-8.9256,-8.9561,-9.0402,-9.0478,-9.0478,-9.0478,-9.0478,-9.0478,-9.0478,-9.0517,-9.0517,-9.0402,-8.8874,0.0,0.0,0.0,0.0,0.0,0.0,0.0,0.0,0.0,0.0,0.0,0.0,0.0,0.0,0.0,0.0,0.0,0.0,0.0,0.0,0.0,0.0,0.0,0.0,0.0,0.0,0.0,0.0,-7.1277,-7.2001,0.0,0.0,-7.2291,-7.2255,-7.2219,-7.3225,-7.4268,-7.5269,-7.537,-7.6218,-7.7824,-7.7861,-7.8327,-7.936,-7.936,-7.9507,-7.98,-8.0314,-8.0571,-8.0571,-8.1085,-8.1489,-8.1782,-8.1782,-8.1929,-8.215,-8.1562,-8.1489,-8.1709,-8.1122,-8.1085,-8.1342,-8.1342,-8.1342,-8.1415,-8.2003,-8.2186,-8.2251,-8.2407,-8.2708,-8.2941,-8.2575,-8.2929,-8.3485,-8.3251,-8.4287,-8.5478,-8.5697,-8.668,-8.7651,-8.7651,-8.788,-8.811,-8.811,-8.8492,-8.8797,-8.8492,-8.8224,-8.8071,-8.7957,-8.8453,-8.8835,-8.8797,-8.9332,-8.9714,-8.9714,-8.9714,-8.9829,-9.0135,-9.0135,-9.0249,-9.0593,-9.0593,-9.0593,-9.0593,-9.0593,-9.0593,-9.0593,-9.0593,-9.0593,-9.0593,-9.002,-8.8644,0.0,0.0,0.0,0.0,0.0,0.0,0.0,0.0,0.0,0.0,0.0,0.0,0.0,0.0,0.0,0.0,0.0,0.0,0.0,0.0,0.0,0.0,0.0,0.0,0.0,0.0,-7.0842,-7.2183,-7.2798,-7.3342,-7.3849,-7.3921,-7.4138,-7.4747,-7.6082,-7.6977,-7.7145,-7.7531,-7.8062,-7.8766,-7.8803,-7.9233,-8.0204,-8.0204,-8.0314,-8.0608,-8.1158,-8.1415,-8.1415,-8.1966,-8.2186,-8.2186,-8.2186,-8.2186,-8.2186,-8.2186,-8.2186,-8.2186,-8.2186,-8.2186,-8.2186,-8.2186,-8.2186,-8.2223,-8.2517,-8.259,-8.2663,-8.292,-8.3281,-8.3608,-8.3988,-8.476,-8.559,-8.604,-8.6796,-8.7483,-8.7483,-8.8014,-8.8492,-8.8492,-8.8721,-8.895,-8.895,-8.937,-8.9752,-8.9752,-8.9294,-8.8912,-8.8912,-8.8912,-8.8912,-8.8874,-8.8874,-8.8874,-8.8874,-8.9409,-8.9752,-8.9752,-9.0249,-9.0593,-9.0593,-9.0096,-9.002,-9.0555,-9.0058,-9.002,-9.0593,-9.0058,-8.9752,-8.9752,-8.9179,-8.8071,-8.639,0.0,0.0,0.0,0.0,0.0,0.0,0.0,0.0,0.0,0.0,0.0,0.0,0.0,0.0,0.0,0.0,0.0,0.0,0.0,0.0,0.0,0.0,0.0,-7.0372,-7.1784,-7.3052,-7.3885,-7.5334,-7.6311,-7.6311,-7.6348,-7.6415,-7.6687,-7.7473,-7.8106,-7.8336,-7.9297,-7.98,-7.9837,-7.9837,-8.0204,-8.1048,-8.1048,-8.1415,-8.2186,-8.2186,-8.2186,-8.2186,-8.2186,-8.2223,-8.2223,-8.2223,-8.226,-8.226,-8.226,-8.226,-8.226,-8.226,-8.2223,-8.2223,-8.226,-8.226,-8.237,-8.3177,-8.3471,-8.3581,-8.4352,-8.4609,-8.4838,-8.588,-8.6271,-8.6576,-8.7737,-8.8107,-8.8148,-8.8148,-8.8759,-8.9332,-8.9332,-8.9982,-9.0593,-9.0593,-9.0593,-9.0593,-9.0593,-9.0593,-9.0096,-8.8453,-8.8186,-8.7613,-8.5932,-8.5664,0.0,-8.5664,-8.7116,-8.8148,-8.811,-8.96,-9.0593,-9.0555,-8.9065,-8.8874,-9.0517,-8.9065,-8.8912,-9.0555,-8.9027,-8.8186,-8.8186,-8.6467,-8.6428,-8.811,0.0,0.0,0.0,0.0,0.0,0.0,0.0,0.0,0.0,0.0,0.0,0.0,0.0,0.0,0.0,0.0,0.0,0.0,0.0,0.0,0.0,0.0,-7.269,-7.2907,-7.3305,-7.4102,-7.5478,-7.6022,-7.6529,-7.7108,-7.7181,-7.7398,-7.8082,-7.854,-7.8784,-7.8946,-7.9361,-7.9929,-8.0645,-8.0681,-8.1048,-8.1856,-8.1856,-8.1966,-8.2186,-8.2186,-8.2186,-8.2186,-8.2186,-8.2517,-8.3067,-8.3067,-8.3398,-8.3948,-8.3948,-8.3948,-8.3875,-8.3324,-8.3067,-8.3141,-8.3728,-8.3948,-8.3985,-8.4205,-8.4278,-8.4315,-8.4535,-8.4609,-8.4639,-8.4995,-8.577,-8.666,-8.7005,-8.8103,-8.926,-8.926,-8.9762,-9.0249,-9.0249,-9.044,-9.0593,-9.0593,-9.0593,-9.0593,-9.0593,-9.0593,-9.044,-8.9982,-8.9905,-8.9752,-8.9294,-8.9218,0.0,-8.9218,-8.9638,-8.9447,-8.8224,-8.96,-9.0096,-8.8874,-8.9485,-9.0096,-9.0593,-9.0173,-9.0135,-9.0593,-9.0173,-8.9905,-8.9905,-8.8262,-8.7613,0.0,0.0,0.0,0.0,0.0,0.0,0.0,0.0,0.0,0.0,0.0,0.0,0.0,0.0,0.0,0.0,0.0,0.0,0.0,0.0,0.0,0.0,-7.3631,-7.5152,-7.5841,-7.5623,-7.5768,-7.6674,-7.7108,-7.747,-7.7941,-7.8014,-7.8263,-7.8836,-7.9303,-7.9621,-7.9785,-8.0246,-8.078,-8.1359,-8.1424,-8.1746,-8.2186,-8.2186,-8.237,-8.27,-8.27,-8.2884,-8.3214,-8.3214,-8.3471,0.0,-8.3911,-8.4168,-8.4609,-8.4609,-8.4609,0.0,0.0,0.0,0.0,0.0,-8.4609,-8.4646,-8.4976,-8.5086,-8.5159,-8.549,-8.56,-8.5735,-8.6212,-8.6943,-8.7694,-8.82,-8.9188,-9.0083,-9.0083,-9.034,-9.0593,-9.0593,-9.0593,-9.0593,-9.0593,-9.0593,-9.0593,-9.0593,-9.0593,0.0,-9.0593,-9.002,-8.9294,-8.8568,-8.8453,-8.8453,-8.8453,-8.9103,-8.9179,-8.8186,-8.96,-9.0211,-8.9218,-8.9409,0.0,0.0,0.0,-8.9561,-8.9561,-8.9561,0.0,0.0,0.0,-8.7384,-8.811,0.0,0.0,0.0,-8.639,-8.5626,0.0,0.0,0.0,0.0,0.0,0.0,0.0,0.0,0.0,0.0,0.0,0.0,0.0,0.0,0.0,0.0,-7.5044,-7.714,-7.8484,-7.8159,-7.7792,-7.772,-7.8267,-7.8738,-7.881,-7.8847,-7.9021,-7.9397,-7.999,-8.0458,-8.0795,0.0,0.0,0.0,0.0,-8.2333,-8.2333,-8.2443,-8.2847,-8.3544,-8.3544,-8.3911,-8.4609,-8.4609,-8.4646,-8.4756,-8.4756,-8.4792,-8.4866,-8.4866,-8.4866,-8.4866,-8.4756,-8.4792,-8.4866,-8.4866,-8.4866,0.0,0.0,0.0,0.0,-8.6775,-8.6995,-8.7163,-8.8227,-8.8692,-8.9023,-9.0121,-9.0508,-9.0593,-9.0593,-9.0593,-9.0593,-9.0593,-9.0593,-9.0593,-9.0593,-9.0593,-9.0593,-9.0593,-9.0593,-9.0593,-9.0593,-8.937,-8.7842,-8.6314,-8.6084,-8.6084,-8.6084,-8.7422,-8.8301,-8.811,0.0,0.0,-9.0326,-8.9141,-8.9027,-9.0517,-8.9218,-8.8377,-8.8377,-8.8377,-8.7651,-8.6123,-8.6084,-8.6849,-8.8377,-8.8377,-8.9141,-9.0555,-8.7498,-8.6887,0.0,0.0,0.0,0.0,0.0,0.0,0.0,0.0,0.0,0.0,0.0,0.0,0.0,0.0,0.0,-7.5551,-7.7207,-7.8581,-7.8872,-7.9344,-7.9417,-7.8763,-7.8836,-7.9162,-7.9852,-7.975,-7.9933,-8.0656,-8.1081,-8.136,-8.1428,-8.1879,0.0,-8.2121,-8.2847,-8.3177,-8.3177,-8.3801,-8.4205,-8.4389,0.0,0.0,-8.4609,-8.4609,-8.4939,-8.5563,-8.5563,-8.593,-8.6554,-8.6554,-8.6554,-8.6481,-8.582,-8.5967,-8.6554,-8.6554,-8.6554,-8.6554,-8.6738,-8.6775,-8.6811,-8.6958,-8.6995,-8.7064,-8.7298,-8.8022,0.0,-8.9076,-8.9811,-9.0593,-9.0593,-9.0593,-9.0593,-9.0593,-9.0593,-9.0593,-9.0593,-9.0593,-9.0593,-9.0593,-9.0593,-9.0593,-9.0593,-9.0326,-9.002,-8.9676,-8.96,-8.96,-8.96,-8.9905,-8.96,-8.8224,-8.96,-9.0058,-8.8683,-8.9523,-9.0249,-9.0593,-9.0326,-9.0135,-9.0135,-9.0135,-8.9982,-8.9638,-8.96,-8.9791,-9.0135,-9.0135,-9.0287,-9.0593,-8.9944,-8.9791,0.0,0.0,0.0,0.0,0.0,0.0,0.0,0.0,0.0,0.0,0.0,-7.3921,0.0,0.0,-7.6958,-7.7026,-7.8731,-8.0037,-8.0037,-8.0503,-8.0604,-7.9703,-7.9889,-8.0288,-8.0757,-8.0724,-8.0869,-8.1478,-8.1547,-8.1829,-8.2336,-8.2507,-8.2825,-8.3228,-8.3735,-8.4022,-8.4022,-8.4389,-8.4792,-8.5196,-8.5196,-8.5416,-8.582,-8.582,-8.604,-8.6407,-8.6407,-8.6628,-8.6995,-8.6995,-8.6995,-8.6958,-8.6554,-8.6664,-8.6995,-8.6995,-8.6995,-8.6995,-8.6995,-8.6995,-8.6995,-8.6995,-8.6995,-8.7132,-8.7746,-8.8287,-8.8914,-8.9528,-9.0167,-9.0593,-9.0593,-9.0593,-9.0593,-9.0593,-9.0593,-9.0593,-9.0593,-9.0937,-9.1204,-9.1204,-9.1548,-9.1854,-9.1854,-9.1854,-9.1586,-9.0746,-9.0593,-9.0593,-9.0593,-9.0593,-9.0287,-8.9447,-9.0478,-9.0861,-9.002,-9.1128,-9.1854,-9.1854,-9.1854,-9.1854,-9.1854,-9.1854,-9.1854,-9.1854,-9.1854,-9.1854,-9.1854,-9.1854,-9.1854,-9.1854,-9.1854,-9.1395,0.0,0.0,0.0,0.0,0.0,0.0,0.0,0.0,-7.4754,-7.5225,-7.5297,-7.5334,-7.5531,-7.7026,-7.8332,-7.8467,-8.0034,-8.1234,-8.1234,-8.1478,-8.1292,-8.064,-8.0975,-8.1305,-8.1445,-8.159,-8.1802,-8.2007,-8.2116,-8.2482,-8.3312,-8.3349,-8.371,-8.4369,-8.4688,-8.4829,-8.4829,-8.4976,-8.538,-8.604,-8.604,-8.6371,-8.6995,-8.6995,-8.6995,-8.6995,-8.6995,-8.6995,-8.6995,-8.6995,-8.6995,-8.6995,-8.6995,-8.6995,-8.6995,-8.6995,-8.6995,-8.6995,-8.6995,-8.6995,-8.6995,-8.6995,-8.6995,-8.7163,-8.8144,-8.8635,-8.8969,-8.9991,-9.0427,-9.0593,-9.0593,-9.0746,-9.0822,-9.0822,-9.0975,-9.109,-9.109,-9.1586,-9.2045,-9.2045,-9.2618,-9.3115,-9.3115,-9.3115,-9.2656,-9.1281,-9.109,-9.109,-9.109,-9.109,-9.109,-9.109,-9.1663,-9.2045,-9.2045,-9.2695,-9.3115,-9.3115,-9.3115,-9.3115,-9.3115,-9.3115,-9.3115,-9.3115,-9.3115,-9.3115,-9.3115,-9.3115,-9.3115,-9.3115,-9.3115,-9.2389,-6.9466,-7.0191,-7.1458,-7.1712,-7.2726,-7.4247,0.0,0.0,-7.7724,-7.9861,-8.0295,-8.0295,-8.0295,-8.0654,-8.0975,-8.0975,-8.1469,-8.1818,-8.1818,-8.1683,-8.1647,-8.1709,-8.1782,-8.1751,-8.1579,-8.2235,-8.2603,-8.25,-8.3435,-8.4081,-8.4154,-8.4327,-8.4431,-8.4609,-8.527,-8.5673,-8.5673,-8.6371,-8.6775,-8.6885,-8.6885,-8.6921,-8.6995,-8.6995,-8.6995,-8.6995,-8.6995,-8.6995,-8.6995,-8.6995,-8.6995,-8.6995,-8.6995,-8.6995,-8.6995,-8.6995,-8.6995,-8.6995,-8.6995,-8.6995,-8.6995,-8.6995,-8.6995,-8.6995,-8.72,-8.796,-8.8804,-8.8969,-8.9763,-9.0593,-9.0593,-9.1128,-9.1663,-9.1663,-9.2274,-9.2809,-9.2809,-9.2886,-9.2962,-9.2962,-9.3038,-9.3115,-9.3115,-9.3115,-9.3038,-9.2847,-9.2809,-9.2809,-9.2809,-9.2809,-9.2809,-9.2809,-9.2886,-9.2962,-9.2962,-9.3038,-9.3115,-9.3115,-9.3115,-9.3115,-9.3115,-9.3115,-9.3115,-9.3115,-9.3115,-9.3115,-9.3115,-9.3115,-9.3115,-9.3115,-9.3115,-9.3,-7.2436,-7.2762,0.0,0.0,-7.6891,-7.7217,-7.9136,-7.9607,-7.9897,-8.0911,-8.1128,-8.1128,-8.1234,-8.1234,-8.1234,0.0,-8.1445,-8.166,-8.2202,-8.2308,-8.249,-8.3034,-8.3312,-8.3197,-8.255,-8.3176,-8.372,-8.3756,-8.4186,-8.4657,-8.5133,-8.5202,-8.5527,-8.6004,-8.6334,-8.6518,-8.6518,-8.6848,-8.6995,-8.6995,-8.6995,-8.6995,-8.6995,-8.6995,-8.6995,-8.6995,-8.6995,-8.6995,-8.6995,-8.6995,-8.6995,-8.6995,-8.6995,-8.6995,-8.6995,-8.6995,-8.6995,-8.6995,-8.6995,-8.6995,-8.6995,-8.6995,-8.6995,-8.7064,-8.7394,-8.817,-8.9056,-8.9404,-9.0485,-9.152,-9.152,-9.2055,-9.2542,-9.2542,-9.2847,-9.3115,-9.3115,-9.3497,-9.3841,-9.3803,-9.4223,-9.4567,-9.4567,-9.4567,-9.4567,-9.4567,-9.3726,-9.3115,-9.3115,-9.3115,-9.3306,-9.3803,-9.3879,-9.407,-9.4529,-9.4567,-9.4567,-9.4567,-9.4567,-9.4567,-9.4567,-9.4567,-9.4567,-9.4567,-9.4567,-9.4567,-9.4567,-9.4567,-9.4567,-9.4567,-9.5064,-9.5331,-7.4175,-7.4682,0.0,-7.9462,-7.9897,-7.968,-8.0839,-8.1128,-8.1128,-8.1128,-8.1128,-8.1092,-8.1305,-8.1234,-8.1307,-8.1666,-8.1632,-8.1922,-8.2863,-8.3077,-8.3366,-8.4019,-8.4589,-8.4547,-8.3825,-8.4369,-8.4767,-8.4835,-8.5123,-8.5527,-8.6114,-8.6114,-8.6407,-8.6995,-8.6995,-8.6995,-8.6995,-8.6995,-8.6995,-8.6995,-8.6995,-8.6995,-8.6995,-8.6995,-8.6995,-8.6995,-8.6995,-8.6995,-8.6995,-8.6995,-8.6995,-8.6995,-8.6995,-8.6995,-8.7031,-8.7252,-8.7215,-8.6995,-8.6995,-8.6995,-8.7031,-8.7252,-8.7325,-8.7431,-8.8117,-8.9013,-8.9794,-9.0209,-9.1378,-9.2451,-9.2451,-9.2924,-9.3459,-9.3459,-9.365,-9.3803,-9.3803,-9.4299,-9.4796,-9.4987,-9.5522,-9.6019,-9.6248,-9.6286,-9.6286,-9.6286,-9.5255,-9.4299,-9.3841,-9.3994,-9.449,-9.5331,-9.5446,-9.5675,-9.6248,-9.6286,-9.6286,-9.6286,-9.6286,-9.6286,-9.6286,-9.6286,-9.6286,-9.6286,-9.6286,-9.6286,-9.6286,-9.6286,-9.6286,-9.6286,-9.6936,-9.7241,-7.3486,0.0,-7.6637,-7.834,-7.9897,-8.1056,-8.1092,-8.1128,-8.1128,-8.1128,-8.1128,-8.1128,-8.1128,-8.1234,-8.1629,-8.2429,-8.2643,-8.3037,-8.3876,-8.3986,-8.4056,-8.43,-8.4959,-8.5435,0.0,-8.561,-8.5678,-8.5504,-8.6412,-8.6958,-8.6958,-8.6958,-8.6995,-8.6995,-8.6995,-8.6995,-8.6995,-8.6995,-8.6995,-8.6995,-8.6995,-8.6995,-8.6995,-8.6995,-8.6995,-8.6995,-8.6995,-8.6995,-8.6995,-8.6995,-8.6995,-8.6995,-8.6995,-8.6995,-8.7105,-8.7876,-8.7655,-8.6995,-8.6995,-8.6995,-8.7142,-8.7912,-8.8169,-8.8316,-8.9087,-9.0249,-9.1282,-9.1282,-9.2128,-9.3033,-9.3033,-9.3688,-9.4299,-9.4376,-9.4949,-9.5522,-9.5522,-9.5522,-9.5789,-9.6668,-9.6859,-9.7127,-9.7891,-9.8044,-9.8044,-9.8044,-9.8006,-9.7356,-9.5713,-9.6248,-9.7089,-9.7891,-9.8006,-9.8006,-9.8044,-9.8044,-9.8044,-9.8044,-9.8044,-9.8044,-9.8044,-9.8044,-9.8044,-9.8044,-9.8044,-9.8044,-9.8044,-9.8044,-9.8044,-9.8044,-9.8044,-9.8082,-7.6384,0.0,-7.8267,-7.9897,-8.0694,-8.1128,-8.1128,-8.1128,-8.1128,-8.1128,-8.1527,-8.1889,-8.1889,-8.2396,-8.2903,-8.3121,-8.323,-8.3556,-8.4537,-8.4646,-8.49,-8.5625,-8.6059,0.0,0.0,0.0,0.0,-8.6276,-8.6603,-8.6856,-8.6995,-8.6995,-8.6995,-8.6995,-8.6995,-8.6995,-8.6995,-8.6995,-8.6995,-8.6995,-8.6995,-8.6995,-8.6995,-8.6995,-8.6995,-8.6995,-8.6995,-8.6995,-8.7031,-8.7582,-8.7802,-8.7839,-8.839,-8.861,-8.8647,-8.8904,-8.883,-8.861,-8.861,-8.861,-8.8647,-8.894,-8.9014,-8.905,-8.9344,-9.0365,-9.1547,-9.1547,-9.2767,-9.4133,-9.4133,-9.4685,-9.5178,-9.5178,-9.5828,-9.6477,-9.6477,-9.6898,-9.7356,-9.7662,-9.77,-9.7776,-9.8044,-9.812,-9.812,-9.812,-9.812,-9.7891,-9.7318,-9.7509,-9.7815,-9.8082,-9.812,-9.812,-9.812,-9.812,-9.812,-9.812,-9.812,-9.812,-9.812,-9.812,-9.812,-9.812,-9.812,-9.812,-9.812,-9.812,-9.812,-9.812,-9.8693,-9.8961,0.0,-7.8702,-7.91,-8.0694,-8.1128,-8.1128,-8.1128,-8.1128,-8.1201,-8.1454,-8.1925,-8.236,-8.265,-8.312,-8.3591,-8.3881,-8.3917,-8.4281,-8.5153,-8.5336,-8.5664,-8.6211,-8.6465,-8.6536,0.0,0.0,0.0,-8.6786,-8.6786,-8.6856,-8.6995,-8.6995,-8.6995,-8.6995,-8.6995,-8.6995,-8.6995,-8.6995,-8.6995,-8.6995,-8.6995,-8.6995,-8.6995,-8.6995,-8.6995,-8.7031,-8.7325,-8.7435,-8.7509,-8.8316,-8.8647,-8.8683,-8.9234,-8.9417,-8.9454,-8.9748,-8.9858,-8.9821,-8.9528,-8.9417,-8.9454,-8.9748,-8.9858,-8.9895,-9.0188,-9.1048,-9.2087,-9.2305,-9.352,-9.4769,-9.4969,-9.5562,-9.6057,-9.6057,-9.6706,-9.7318,-9.7318,-9.7738,-9.8197,-9.8502,-9.8579,-9.8655,-9.8961,-9.8999,-9.8999,-9.8999,-9.8999,-9.8884,-9.8617,-9.8579,-9.8693,-9.8961,-9.8999,-9.8999,-9.8999,-9.8999,-9.8999,-9.8999,-9.8999,-9.8999,-9.8999,-9.8999,-9.8999,-9.8999,-9.8999,-9.8999,-9.8999,-9.8999,-9.8999,-9.8999,-9.9572,-9.984,-7.7977,-7.881,-7.9209,-8.073,-8.1128,-8.1128,-8.1128,-8.1092,-8.1273,-8.1998,-8.2179,-8.2396,0.0,0.0,-8.3736,-8.4497,-8.4714,-8.504,-8.5801,-8.5987,-8.61,0.0,0.0,0.0,0.0,0.0,0.0,-8.6925,0.0,-8.6995,-8.6995,-8.6995,-8.6995,-8.6995,-8.6995,-8.6995,-8.6995,-8.6995,-8.6995,-8.6995,-8.6995,-8.7031,-8.7068,-8.7068,-8.7105,-8.7178,-8.7949,-8.828,-8.8316,-8.916,-8.9491,-8.9491,-8.9528,-8.9528,-8.9638,-9.0408,-9.0665,-9.0555,-8.9821,-8.9528,-8.9674,-9.0408,-9.0665,-9.0812,-9.1583,-9.2229,-9.2933,-9.3485,-9.416,-9.4819,-9.5463,-9.6248,-9.6898,-9.6936,-9.7585,-9.8197,-9.8197,-9.8197,-9.8464,-9.9305,-9.9458,-9.9687,-10.0489,-10.0604,-10.0604,-10.0604,-10.0604,-10.0298,-9.9572,-9.9458,-9.9763,-10.0489,-10.0604,-10.0604,-10.0604,-10.0604,-10.0604,-10.0604,-10.0604,-10.0604,-10.0604,-10.0604,-10.0604,-10.0604,-10.0604,-10.0604,-10.0604,-10.0604,-10.0604,-10.0604,-10.0604,-10.0604,-7.9933,-8.0513,-8.0585,-8.102,-8.1128,-8.1128,-8.1128,-8.0658,-8.0259,-8.0476,-8.0513,-8.0585,0.0,0.0,0.0,-8.3772,-8.4786,0.0,-8.5873,-8.5948,0.0,-8.6247,0.0,-8.6247,-8.6536,-8.6392,0.0,0.0,-8.6573,-8.6715,-8.6995,-8.6995,-8.6995,-8.6995,-8.6995,-8.6995,-8.6995,-8.6995,-8.6995,-8.6995,-8.6995,-8.7325,-8.7876,-8.7876,-8.8243,-8.883,-8.9014,-8.9087,-8.916,-8.9968,-9.0298,-9.0372,-9.0959,-9.1179,-9.1216,-9.1436,-9.1473,-9.1473,-9.1253,-9.1179,-9.1216,-9.1436,-9.1473,-9.1546,-9.173,-9.2229,-9.2802,-9.2997,-9.3819,-9.4882,-9.5591,-9.6353,-9.705,-9.7662,-9.8464,-9.9075,-9.9075,-9.9534,-9.9992,-10.0298,-10.0298,-10.0413,-10.0604,-10.0604,-10.0604,-10.0604,-10.0604,-10.0489,-10.0298,-10.0298,-10.0413,-10.0604,-10.0604,-10.0604,-10.0604,-10.0604,-10.0604,-10.0604,-10.0604,-10.0604,-10.0604,-10.0604,-10.0604,-10.0604,-10.0604,-10.0604,-10.0604,-10.0604,-10.0604,-10.0604,-10.0604,-10.0604,-8.0658,-8.1128,-8.1128,-8.1128,-8.1128,-8.102,-8.0658,-8.0223,-7.9897,-7.9897,-7.9897,-8.0223,-8.1273,-8.2577,0.0,0.0,0.0,0.0,-8.5909,-8.5909,-8.5948,0.0,-8.6062,0.0,-8.6356,-8.621,-8.621,0.0,-8.632,-8.6501,-8.6715,-8.6786,-8.6856,-8.6856,-8.6925,-8.6995,-8.6995,-8.6995,-8.7178,-8.7545,-8.7545,-8.7949,-8.872,-8.872,-8.8977,-8.9454,0.0,-8.9931,-9.0005,-9.0812,-9.1143,-9.1179,-9.162,-9.1803,-9.1803,-9.1803,-9.1803,-9.1803,-9.1803,-9.1803,-9.1803,-9.1803,-9.1803,-9.1803,-9.1803,-9.2055,-9.251,-9.3115,-9.38,-9.4707,-9.6036,-9.6971,-9.7763,-9.8495,-9.9305,-9.9916,-9.9916,-10.0298,-10.0604,-10.0604,-10.0604,-10.0604,-10.0604,-10.0604,-10.0604,-10.0604,-10.0604,-10.0604,-10.0604,-10.0604,-10.0604,-10.0604,-10.0604,-10.0604,-10.0604,-10.0604,-10.0604,-10.0604,-10.0604,-10.0604,-10.0604,-10.0604,-10.0604,-10.0604,-10.0604,-10.0604,-10.0604,-10.0604,-10.0604,-10.0604,-10.0604,-10.0604,-8.073,-8.1128,-8.1128,-8.1128,-8.1128,-8.0911,-8.0078,-7.9825,-7.9716,-7.9607,-7.9499,-8.0114,-8.2432,-8.2867,-8.3374,-8.5004,0.0,-8.533,-8.5547,-8.5583,-8.5656,-8.5948,-8.5909,-8.5909,-8.5948,-8.5909,-8.5948,-8.6026,-8.6283,-8.6356,-8.6429,-8.6573,-8.6608,-8.6608,-8.6856,-8.6925,-8.6925,-8.7105,-8.7509,-8.8206,-8.8316,-8.8793,-8.9564,-8.9564,-8.9638,-8.9784,0.0,0.0,-9.0812,-9.151,-9.1803,-9.1803,-9.1803,-9.1803,-9.1803,-9.1913,-9.195,-9.1987,-9.2097,-9.2134,-9.2097,-9.2024,-9.195,-9.1987,-9.2097,-9.2134,-9.2389,-9.3689,-9.411,-9.4589,-9.6592,-9.7772,-9.8576,-9.9355,-10.0107,-10.0604,-10.0604,-10.0604,-10.0604,-10.0604,-10.0604,-10.0604,-10.0604,-10.0604,-10.0604,-10.0604,-10.0604,-10.0604,-10.0604,-10.0604,-10.0604,-10.0604,-10.0604,-10.0604,-10.0604,-10.0604,-10.0604,-10.0604,-10.0604,-10.0604,-10.0604,-10.0604,-10.0604,-10.0604,-10.0604,-10.0604,-10.0604,-10.0604,-10.0604,-10.0604,-10.0604,-10.0604,-8.102,-8.1128,-8.1128,-8.1128,-8.1128,-8.0911,-8.0078,-7.939,-7.8738,-7.805,-7.7398,-7.747,-7.9209,-7.9535,-8.0078,-8.1672,0.0,0.0,0.0,0.0,-8.4462,0.0,-8.5948,-8.5948,-8.6026,-8.5948,0.0,0.0,0.0,0.0,-8.6429,-8.6392,-8.6465,-8.6465,-8.6644,-8.6786,-8.6786,-8.7586,-8.8059,-8.8206,-8.8867,-8.9638,-9.0408,-9.0408,-9.0739,-9.14,0.0,0.0,-9.1583,-9.173,-9.1803,-9.1803,-9.1803,-9.1803,-9.1877,-9.2611,-9.2868,-9.2978,-9.3639,-9.3859,-9.3749,-9.3088,-9.2868,-9.3015,-9.3639,-9.3859,-9.3896,-9.4154,-9.4622,-9.538,-9.7027,-9.7894,-9.8728,-10.008,-10.0489,-10.0604,-10.0604,-10.0604,-10.0604,-10.0604,-10.0604,-10.0604,-10.0604,-10.0604,-10.0604,-10.0604,-10.0604,-10.0604,-10.0604,-10.0604,-10.0604,-10.0604,-10.0604,-10.0604,-10.0604,-10.0604,-10.0604,-10.0604,-10.0604,-10.0604,-10.0604,-10.0604,-10.0604,-10.0604,-10.0604,-10.0604,-10.0604,-10.0604,-10.0604,-10.0604,-10.0604,-10.0604,-8.0078,-8.0476,-8.1128,-8.1128,-8.1128,-8.0802,-7.9571,-7.8992,-7.834,-7.7108,-7.6565,-7.6782,-7.8412,-7.8702,0.0,-8.0839,0.0,0.0,0.0,-8.4207,0.0,-8.5915,-8.5948,-8.5948,-8.5987,-8.5948,0.0,0.0,0.0,0.0,0.0,-8.621,-8.6429,-8.7012,-8.7194,-8.752,-8.7923,-8.8397,-8.8871,-8.9311,-8.9569,-9.0154,-9.0923,-9.0997,-9.129,-9.1657,-9.173,0.0,-9.1803,-9.1803,-9.1803,-9.184,-9.2281,-9.2464,-9.2574,-9.3418,-9.3712,-9.3786,-9.4153,-9.4299,-9.4299,-9.4336,-9.4079,-9.3786,-9.4189,-9.4299,-9.4448,-9.5219,-9.5647,-9.6303,-9.8132,-9.8857,-9.935,-10.0385,-10.0604,-10.0604,-10.0604,-10.0604,-10.0604,-10.0604,-10.0604,-10.0604,-10.0604,-10.0604,-10.0604,-10.0604,-10.0604,-10.0604,-10.0604,-10.0604,-10.0604,-10.0604,-10.0604,-10.0604,-10.0604,-10.0604,-10.0604,-10.0604,-10.0604,-10.0604,-10.0604,-10.0604,-10.0604,-10.0604,-10.0604,-10.0604,-10.0604,-10.0604,-10.0604,-10.0604,-10.0604,-10.0604,-7.9462,-8.0151,-8.1128,-8.1128,-8.1128,-8.0694,-7.9064,-7.8702,-7.8231,-7.6637,-7.6275,-7.6782,-7.8412,-7.8412,-7.8702,0.0,-8.1346,-8.2179,-8.2867,-8.4062,-8.5112,0.0,-8.5909,0.0,-8.5909,-8.5909,0.0,0.0,0.0,0.0,0.0,-8.6241,-8.6718,-8.7703,-8.7961,-8.8326,-8.8947,-8.9203,-8.9605,-9.0227,-9.026,-9.0586,-9.1282,-9.1433,-9.1508,-9.1583,-9.173,0.0,0.0,-9.1803,-9.1913,-9.2134,-9.2831,-9.3198,-9.3455,-9.4263,-9.4556,-9.4593,-9.474,-9.4813,-9.4923,-9.5547,-9.5217,-9.4593,-9.474,-9.4813,-9.5073,-9.6209,-9.6602,-9.7189,-9.9007,-9.9573,-9.9843,-10.0462,-10.0604,-10.0604,-10.0604,-10.0604,-10.0604,-10.0604,-10.0604,-10.0604,-10.0604,-10.0604,-10.0604,-10.0604,-10.0604,-10.0604,-10.0604,-10.0604,-10.0604,-10.0604,-10.0604,-10.0604,-10.0604,-10.0604,-10.0604,-10.0604,-10.0604,-10.0604,-10.0604,-10.0604,-10.0604,-10.0604,-10.0604,-10.0604,-10.0604,-10.0604,-10.0604,-10.0604,-10.0604,-10.0604,-8.0513,-8.0984,-8.1128,-8.1128,-8.1128,-8.0694,-7.9064,-7.8702,-7.8231,-7.6637,-7.6275,-7.6782,-7.8412,-7.7507,-7.7036,-7.8666,-7.7833,-7.7977,-8.0911,-8.1454,-8.265,-8.5547,0.0,0.0,-8.5909,0.0,0.0,0.0,0.0,0.0,0.0,-8.6923,-8.7285,-8.8082,-8.835,-8.8502,-8.8574,-8.9454,-8.993,-9.0039,-9.0732,-9.1209,-9.1508,-9.1508,-9.1583,-9.1803,0.0,0.0,0.0,-9.1803,-9.2281,-9.2978,-9.3088,-9.3565,-9.4299,-9.5107,-9.5401,-9.5511,-9.6245,-9.6465,-9.6502,-9.6575,-9.6061,-9.5547,-9.6245,-9.6465,-9.6502,-9.6615,-9.7136,-9.78,-9.8555,-9.9254,-9.9843,-10.0462,-10.0604,-10.0604,-10.0604,-10.0604,-10.0604,-10.0604,-10.0604,-10.0604,-10.0604,-10.0604,-10.0604,-10.0604,-10.0604,-10.0604,-10.0604,-10.0604,-10.0604,-10.0604,-10.0604,-10.0604,-10.0604,-10.0604,-10.0604,-10.0604,-10.0604,-10.0604,-10.0604,-10.0604,-10.0604,-10.0604,-10.0604,-10.0604,-10.0604,-10.0604,-10.0604,-10.0604,-10.0604,-10.0604,-7.8303,-7.9643,-8.1128,-8.1128,-8.1128,-8.0694,-7.9064,-7.8702,-7.8231,-7.6637,-7.6275,-7.6492,-7.7144,-7.671,-7.6492,-7.7144,-7.7543,-7.8521,-8.0802,-8.1925,-8.3374,-8.5619,-8.5909,0.0,0.0,0.0,0.0,0.0,0.0,0.0,0.0,0.0,-8.8118,-8.8915,-8.9149,-8.9443,-8.9952,-9.0357,-9.0579,-9.0502,-9.0752,-9.0897,-9.0975,-9.1053,-9.1206,-9.1282,0.0,0.0,0.0,-9.173,-9.2317,-9.3161,-9.3639,-9.4299,-9.5144,-9.5951,-9.6208,-9.6282,-9.6575,-9.6685,-9.6685,-9.6685,-9.6502,-9.6282,-9.6612,-9.6685,-9.6877,-9.7706,-9.8076,-9.8555,-9.959,-9.9961,-10.0326,-10.0519,-10.0604,-10.0604,-10.0604,-10.0604,-10.0604,-10.0604,-10.0604,-10.0604,-10.0604,-10.0604,-10.0604,-10.0604,-10.0604,-10.0604,-10.0604,-10.0604,-10.0604,-10.0604,-10.0604,-10.0604,-10.0604,-10.0604,-10.0604,-10.0604,-10.0604,-10.0604,-10.0604,-10.0604,-10.0604,-10.0604,-10.0604,-10.0604,-10.0604,-10.0604,-10.0604,-10.0604,-10.0604,-10.0604,-7.7072,-7.8666,-8.0513,-8.0984,-8.0766,-8.0042,-7.8666,-7.8159,-7.7615,-7.6239,-7.613,-7.6275,-7.6275,-7.6275,-7.6275,-7.6275,-7.7253,-7.8738,-8.0802,-8.207,-8.3374,0.0,0.0,0.0,0.0,0.0,0.0,0.0,0.0,0.0,0.0,0.0,-8.9169,-8.9748,-8.9906,-9.0238,-9.0819,-9.0819,-9.0819,-9.0819,-9.0661,-9.0581,-9.0661,-9.0819,-9.0897,-9.0975,0.0,0.0,0.0,-9.2024,-9.2684,-9.3529,-9.4336,-9.5144,-9.5914,-9.6502,-9.6685,-9.6685,-9.6685,-9.6685,-9.6685,-9.6685,-9.6685,-9.6685,-9.6685,-9.6685,-9.6877,-9.7806,-9.8402,-9.8982,-10.0277,-10.0604,-10.0604,-10.0604,-10.0604,-10.0604,-10.0604,-10.0604,-10.0604,-10.0604,-10.0604,-10.0604,-10.0604,-10.0604,-10.0604,-10.0604,-10.0604,-10.0604,-10.0604,-10.0604,-10.0604,-10.0604,-10.0604,-10.0604,-10.0604,-10.0604,-10.0604,-10.0604,-10.0604,-10.0604,-10.0604,-10.0604,-10.0604,-10.0604,-10.0604,-10.0604,-10.0604,-10.0604,-10.0604,-10.0604,-10.0604,-10.0604,-7.7796,-7.8702,-7.91,-8.0694,-7.9897,-7.8521,-7.7688,-7.6891,-7.6094,-7.5297,-7.5768,-7.6275,-7.6275,-7.6275,-7.6275,-7.6275,-7.6311,-7.7434,-8.0658,-8.1128,0.0,0.0,0.0,0.0,0.0,0.0,0.0,0.0,0.0,0.0,0.0,0.0,-9.0581,-9.0581,-9.0581,-9.0581,-9.0581,-9.0581,-9.0581,-9.0581,-9.0581,-9.0661,-9.0897,-9.0897,-9.0975,0.0,0.0,0.0,0.0,-9.2647,-9.3565,-9.4373,-9.518,-9.5988,-9.6685,-9.6685,-9.6685,-9.6685,-9.6685,-9.6685,-9.6685,-9.6685,-9.6685,-9.6685,-9.6685,-9.6685,-9.6685,-9.6685,-9.7706,-9.8982,-10.0277,-10.0604,-10.0604,-10.0604,-10.0604,-10.0604,-10.0604,-10.0604,-10.0604,-10.0604,-10.0604,-10.0604,-10.0604,-10.0604,-10.0604,-10.0604,-10.0604,-10.0604,-10.0604,-10.0604,-10.0604,-10.0604,-10.0604,-10.0604,-10.0604,-10.0604,-10.0604,-10.0604,-10.0604,-10.0604,-10.0604,-10.0604,-10.0604,-10.0604,-10.0604,-10.0604,-10.0604,-10.0604,-10.0604,-10.0604,-10.0604,-10.0604,-7.5152,-7.6239,-7.7181,-7.7688,-7.7434,-7.6855,-7.6058,-7.5659,-7.5406,-7.5152,-7.5334,-7.5659,-7.6203,-7.6275,-7.6275,-7.6275,-7.6275,-7.7434,-8.0658,0.0,0.0,0.0,0.0,0.0,0.0,0.0,0.0,0.0,0.0,0.0,0.0,0.0,-9.0581,-9.0581,-9.0581,-9.0581,-9.0581,-9.0581,-9.0581,-9.0581,-9.0581,-9.0581,-9.0661,-9.0661,0.0,0.0,0.0,0.0,0.0,-9.2158,-9.3152,-9.3919,-9.476,-9.5643,-9.6453,-9.6453,-9.6608,-9.6685,-9.6685,-9.6685,-9.6685,-9.6685,-9.6685,-9.6685,-9.6685,-9.6685,-9.6838,-9.7247,-9.8365,-9.948,-9.9843,-10.0326,-10.0604,-10.0604,-10.0604,-10.0604,-10.0604,-10.0604,-10.0604,-10.0604,-10.0604,-10.0604,-10.0604,-10.0604,-10.0604,-10.0604,-10.0604,-10.0604,-10.0604,-10.0604,-10.0604,-10.0604,-10.0604,-10.0604,-10.0604,-10.0604,-10.0604,-10.0604,-10.0604,-10.0604,-10.0604,-10.0604,-10.0604,-10.0604,-10.0604,-10.0604,-10.0604,-10.0604,-10.0604,-10.0604,-10.0604,-10.0604,-7.374,-7.4645,-7.5551,-7.613,-7.5841,-7.5261,-7.479,-7.4428,-7.4211,-7.4211,-7.4464,-7.4899,-7.5696,-7.5841,-7.6167,-7.7072,-7.671,-7.7434,-8.0658,0.0,0.0,0.0,0.0,0.0,0.0,0.0,0.0,0.0,0.0,0.0,0.0,0.0,-9.0581,-9.0581,-9.0581,-9.0581,-9.0581,-9.0581,-9.0581,-9.0581,-9.0581,-9.0581,-9.0581,-9.0581,0.0,0.0,0.0,0.0,0.0,-9.2332,-9.3139,-9.3686,-9.4932,-9.5857,-9.6375,-9.6453,-9.6608,-9.6685,-9.6685,-9.6685,-9.6685,-9.6685,-9.6685,-9.6685,-9.6685,-9.6685,-9.6838,-9.7496,-9.8492,-9.9368,-9.9628,-10.0101,-10.0604,-10.0604,-10.0604,-10.0604,-10.0604,-10.0604,-10.0604,-10.0604,-10.0604,-10.0604,-10.0604,-10.0604,-10.0604,-10.0604,-10.0604,-10.0604,-10.0604,-10.0604,-10.0604,-10.0604,-10.0604,-10.0604,-10.0604,-10.0604,-10.0604,-10.0604,-10.0604,-10.0604,-10.0604,-10.0604,-10.0604,-10.0604,-10.0604,-10.0604,-10.0604,-10.0604,-10.0604,-10.0604,-10.0604,-10.0604,0.0,-7.374,-7.4102,-7.5587,-7.4826,-7.374,-7.374,-7.316,0.0,-7.269,-7.3305,-7.4066,-7.4899,-7.5152,-7.5985,-7.8122,-7.7326,-7.7507,-8.0513,0.0,0.0,0.0,0.0,0.0,0.0,0.0,0.0,0.0,0.0,0.0,0.0,0.0,0.0,-9.0581,-9.0581,-9.0581,-9.0581,-9.0581,-9.0581,-9.0581,-9.0581,-9.0581,-9.0581,-9.0581,0.0,0.0,0.0,0.0,0.0,-9.2764,-9.3613,-9.3759,-9.5559,-9.6296,-9.6375,-9.6531,-9.6608,-9.6608,-9.6608,-9.6685,-9.6685,-9.6722,-9.6685,-9.6685,-9.6685,-9.6685,-9.6838,-9.7425,-9.8142,-9.8802,-9.9424,-10.0088,-10.0604,-10.0604,-10.0604,-10.0604,-10.0604,-10.0604,-10.0604,-10.0604,-10.0604,-10.0604,-10.0604,-10.0604,-10.0604,-10.0604,-10.0604,-10.0604,-10.0604,-10.0604,-10.0604,-10.0604,-10.0604,-10.0604,-10.0604,-10.0604,-10.0604,-10.0604,-10.0604,-10.0604,-10.0604,-10.0604,-10.0604,-10.0604,-10.0604,-10.0604,-10.0604,-10.0604,-10.0604,-10.0604,-10.0604,-10.0604,0.0,0.0,-7.2146,-7.2545,-7.2327,-7.2074,0.0,-7.1929,-7.1965,-7.2581,0.0,-7.3233,-7.403,-7.5696,-7.671,-7.6058,-7.7181,-7.8412,-7.9173,0.0,0.0,0.0,0.0,0.0,0.0,0.0,0.0,0.0,0.0,0.0,0.0,0.0,0.0,-9.0581,-9.0581,-9.0581,-9.0581,-9.0581,-9.0581,-9.0581,-9.0581,-9.0581,-9.0581,-9.0581,0.0,0.0,0.0,0.0,-9.0806,-9.2482,-9.3171,-9.3316,-9.4995,-9.5731,-9.5858,-9.5939,-9.602,-9.618,-9.618,-9.6296,-9.6453,-9.6608,-9.6685,-9.6685,-9.6685,-9.6685,-9.6685,-9.6877,-9.7775,-9.8778,-9.8862,-9.9752,-10.0604,-10.0604,-10.0604,-10.0604,-10.0604,-10.0604,-10.0604,-10.0604,-10.0604,-10.0604,-10.0604,-10.0604,-10.0604,-10.0604,-10.0604,-10.0604,-10.0604,-10.0604,-10.0604,-10.0604,-10.0604,-10.0604,-10.0604,-10.0604,-10.0604,-10.0604,-10.0604,-10.0604,-10.0604,-10.0604,-10.0604,-10.0604,-10.0604,-10.0604,-10.0604,-10.0604,-10.0604,-10.0604,-10.0604,-10.0604,0.0,-7.1494,-7.1494,-7.1494,-7.1494,-7.1494,-7.1494,-7.1494,-7.1639,-7.2074,0.0,-7.24,-7.3197,-7.4428,-7.5732,-7.7108,-7.7796,0.0,0.0,0.0,0.0,0.0,0.0,0.0,0.0,0.0,0.0,0.0,0.0,0.0,0.0,0.0,0.0,0.0,-9.0581,-9.0581,-9.0581,-9.0581,-9.0581,-9.0581,-9.0581,-9.0581,-9.0581,-9.0581,0.0,0.0,0.0,0.0,-9.069,-9.1958,-9.2682,-9.3117,-9.4431,-9.5285,-9.5695,-9.5777,-9.5939,-9.602,-9.602,-9.6216,-9.6453,-9.6608,-9.6685,-9.6685,-9.6685,-9.6685,-9.6685,-9.6685,-9.7636,-9.8717,-9.8717,-9.9645,-10.0604,-10.0604,-10.0604,-10.0604,-10.0604,-10.0604,-10.0604,-10.0604,-10.0604,-10.0604,-10.0604,-10.0604,-10.0604,-10.0604,-10.0604,-10.0604,-10.0604,-10.0604,-10.0604,-10.0604,-10.0604,-10.0604,-10.0604,-10.0604,-10.0604,-10.0604,-10.0604,-10.0604,-10.0604,-10.0604,-10.0604,-10.0604,-10.0604,-10.0604,-10.0604,-10.0604,-10.0604,-10.0604,-10.0604,-10.0604,-7.1006,-7.1359,-7.1567,-7.182,-7.1675,-7.1567,-7.182,-7.1675,-7.1494,-7.1494,0.0,-7.2074,-7.2762,-7.3414,0.0,0.0,0.0,0.0,0.0,0.0,0.0,0.0,0.0,0.0,0.0,0.0,0.0,0.0,0.0,0.0,0.0,0.0,0.0,0.0,-9.0581,-9.0581,-9.0581,-9.0581,-9.0581,-9.0581,-9.0581,-9.0581,-9.0581,-9.0581,-9.0581,0.0,0.0,0.0,-9.0654,-9.1487,-9.2284,-9.308,-9.4123,-9.4922,-9.5695,-9.5858,-9.5939,-9.5939,-9.5939,-9.61,-9.6375,-9.6608,-9.6608,-9.6608,-9.6685,-9.6608,-9.6608,-9.6685,-9.7636,-9.8717,-9.8717,-9.9645,-10.0604,-10.0604,-10.0604,-10.0604,-10.0604,-10.0604,-10.0604,-10.0604,-10.0604,-10.0604,-10.0604,-10.0604,-10.0604,-10.0604,-10.0604,-10.0604,-10.0604,-10.0604,-10.0604,-10.0604,-10.0604,-10.0604,-10.0604,-10.0604,-10.0604,-10.0604,-10.0604,-10.0604,-10.0604,-10.0604,-10.0604,-10.0604,-10.0604,-10.0604,-10.0604,-10.0604,-10.0604,-10.0604,-10.0604,-10.0604,-6.9806,-7.0505,-7.182,-7.3197,-7.2509,-7.1857,-7.3233,-7.2472,-7.1494,-7.1494,0.0,0.0,0.0,0.0,0.0,0.0,0.0,0.0,0.0,0.0,0.0,0.0,0.0,0.0,0.0,0.0,0.0,0.0,0.0,0.0,0.0,0.0,0.0,0.0,0.0,-9.0581,-9.0581,-9.0581,-9.0581,-9.0581,-9.0581,-9.0581,-9.0581,-9.0581,-9.0581,0.0,0.0,-9.0581,-9.0654,-9.1487,-9.2284,-9.308,-9.3877,-9.4757,-9.5482,-9.5446,-9.5446,-9.5566,-9.5695,-9.5858,-9.61,-9.6375,-9.6453,-9.6453,-9.6608,-9.6453,-9.618,-9.6608,-9.7636,-9.8717,-9.8717,-9.9645,-10.0604,-10.0604,-10.0604,-10.0604,-10.0604,-10.0604,-10.0604,-10.0604,-10.0604,-10.0604,-10.0604,-10.0604,-10.0604,-10.0604,-10.0604,-10.0604,-10.0604,-10.0604,-10.0604,-10.0604,-10.0604,-10.0604,-10.0604,-10.0604,-10.0604,-10.0604,-10.0604,-10.0604,-10.0604,-10.0604,-10.0604,-10.0604,-10.0604,-10.0604,-10.0604,-10.0604,-10.0604,-10.0604,-10.0604,-10.0604,-6.8747,-7.0069,-7.201,-7.4032,-7.3694,-7.3016,-7.374,-7.3993,-7.3595,-7.1857,0.0,0.0,0.0,0.0,0.0,0.0,0.0,0.0,0.0,0.0,0.0,0.0,0.0,0.0,0.0,0.0,0.0,0.0,0.0,0.0,0.0,0.0,0.0,0.0,0.0,0.0,-9.0581,-9.0581,-9.0581,-9.0581,-9.0581,-9.0581,-9.0581,-9.0581,-9.0581,-9.0581,0.0,-9.0581,-9.0618,-9.1016,-9.1885,-9.3044,-9.3406,-9.4312,-9.5398,-9.5398,-9.5398,-9.5482,-9.5612,-9.5777,-9.5858,-9.61,-9.618,-9.618,-9.6259,-9.618,-9.602,-9.6259,-9.7137,-9.8105,-9.8555,-9.9424,-10.0189,-10.0519,-10.0604,-10.0604,-10.0604,-10.0604,-10.0604,-10.0604,-10.0604,-10.0604,-10.0604,-10.0604,-10.0604,-10.0604,-10.0604,-10.0604,-10.0604,-10.0604,-10.0604,-10.0604,-10.0604,-10.0604,-10.0604,-10.0604,-10.0604,-10.0604,-10.0604,-10.0604,-10.0604,-10.0604,-10.0604,-10.0604,-10.0604,-10.0604,-10.0604,-10.0604,-10.0604,-10.0604,-10.0604,-10.0604,-6.7725,-6.9598,-7.2227,-7.4047,-7.4216,-7.4102,-7.4863,-7.5696,-7.5587,-7.3124,0.0,0.0,0.0,0.0,0.0,0.0,0.0,0.0,0.0,0.0,0.0,0.0,0.0,0.0,0.0,0.0,0.0,0.0,0.0,0.0,0.0,0.0,0.0,0.0,0.0,0.0,-9.0581,-9.0581,-9.0581,-9.0581,-9.0581,-9.0581,-9.0581,-9.0581,-9.0581,-9.0581,-9.0581,-9.0581,-9.0581,-9.0581,-9.1451,-9.2754,-9.2935,-9.3986,-9.5398,-9.5398,-9.5398,-9.5398,-9.5529,-9.5612,-9.5695,-9.5858,-9.5939,-9.5939,-9.602,-9.5939,-9.5858,-9.602,-9.6575,-9.7317,-9.8327,-9.9158,-9.9843,-10.0462,-10.0604,-10.0604,-10.0604,-10.0604,-10.0604,-10.0604,-10.0604,-10.0604,-10.0604,-10.0604,-10.0604,-10.0604,-10.0604,-10.0604,-10.0604,-10.0604,-10.0604,-10.0604,-10.0604,-10.0604,-10.0604,-10.0604,-10.0604,-10.0604,-10.0604,-10.0604,-10.0604,-10.0604,-10.0604,-10.0604,-10.0604,-10.0604,-10.0604,-10.0604,-10.0604,-10.0604,-10.0604,-10.0604,-6.6491,-6.9168,-7.2584,-7.2869,-7.3424,-7.4682,-7.7688,-7.7289,-7.6203,-7.5985,-7.7217,0.0,0.0,0.0,0.0,0.0,0.0,0.0,0.0,0.0,0.0,0.0,0.0,0.0,0.0,0.0,0.0,0.0,0.0,0.0,0.0,0.0,0.0,0.0,0.0,0.0,-9.0581,-9.0581,-9.0581,-9.0581,-9.0581,-9.0581,-9.0581,-9.0581,-9.0581,-9.0581,-9.0581,-9.0581,-9.0581,-9.0581,-9.1125,-9.1958,-9.2718,-9.3986,-9.5398,-9.5398,-9.5398,-9.5398,-9.5398,-9.5529,-9.5695,-9.5695,-9.5695,-9.5777,-9.5939,-9.5695,-9.5529,-9.6216,-9.6259,-9.6462,-9.7927,-9.9004,-9.9843,-10.0462,-10.0604,-10.0604,-10.0604,-10.0604,-10.0604,-10.0604,-10.0604,-10.0604,-10.0604,-10.0604,-10.0604,-10.0604,-10.0604,-10.0604,-10.0604,-10.0604,-10.0604,-10.0604,-10.0604,-10.0604,-10.0604,-10.0604,-10.0604,-10.0604,-10.0604,-10.0604,-10.0604,-10.0604,-10.0604,-10.0604,-10.0604,-10.0604,-10.0604,-10.0604,-10.0604,-10.0604,-10.0604,-10.0604,-6.5265,-6.8409,-7.2086,-7.257,-7.4082,-7.5696,-7.6927,-7.8303,-7.8738,-7.671,-7.7579,0.0,0.0,0.0,0.0,0.0,0.0,0.0,0.0,0.0,0.0,0.0,0.0,0.0,0.0,0.0,0.0,0.0,0.0,0.0,0.0,0.0,0.0,0.0,0.0,0.0,0.0,-9.0581,-9.0581,-9.0581,-9.0581,-9.0581,-9.0581,-9.0581,-9.0581,-9.0581,-9.0581,-9.0581,-9.0581,-9.0581,-9.1088,-9.1921,-9.3261,-9.442,-9.5398,-9.5398,-9.5398,-9.5398,-9.5398,-9.5482,-9.5529,-9.5529,-9.5529,-9.5529,-9.5612,-9.5529,-9.5482,-9.5731,-9.5777,-9.6107,-9.7525,-9.8492,-9.9254,-9.9896,-10.0288,-10.0604,-10.0604,-10.0604,-10.0604,-10.0604,-10.0604,-10.0604,-10.0604,-10.0604,-10.0604,-10.0604,-10.0604,-10.0604,-10.0604,-10.0604,-10.0604,-10.0604,-10.0604,-10.0604,-10.0604,-10.0604,-10.0604,-10.0604,-10.0604,-10.0604,-10.0604,-10.0604,-10.0604,-10.0604,-10.0604,-10.0604,-10.0604,-10.0604,-10.0604,-10.0604,-10.0604,-10.0604,-6.4742,-6.8146,-7.1995,-7.2231,-7.4492,-7.6725,-7.6968,-7.8376,-7.91,-7.7398,-7.834,-7.9318,-7.8774,0.0,0.0,0.0,0.0,0.0,0.0,0.0,0.0,0.0,0.0,0.0,0.0,0.0,0.0,0.0,0.0,0.0,0.0,0.0,0.0,0.0,0.0,0.0,0.0,-9.0581,-9.0581,-9.0581,-9.0581,-9.0581,-9.0581,-9.0581,-9.0581,-9.0581,-9.0581,-9.0581,-9.0581,-9.0581,-9.1233,-9.2284,-9.3406,-9.4457,-9.5398,-9.5398,-9.5398,-9.5398,-9.5398,-9.5398,-9.5398,-9.5398,-9.5398,-9.5398,-9.5398,-9.5398,-9.5362,-9.5482,-9.5612,-9.5903,-9.6916,-9.7701,-9.8492,-9.9386,-9.9948,-10.0413,-10.0595,-10.0604,-10.0604,-10.0604,-10.0604,-10.0604,-10.0604,-10.0604,-10.0604,-10.0604,-10.0604,-10.0604,-10.0604,-10.0604,-10.0604,-10.0604,-10.0604,-10.0604,-10.0604,-10.0604,-10.0604,-10.0604,-10.0604,-10.0604,-10.0604,-10.0604,-10.0604,-10.0604,-10.0604,-10.0604,-10.0604,-10.0604,-10.0604,-10.0604,-10.0604,-10.0604,-6.5019,-6.85,-7.2354,-7.1785,-7.4563,-7.7661,-7.8456,-7.747,-7.6746,-7.834,-7.9969,-8.0621,-7.8992,0.0,0.0,0.0,0.0,0.0,0.0,0.0,0.0,0.0,0.0,0.0,0.0,0.0,0.0,0.0,0.0,0.0,0.0,0.0,0.0,0.0,0.0,0.0,0.0,-9.0581,-9.0581,-9.0581,-9.0581,-9.0581,-9.0581,-9.0581,-9.0581,-9.0581,-9.0581,-9.0581,-9.0581,-9.0581,-9.1559,-9.3008,-9.3008,-9.3986,-9.5398,-9.5398,-9.5398,-9.5398,-9.5398,-9.5398,-9.5398,-9.5398,-9.5398,-9.5398,-9.5398,-9.5398,-9.5482,-9.5612,-9.5695,-9.5777,-9.5939,-9.6728,-9.7701,-9.8966,-9.9497,-9.9843,-10.051,-10.0604,-10.0604,-10.0604,-10.0604,-10.0604,-10.0604,-10.0604,-10.0604,-10.0604,-10.0604,-10.0604,-10.0604,-10.0604,-10.0604,-10.0604,-10.0604,-10.0604,-10.0604,-10.0604,-10.0604,-10.0604,-10.0604,-10.0604,-10.0604,-10.0604,-10.0604,-10.0604,-10.0604,-10.0604,-10.0604,-10.0604,-10.0604,-10.0604,-10.0604,-10.0604,-6.732,-7.0574,0.0,0.0,0.0,0.0,0.0,-7.7918,-7.7796,0.0,-7.9209,-8.0621,-7.8992,0.0,0.0,0.0,0.0,0.0,0.0,0.0,0.0,0.0,0.0,0.0,0.0,0.0,0.0,0.0,0.0,0.0,0.0,0.0,0.0,0.0,0.0,0.0,0.0,0.0,-9.0581,-9.0581,-9.0581,-9.0581,-9.0581,-9.0581,-9.0581,-9.0581,-9.0581,-9.0581,-9.0581,-9.0581,-9.1559,-9.3008,-9.3008,-9.3986,-9.5398,-9.5398,-9.5398,-9.5398,-9.5398,-9.5398,-9.5398,-9.5398,-9.5398,-9.5398,-9.5398,-9.5398,-9.5398,-9.5446,-9.5446,-9.5446,-9.5529,-9.5903,-9.6462,-9.7451,-9.8086,-9.875,-9.9514,-9.9714,-9.9872,-10.051,-10.0604,-10.0604,-10.0604,-10.0604,-10.0604,-10.0604,-10.0604,-10.0604,-10.0604,-10.0604,-10.0604,-10.0604,-10.0604,-10.0604,-10.0604,-10.0604,-10.0604,-10.0604,-10.0604,-10.0604,-10.0604,-10.0604,-10.0604,-10.0604,-10.0604,-10.0604,-10.0604,-10.0604,-10.0604,-10.0604,-10.0604,-10.0604,-6.7861,0.0,0.0,0.0,0.0,0.0,0.0,0.0,0.0,0.0,0.0,0.0,0.0,0.0,0.0,0.0,0.0,0.0,0.0,0.0,0.0,0.0,0.0,0.0,0.0,0.0,0.0,0.0,0.0,0.0,0.0,0.0,0.0,0.0,0.0,0.0,0.0,-9.0581,-9.0581,-9.0581,-9.0581,-9.0581,-9.0581,-9.0581,-9.0581,-9.0581,-9.0581,-9.0581,-9.0581,-9.0581,-9.1559,-9.3008,-9.3008,-9.3986,-9.5398,-9.5398,-9.5398,-9.5398,-9.5398,-9.5398,-9.5398,-9.5398,-9.5398,-9.5398,-9.5398,-9.5398,-9.5398,-9.5398,-9.5398,-9.5398,-9.5398,-9.5446,-9.5822,-9.6656,-9.724,-9.7823,-9.8591,-9.8987,-9.9348,-9.9961,-10.0326,-10.051,-10.0604,-10.0604,-10.0604,-10.0604,-10.0604,-10.0604,-10.0604,-10.0604,-10.0604,-10.0604,-10.0604,-10.0604,-10.0604,-10.0604,-10.0604,-10.0604,-10.0604,-10.0604,-10.0604,-10.0604,-10.0604,-10.0604,-10.0604,-10.0604,-10.0604,-10.0604,-10.0604,-10.0604,-10.0604,-10.0604,0.0,0.0,0.0,0.0,0.0,0.0,0.0,0.0,0.0,0.0,0.0,0.0,0.0,0.0,0.0,0.0,0.0,0.0,0.0,0.0,0.0,0.0,0.0,0.0,0.0,0.0,0.0,0.0,0.0,0.0,0.0,0.0,0.0,0.0,0.0,0.0,0.0,-9.0581,-9.0581,0.0,-9.0581,-9.0581,-9.0581,-9.0581,-9.0581,-9.0581,-9.0581,-9.0581,-9.0581,-9.0581,-9.1559,-9.3008,-9.3008,-9.3986,-9.5398,-9.5398,-9.5398,-9.5398,-9.5398,-9.5398,-9.5398,-9.5398,-9.5398,-9.5398,-9.5398,-9.5398,-9.5398,-9.5398,-9.5398,-9.5398,-9.5398,-9.5398,-9.5576,-9.6388,-9.6731,-9.7062,-9.7756,-9.8316,-9.8787,-9.9198,-9.9752,-10.0227,-10.0471,-10.0604,-10.0604,-10.0604,-10.0604,-10.0604,-10.0604,-10.0604,-10.0604,-10.0604,-10.0604,-10.0604,-10.0604,-10.0604,-10.0604,-10.0604,-10.0604,-10.0604,-10.0604,-10.0604,-10.0604,-10.0604,-10.0604,-10.0604,-10.0604,-10.0604,-10.0604,-10.0604,-10.0604,-10.0604,0.0,0.0,0.0,0.0,0.0,0.0,0.0,0.0,0.0,0.0,0.0,0.0,0.0,0.0,0.0,0.0,0.0,0.0,0.0,0.0,0.0,0.0,0.0,0.0,0.0,0.0,0.0,0.0,0.0,0.0,0.0,0.0,0.0,0.0,0.0,0.0,-9.0581,-9.0581,-9.0581,0.0,-9.0581,-9.0581,-9.0581,-9.0581,-9.0581,-9.0581,-9.0581,-9.0581,-9.0581,-9.0581,-9.1559,-9.3008,-9.3008,-9.3986,-9.5398,-9.5398,-9.5398,-9.5398,-9.5398,-9.5398,-9.5398,-9.5398,-9.5398,-9.5398,-9.5398,-9.5398,-9.5398,-9.5398,-9.5398,-9.5398,-9.5398,-9.5398,-9.5446,-9.5658,-9.574,-9.5991,-9.6769,-9.7062,-9.752,-9.8727,-9.9292,-9.9661,-10.0227,-10.05,-10.0604,-10.0604,-10.0604,-10.0604,-10.0604,-10.0604,-10.0604,-10.0604,-10.0604,-10.0604,-10.0604,-10.0604,-10.0604,-10.0604,-10.0604,-10.0604,-10.0604,-10.0604,-10.0604,-10.0604,-10.0604,-10.0604,-10.0604,-10.0604,-10.0604,-10.0604,-10.0604,-10.0604,0.0,0.0,0.0,0.0,0.0,0.0,0.0,0.0,0.0,0.0,0.0,0.0,0.0,0.0,0.0,0.0,0.0,0.0,0.0,0.0,0.0,0.0,0.0,0.0,0.0,0.0,0.0,0.0,0.0,0.0,0.0,0.0,0.0,0.0,0.0,0.0,-9.0581,-9.0581,-9.0581,-9.0581,-9.0581,-9.0581,-9.0581,-9.0581,-9.0581,-9.0581,-9.0581,-9.0581,-9.0581,-9.0581,-9.1559,-9.3008,-9.3008,-9.3986,-9.5398,-9.5398,-9.5398,-9.5398,-9.5398,-9.5398,-9.5398,-9.5398,-9.5398,-9.5398,-9.5398,-9.5398,-9.5398,-9.5398,-9.5398,-9.5398,-9.5398,-9.5398,-9.5398,-9.5398,-9.5398,-9.5529,-9.5991,-9.627,-9.6768,-9.7658,-9.8417,-9.9041,-9.948,-9.9999,-10.05,-10.0604,-10.0604,-10.0604,-10.0604,-10.0604,-10.0604,-10.0604,-10.0604,-10.0604,-10.0604,-10.0604,-10.0604,-10.0604,-10.0604,-10.0604,-10.0604,-10.0604,-10.0604,-10.0604,-10.0604,-10.0604,-10.0604,-10.0604,-10.0604,-10.0604,-10.0604,-10.0604,0.0,0.0,0.0,0.0,0.0,0.0,0.0,0.0,0.0,0.0,0.0,0.0,0.0,0.0,0.0,0.0,0.0,0.0,0.0,0.0,0.0,0.0,0.0,0.0,0.0,0.0,0.0,0.0,0.0,0.0,0.0,0.0,0.0,0.0,0.0,-9.0581,-9.0581,-9.0581,-9.0581,-9.0581,-9.0581,-9.0581,-9.0581,-9.0581,-9.0581,-9.0581,-9.0581,-9.0581,-9.0581,-9.0581,-9.1559,-9.3008,-9.3008,-9.3986,-9.5398,-9.5398,-9.5398,-9.5398,-9.5398,-9.5398,-9.5398,-9.5398,-9.5398,-9.5398,-9.5398,-9.5398,-9.5398,-9.5398,-9.5398,-9.5398,-9.5398,-9.5398,-9.5398,-9.5398,-9.5398,-9.5398,-9.5398,-9.5777,-9.6265,-9.6541,-9.7632,-9.8592,-9.9041,-9.9736,-10.0315,-10.0595,-10.0604,-10.0604,-10.0604,-10.0604,-10.0604,-10.0604,-10.0604,-10.0604,-10.0604,-10.0604,-10.0604,-10.0604,-10.0604,-10.0604,-10.0604,-10.0604,-10.0604,-10.0604,-10.0604,-10.0604,-10.0604,-10.0604,-10.0604,-10.0604,-10.0604,-10.0604,0.0,0.0,0.0,0.0,0.0,0.0,0.0,0.0,0.0,0.0,0.0,0.0,0.0,0.0,0.0,0.0,0.0,0.0,0.0,0.0,0.0,0.0,0.0,0.0,0.0,0.0,0.0,0.0,0.0,0.0,0.0,0.0,-9.0581,-9.0581,-9.0581,0.0,-9.0581,-9.0581,-9.0581,-9.0581,-9.0581,-9.0581,-9.0581,-9.0581,-9.0581,-9.0581,-9.0581,-9.0581,-9.0581,-9.0581,-9.1559,-9.3008,-9.3008,-9.3986,-9.5398,-9.5398,-9.5398,-9.5398,-9.5398,-9.5398,-9.5398,-9.5398,-9.5398,-9.5398,-9.5398,-9.5398,-9.5398,-9.5398,-9.5398,-9.5398,-9.5398,-9.5398,-9.5398,-9.5398,-9.5398,-9.5398,-9.5398,-9.5446,-9.5695,-9.6265,-9.7529,-9.8816,-9.9881,-10.0088,-10.0315,-10.0595,-10.0604,-10.0604,-10.0604,-10.0604,-10.0604,-10.0604,-10.0604,-10.0604,-10.0604,-10.0604,-10.0604,-10.0604,-10.0604,-10.0604,-10.0604,-10.0604,-10.0604,-10.0604,-10.0604,-10.0604,-10.0604,-10.0604,-10.0604,-10.0604,-10.0604,-10.0604,0.0,0.0,0.0,0.0,0.0,0.0,0.0,0.0,0.0,0.0,0.0,0.0,0.0,0.0,0.0,0.0,0.0,0.0,0.0,0.0,0.0,0.0,0.0,0.0,0.0,0.0,0.0,0.0,0.0,0.0,0.0,-9.0581,-9.0581,-9.0581,-9.0581,0.0,-9.0581,-9.0581,-9.0581,-9.0581,-9.0581,-9.0581,-9.0581,-9.0581,-9.0581,-9.0581,-9.0581,-9.0581,-9.0581,-9.0581,-9.1559,-9.3008,-9.3008,-9.3986,-9.5398,-9.5398,-9.5398,-9.5398,-9.5398,-9.5398,-9.5398,-9.5398,-9.5398,-9.5398,-9.5398,-9.5398,-9.5398,-9.5398,-9.5398,-9.5398,-9.5398,-9.5398,-9.5398,-9.5398,-9.5398,-9.5398,-9.5398,-9.5398,-9.5612,-9.6143,-9.7064,-9.8076,-9.9079,-9.9666,-10.0062,-10.0326,-10.051,-10.0604,-10.0604,-10.0604,-10.0604,-10.0604,-10.0604,-10.0604,-10.0604,-10.0604,-10.0604,-10.0604,-10.0604,-10.0604,-10.0604,-10.0604,-10.0604,-10.0604,-10.0604,-10.0604,-10.0604,-10.0604,-10.0604,-10.0604,-10.0604,-10.0604,0.0,0.0,0.0,0.0,0.0,0.0,0.0,0.0,0.0,0.0,0.0,0.0,0.0,0.0,0.0,0.0,0.0,0.0,0.0,0.0,0.0,0.0,0.0,0.0,0.0,0.0,0.0,0.0,0.0,0.0,-9.0581,-9.0581,-9.0581,-9.0581,-9.0581,-9.0581,-9.0581,-9.0581,-9.0581,-9.0581,-9.0581,-9.0581,-9.0581,-9.0581,-9.0581,-9.0581,-9.0581,-9.0581,-9.0581,-9.0581,-9.1559,-9.3008,-9.3008,-9.3986,-9.5398,-9.5398,-9.5398,-9.5398,-9.5398,-9.5398,-9.5398,-9.5398,-9.5398,-9.5398,-9.5398,-9.5398,-9.5398,-9.5398,-9.5398,-9.5398,-9.5398,-9.5398,-9.5398,-9.5398,-9.5398,-9.5398,-9.5398,-9.5398,-9.5612,-9.6143,-9.6691,-9.7388,-9.8375,-9.9213,-9.9904,-10.0165,-10.0424,-10.0604,-10.0604,-10.0604,-10.0604,-10.0604,-10.0604,-10.0604,-10.0604,-10.0604,-10.0604,-10.0604,-10.0604,-10.0604,-10.0604,-10.0604,-10.0604,-10.0604,-10.0604,-10.0604,-10.0604,-10.0604,-10.0604,-10.0604,-10.0604,-10.0604,0.0,0.0,0.0,0.0,0.0,0.0,0.0,0.0,0.0,0.0,0.0,0.0,0.0,0.0,0.0,0.0,0.0,0.0,0.0,0.0,0.0,0.0,0.0,0.0,0.0,0.0,0.0,0.0,0.0,0.0,-9.0581,-9.0581,-9.0581,-9.0581,-9.0581,-9.0581,-9.0581,-9.0581,-9.0581,-9.0581,-9.0581,-9.0581,-9.0581,-9.0581,-9.0581,-9.0581,-9.0581,-9.0581,-9.0581,-9.0581,-9.1559,-9.3008,-9.3008,-9.3986,-9.5398,-9.5398,-9.5398,-9.5398,-9.5398,-9.5398,-9.5398,-9.5398,-9.5398,-9.5398,-9.5398,-9.5398,-9.5398,-9.5398,-9.5398,-9.5398,-9.5398,-9.5398,-9.5398,-9.5398,-9.5398,-9.5398,-9.5398,-9.5398,-9.5612,-9.6143,-9.6691,-9.7388,-9.8375,-9.9213,-9.9904,-10.0165,-10.0424,-10.0604,-10.0604,-10.0604,-10.0604,-10.0604,-10.0604,-10.0604,-10.0604,-10.0604,-10.0604,-10.0604,-10.0604,-10.0604,-10.0604,-10.0604,-10.0604,-10.0604,-10.0604,-10.0604,-10.0604,-10.0604,-10.0604,-10.0604,-10.0604,-10.0604,0.0,0.0,0.0,0.0,0.0,0.0,0.0,0.0,0.0,0.0,0.0,0.0,0.0,0.0,0.0,0.0,0.0,0.0,0.0,0.0,0.0,0.0,0.0,0.0,0.0,0.0,0.0,0.0,0.0,0.0,-9.0581,-9.0581,-9.0581,-9.0581,-9.0581,-9.0581,-9.0581,-9.0581,-9.0581,-9.0581,-9.0581,-9.0581,-9.0581,-9.0581,-9.0581,-9.0581,-9.0581,-9.0581,-9.0581,-9.0581,-9.1559,-9.3008,-9.3008,-9.3986,-9.5398,-9.5398,-9.5398,-9.5398,-9.5398,-9.5398,-9.5398,-9.5398,-9.5398,-9.5398,-9.5398,-9.5398,-9.5398,-9.5398,-9.5398,-9.5398,-9.5398,-9.5398,-9.5398,-9.5398,-9.5398,-9.5398,-9.5398,-9.5398,-9.5446,-9.5695,-9.6462,-9.721,-9.7604,-9.8692,-9.9537,-9.9649,-9.9986,-10.0288,-10.0288,-10.051,-10.0604,-10.0604,-10.0604,-10.0604,-10.0604,-10.0604,-10.0604,-10.0604,-10.0604,-10.0604,-10.0604,-10.0604,-10.0604,-10.0604,-10.0604,-10.0604,-10.0604,-10.0604,-10.0604,-10.0604,-10.0604,-10.0604,-6.5561,0.0,0.0,0.0,0.0,0.0,0.0,0.0,0.0,0.0,0.0,0.0,0.0,0.0,0.0,0.0,0.0,0.0,0.0,0.0,0.0,0.0,0.0,0.0,0.0,0.0,0.0,0.0,0.0,0.0,-9.0581,-9.0581,-9.0581,-9.0581,-9.0581,-9.0581,-9.0581,-9.0581,-9.0581,-9.0581,-9.0581,-9.0581,-9.0581,-9.0581,-9.0581,-9.0581,-9.0581,-9.0581,-9.0581,-9.0581,-9.1559,-9.3008,-9.3008,-9.3986,-9.5398,-9.5398,-9.5398,-9.5398,-9.5398,-9.5398,-9.5398,-9.5398,-9.5398,-9.5398,-9.5398,-9.5398,-9.5398,-9.5398,-9.5398,-9.5398,-9.5398,-9.5398,-9.5398,-9.5398,-9.5398,-9.5398,-9.5398,-9.5398,-9.5398,-9.5398,-9.6186,-9.6953,-9.7138,-9.8179,-9.9095,-9.9309,-9.9758,-10.0113,-10.0215,-10.0403,-10.051,-10.0604,-10.0604,-10.0604,-10.0604,-10.0604,-10.0604,-10.0604,-10.0604,-10.0604,-10.0604,-10.0604,-10.0604,-10.0604,-10.0604,-10.0604,-10.0604,-10.0604,-10.0604,-10.0604,-10.0604,-10.0604,0.0,0.0,0.0,0.0,0.0,0.0,0.0,0.0,0.0,0.0,0.0,0.0,0.0,0.0,0.0,0.0,0.0,0.0,0.0,0.0,0.0,0.0,0.0,0.0,0.0,0.0,0.0,0.0,0.0,-8.9748,-9.0545,-9.0581,-9.0581,-9.0581,-9.0581,-9.0581,-9.0581,-9.0581,-9.0581,-9.0581,-9.0581,-9.0581,-9.0581,-9.0581,-9.0581,-9.0581,-9.0581,-9.0581,-9.0581,-9.0581,-9.1559,-9.3008,-9.3008,-9.3986,-9.5398,-9.5398,-9.5398,-9.5398,-9.5398,-9.5398,-9.5398,-9.5398,-9.5398,-9.5398,-9.5398,-9.5398,-9.5398,-9.5398,-9.5398,-9.5398,-9.5398,-9.5398,-9.5398,-9.5398,-9.5398,-9.5398,-9.5398,-9.5398,-9.5398,-9.5398,-9.5939,-9.6535,-9.7064,-9.7912,-9.863,-9.9251,-9.9537,-9.9904,-10.0088,-10.0215,-10.0315,-10.0595,-10.0604,-10.0604,-10.0604,-10.0604,-10.0604,-10.0604,-10.0604,-10.0604,-10.0604,-10.0604,-10.0604,-10.0604,-10.0604,-10.0604,-10.0604,-10.0604,-10.0604,-10.0604,-10.0604,-10.0604,-6.612,0.0,0.0,0.0,0.0,0.0,0.0,0.0,0.0,0.0,0.0,0.0,0.0,0.0,0.0,0.0,0.0,0.0,0.0,0.0,0.0,0.0,0.0,0.0,0.0,0.0,0.0,0.0,0.0,-8.9748,-9.0545,-9.0581,-9.0581,-9.0581,-9.0581,-9.0581,-9.0581,-9.0581,-9.0581,-9.0581,-9.0581,-9.0581,-9.0581,-9.0581,-9.0581,-9.0581,-9.0581,-9.0581,-9.0581,-9.0581,-9.1559,-9.3008,-9.3008,-9.3986,-9.5398,-9.5398,-9.5398,-9.5398,-9.5398,-9.5398,-9.5398,-9.5398,-9.5398,-9.5398,-9.5398,-9.5398,-9.5398,-9.5398,-9.5398,-9.5398,-9.5398,-9.5398,-9.5398,-9.5398,-9.5398,-9.5398,-9.5398,-9.5398,-9.5398,-9.5398,-9.5939,-9.6535,-9.699,-9.7706,-9.8348,-9.8929,-9.9251,-9.9481,-9.9537,-9.9919,-10.0227,-10.0277,-10.051,-10.0604,-10.0604,-10.0604,-10.0604,-10.0604,-10.0604,-10.0604,-10.0604,-10.0604,-10.0604,-10.0604,-10.0604,-10.0604,-10.0604,-10.0604,-10.0604,-10.0604,-10.0604,-10.0604,-6.6457,-6.6728,-6.6812,-6.6812,0.0,0.0,0.0,0.0,0.0,0.0,0.0,0.0,0.0,0.0,0.0,0.0,0.0,0.0,0.0,0.0,0.0,0.0,0.0,0.0,0.0,0.0,0.0,0.0,-8.8444,-8.9386,-9.0545,-9.0581,-9.0581,-9.0581,-9.0581,-9.0581,-9.0581,-9.0581,-9.0581,-9.0581,-9.0581,-9.0581,-9.0581,-9.0581,-9.0581,-9.0581,-9.0581,-9.0581,-9.0581,-9.0581,-9.1559,-9.3008,-9.3008,-9.3986,-9.5398,-9.5398,-9.5398,-9.5398,-9.5398,-9.5398,-9.5398,-9.5398,-9.5398,-9.5398,-9.5398,-9.5398,-9.5398,-9.5398,-9.5398,-9.5398,-9.5398,-9.5398,-9.5398,-9.5398,-9.5398,-9.5398,-9.5398,-9.5398,-9.5398,-9.5398,-9.5695,-9.6186,-9.699,-9.7425,-9.7912,-9.878,-9.905,-9.9133,-9.9309,-9.9649,-9.9866,-9.9972,-10.0315,-10.0424,-10.0424,-10.0519,-10.0604,-10.0604,-10.0604,-10.0604,-10.0604,-10.0604,-10.0604,-10.0604,-10.0604,-10.0604,-10.0604,-10.0604,-10.0604,-10.0604,-10.0604,-10.0604,-6.6643,-6.6728,-6.6728,-6.6812,0.0,0.0,-6.7015,-6.7996,0.0,0.0,0.0,0.0,0.0,0.0,0.0,0.0,0.0,0.0,0.0,0.0,0.0,0.0,0.0,0.0,0.0,0.0,0.0,-8.6959,-8.7865,-8.8988,-9.04,-9.0545,-9.0581,-9.0581,-9.0581,-9.0581,-9.0581,-9.0581,-9.0581,-9.0581,-9.0581,-9.0581,-9.0581,-9.0581,-9.0581,-9.0581,-9.0581,-9.0581,-9.0581,-9.0581,-9.1559,-9.3008,-9.3008,-9.3986,-9.5398,-9.5398,-9.5398,-9.5398,-9.5398,-9.5398,-9.5398,-9.5398,-9.5398,-9.5398,-9.5398,-9.5398,-9.5398,-9.5398,-9.5398,-9.5398,-9.5398,-9.5398,-9.5398,-9.5398,-9.5398,-9.5398,-9.5398,-9.5398,-9.5398,-9.5398,-9.5398,-9.574,-9.6916,-9.7137,-9.7496,-9.8679,-9.8905,-9.9027,-9.9192,-9.9309,-9.9424,-9.9742,-9.9972,-10.0177,-10.0177,-10.0424,-10.0604,-10.0604,-10.0604,-10.0604,-10.0604,-10.0604,-10.0604,-10.0604,-10.0604,-10.0604,-10.0604,-10.0604,-10.0604,-10.0604,-10.0604,-10.0604,-6.6182,-6.6388,-6.6592,-6.6728,0.0,0.0,-6.8368,-6.7929,0.0,0.0,0.0,0.0,0.0,0.0,0.0,0.0,0.0,0.0,0.0,0.0,0.0,0.0,0.0,0.0,0.0,0.0,-8.6199,-8.6959,-8.8372,-8.9314,-8.9603,-9.0255,-9.0581,-9.0581,-9.0581,-9.0581,-9.0581,-9.0581,-9.0581,-9.0581,-9.0581,-9.0581,-9.0581,-9.0581,-9.0581,-9.0581,-9.0581,-9.0581,-9.0581,-9.0581,-9.1559,-9.3008,-9.3008,-9.3986,-9.5398,-9.5398,-9.5398,-9.5398,-9.5398,-9.5398,-9.5398,-9.5398,-9.5398,-9.5398,-9.5398,-9.5398,-9.5398,-9.5398,-9.5398,-9.5398,-9.5398,-9.5398,-9.5398,-9.5398,-9.5398,-9.5398,-9.5398,-9.5398,-9.5398,-9.5398,-9.5398,-9.5777,-9.6953,-9.7174,-9.7533,-9.8717,-9.8905,-9.8905,-9.8966,-9.917,-9.9309,-9.9367,-9.9866,-10.0177,-10.0177,-10.0424,-10.0604,-10.0604,-10.0604,-10.0604,-10.0604,-10.0604,-10.0604,-10.0604,-10.0604,-10.0604,-10.0604,-10.0604,-10.0604,-10.0604,-10.0604,-10.0604,-6.6388,-6.6558,0.0,-6.6728,0.0,0.0,0.0,-6.7354,0.0,0.0,0.0,0.0,0.0,0.0,0.0,0.0,0.0,0.0,0.0,0.0,0.0,0.0,0.0,0.0,0.0,0.0,-8.6199,-8.6959,-8.8118,-8.8988,-8.9386,-9.0147,-9.0581,-9.0581,-9.0581,-9.0581,-9.0581,-9.0581,-9.0581,-9.0581,-9.0581,-9.0581,-9.0581,-9.0581,-9.0581,-9.0581,-9.0581,-9.0581,-9.0581,-9.0581,-9.1306,-9.2465,-9.2863,-9.3986,-9.5398,-9.5398,-9.5398,-9.5398,-9.5398,-9.5398,-9.5398,-9.5398,-9.5398,-9.5398,-9.5398,-9.5398,-9.5398,-9.5398,-9.5398,-9.5398,-9.5398,-9.5398,-9.5398,-9.5398,-9.5398,-9.5398,-9.5398,-9.5398,-9.5398,-9.5398,-9.5398,-9.574,-9.6953,-9.7174,-9.7533,-9.8679,-9.8905,-9.8905,-9.8905,-9.899,-9.9111,-9.9111,-9.9649,-10.001,-10.001,-10.0365,-10.0604,-10.0604,-10.0604,-10.0604,-10.0604,-10.0604,-10.0604,-10.0604,-10.0604,-10.0604,-10.0604,-10.0604,-10.0604,-10.0604,-10.0604,-10.0604,0.0,0.0,0.0,0.0,0.0,-6.6812,0.0,0.0,0.0,0.0,0.0,0.0,0.0,0.0,0.0,0.0,0.0,0.0,0.0,0.0,0.0,0.0,0.0,0.0,0.0,0.0,-8.5974,-8.6742,-8.7348,-8.8143,-8.9133,-8.9929,-9.0436,-9.0581,-9.0581,-9.0581,-9.0581,-9.0581,-9.0581,-9.0581,-9.0581,-9.0581,-9.0581,-9.0581,-9.0581,-9.0581,-9.0581,-9.0581,-9.0581,-9.0581,-9.1088,-9.1885,-9.2682,-9.3877,-9.5181,-9.5326,-9.5398,-9.5398,-9.5398,-9.5398,-9.5398,-9.5398,-9.5398,-9.5398,-9.5398,-9.5398,-9.5398,-9.5398,-9.5398,-9.5398,-9.5398,-9.5398,-9.5398,-9.5398,-9.5398,-9.5398,-9.5398,-9.5398,-9.5398,-9.5398,-9.5398,-9.574,-9.6916,-9.7137,-9.7496,-9.8679,-9.8905,-9.8905,-9.8905,-9.8905,-9.8905,-9.8905,-9.9405,-9.9742,-9.9796,-10.0227,-10.0519,-10.0604,-10.0604,-10.0604,-10.0604,-10.0604,-10.0604,-10.0604,-10.0604,-10.0604,-10.0604,-10.0604,-10.0604,-10.0604,-10.0604,-10.0604,0.0,0.0,0.0,0.0,-6.6812,0.0,0.0,0.0,0.0,0.0,0.0,0.0,0.0,0.0,0.0,0.0,0.0,0.0,0.0,0.0,0.0,0.0,0.0,0.0,0.0,0.0,0.0,-8.5942,-8.593,-8.6603,-8.8222,-8.9096,-8.9857,-9.0581,-9.0581,-9.0581,-9.0581,-9.0581,-9.0581,-9.0581,-9.0581,-9.0581,-9.0581,-9.0581,-9.0581,-9.0581,-9.0581,-9.0581,-9.0581,-9.0581,-9.1088,-9.1885,-9.2682,-9.3551,-9.442,-9.5145,-9.5398,-9.5398,-9.5398,-9.5398,-9.5398,-9.5398,-9.5398,-9.5398,-9.5398,-9.5398,-9.5398,-9.5398,-9.5398,-9.5398,-9.5398,-9.5398,-9.5398,-9.5398,-9.5398,-9.5398,-9.5398,-9.5398,-9.5398,-9.5398,-9.5398,-9.574,-9.6916,-9.7137,-9.7496,-9.8679,-9.8905,-9.8905,-9.8905,-9.8905,-9.8905,-9.8905,-9.917,-9.9481,-9.9796,-10.0113,-10.0288,-10.0604,-10.0604,-10.0604,-10.0604,-10.0604,-10.0604,-10.0604,-10.0604,-10.0604,-10.0604,-10.0604,-10.0604,-10.0604,-10.0604,-10.0604,0.0,0.0,0.0,0.0,0.0,0.0,-6.6931,0.0,-6.6812,0.0,0.0,0.0,0.0,0.0,0.0,0.0,0.0,0.0,0.0,0.0,0.0,0.0,0.0,0.0,0.0,0.0,0.0,0.0,0.0,-8.4836,-8.6087,-8.8227,-8.9531,-8.9893,-9.0364,-9.0581,-9.0581,-9.0581,-9.0581,-9.0581,-9.0581,-9.0581,-9.0581,-9.0581,-9.0581,-9.0581,-9.0581,-9.0581,-9.0581,-9.0581,-9.0799,-9.1197,-9.1994,-9.308,-9.4312,-9.5109,-9.5398,-9.5398,-9.5398,-9.5398,-9.5398,-9.5398,-9.5398,-9.5398,-9.5398,-9.5398,-9.5398,-9.5398,-9.5398,-9.5398,-9.5398,-9.5398,-9.5398,-9.5398,-9.5398,-9.5398,-9.5398,-9.5398,-9.5398,-9.5398,-9.5398,-9.574,-9.6953,-9.7137,-9.7496,-9.8679,-9.8905,-9.8905,-9.8905,-9.8905,-9.8905,-9.8905,-9.917,-9.9424,-9.9742,-9.9986,-10.0277,-10.0604,-10.0604,-10.0604,-10.0604,-10.0604,-10.0604,-10.0604,-10.0604,-10.0604,-10.0604,-10.0604,-10.0604,-10.0604,-10.0604,-10.0604,-6.8696,0.0,0.0,0.0,0.0,0.0,0.0,0.0,0.0,0.0,0.0,0.0,0.0,0.0,-6.6812,-6.6812,0.0,0.0,0.0,0.0,0.0,0.0,0.0,0.0,0.0,0.0,0.0,0.0,0.0,0.0,-8.4567,-8.7068,-8.8734,-8.9386,-9.0183,-9.0581,-9.0581,-9.0581,-9.0581,-9.0581,-9.0581,-9.0581,-9.0581,-9.0581,-9.0581,-9.0581,-9.0581,-9.0581,-9.0581,-9.0581,-9.0581,-9.069,-9.1487,-9.2646,-9.3986,-9.4783,-9.5217,-9.5398,-9.5398,-9.5398,-9.5398,-9.5398,-9.5398,-9.5398,-9.5398,-9.5398,-9.5398,-9.5398,-9.5398,-9.5398,-9.5398,-9.5398,-9.5398,-9.5398,-9.5398,-9.5398,-9.5398,-9.5398,-9.5398,-9.5398,-9.5398,-9.5777,-9.699,-9.7174,-9.7496,-9.8679,-9.8905,-9.8905,-9.8905,-9.8905,-9.8905,-9.8905,-9.905,-9.9405,-9.9742,-10.001,-10.0227,-10.0604,-10.0604,-10.0604,-10.0604,-10.0604,-10.0604,-10.0604,-10.0604,-10.0604,-10.0604,-10.0604,-10.0604,-10.0604,-10.0604,-10.0604,0.0,0.0,0.0,-7.0147,0.0,0.0,0.0,0.0,-6.6812,0.0,0.0,0.0,0.0,-6.6812,-6.6812,-6.6812,-6.6812,0.0,0.0,0.0,0.0,0.0,0.0,0.0,0.0,0.0,0.0,0.0,0.0,0.0,-8.4494,-8.5511,-8.7032,-8.9314,-9.0183,-9.0581,-9.0581,-9.0581,-9.0581,-9.0581,-9.0581,-9.0581,-9.0581,-9.0581,-9.0581,-9.0581,-9.0581,-9.0581,-9.0581,-9.0581,-9.0581,-9.069,-9.1487,-9.232,-9.3153,-9.395,-9.4746,-9.5398,-9.5398,-9.5398,-9.5398,-9.5398,-9.5398,-9.5398,-9.5398,-9.5398,-9.5398,-9.5398,-9.5398,-9.5398,-9.5398,-9.5398,-9.5398,-9.5398,-9.5398,-9.5398,-9.5398,-9.5398,-9.5398,-9.5398,-9.5398,-9.5777,-9.699,-9.7174,-9.7496,-9.8679,-9.8905,-9.8905,-9.8905,-9.8905,-9.8905,-9.8905,-9.8905,-9.9111,-9.9742,-9.9796,-10.0024,-10.0595,-10.0604,-10.0604,-10.0604,-10.0604,-10.0604,-10.0604,-10.0604,-10.0604,-10.0604,-10.0604,-10.0604,-10.0604,-10.0604,-10.0604,0.0,0.0,-7.107,-7.176,0.0,0.0,0.0,0.0,0.0,0.0,0.0,0.0,0.0,-6.7489,-6.7151,-6.8166,-6.7489,-6.6812,0.0,0.0,0.0,0.0,0.0,0.0,0.0,0.0,0.0,0.0,0.0,0.0,0.0,-8.3193,-8.5549,-8.8553,-8.9386,-9.0074,-9.0581,-9.0581,-9.0581,-9.0581,-9.0581,-9.0581,-9.0581,-9.0581,-9.0581,-9.0581,-9.0581,-9.0581,-9.0581,-9.0581,-9.0581,-9.0618,-9.0907,-9.1487,-9.2392,-9.3732,-9.471,-9.5398,-9.5398,-9.5398,-9.5398,-9.5398,-9.5398,-9.5398,-9.5398,-9.5398,-9.5398,-9.5398,-9.5398,-9.5398,-9.5398,-9.5398,-9.5398,-9.5398,-9.5398,-9.5398,-9.5398,-9.5398,-9.5398,-9.5398,-9.5398,-9.5777,-9.699,-9.7174,-9.7496,-9.8679,-9.8905,-9.8905,-9.8905,-9.8905,-9.8905,-9.8905,-9.8905,-9.9111,-9.9742,-10.0075,-10.0413,-10.0604,-10.0604,-10.0604,-10.0604,-10.0604,-10.0604,-10.0604,-10.0604,-10.0604,-10.0604,-10.0604,-10.0604,-10.0604,-10.0604,-10.0604,-7.3575,-7.3442,0.0,-7.3838,-7.2504,0.0,-7.0817,0.0,0.0,0.0,0.0,0.0,0.0,-6.7742,-6.7151,-6.8046,-6.737,-6.6812,0.0,-6.6812,0.0,0.0,0.0,0.0,0.0,0.0,0.0,0.0,0.0,0.0,0.0,0.0,-8.4111,-8.7573,-8.8794,-8.9785,-9.0581,-9.0581,-9.0581,-9.0581,-9.0581,-9.0581,-9.0581,-9.0581,-9.0581,-9.0581,-9.0581,-9.0581,-9.0581,-9.0581,-9.0581,-9.0581,-9.0581,-9.1088,-9.1958,-9.3298,-9.4457,-9.5398,-9.5398,-9.5398,-9.5398,-9.5398,-9.5398,-9.5398,-9.5398,-9.5398,-9.5398,-9.5398,-9.5398,-9.5398,-9.5398,-9.5398,-9.5398,-9.5398,-9.5398,-9.5398,-9.5398,-9.5398,-9.5398,-9.5398,-9.5398,-9.5777,-9.6953,-9.7174,-9.7533,-9.8679,-9.8905,-9.8905,-9.8905,-9.8905,-9.8905,-9.8905,-9.8905,-9.9111,-9.9742,-10.0215,-10.051,-10.0604,-10.0604,-10.0604,-10.0604,-10.0604,-10.0604,-10.0604,-10.0604,-10.0604,-10.0604,-10.0604,-10.0604,-10.0604,-10.0604,-10.0604]}]]